[[{"header":{"parameterUnit":"m.s-1","parameterCategory":1,"la1":30.6,"la2":29.2853,"lo1":-89.7004,"lo2":-87.6739,"dy":0.0162,"dx":0.0183,"nx":112,"ny":82,"refTime":"2023-05-31T06:00:00:Z","depth":0,"parameterNumber":2,"parameterNumberName":"U-component_of_WINDS"},"data":[0.0,0.0,0.0,0.0,0.0,0.0,0.0,0.0,0.0,0.0,0.0,0.0,0.0,0.0,0.0,0.0,0.0,0.0,0.0,0.0,0.0,0.0,0.0,0.0,0.0,0.0,0.0,0.0,0.0,0.0,0.0,0.0,0.0,0.0,0.0,0.0,0.0,0.0,0.0,0.0,0.0,0.0,0.0,0.0,0.0,0.0,0.0,0.0,0.0,0.0,0.0,0.0,0.0,0.0,0.0,0.0,0.0,0.0,0.0,0.0,0.0,0.0,0.0,0.0,0.0,0.0,0.0,0.0,0.0,0.0,0.0,0.0,0.0,0.0,0.0,0.0,0.0,0.0,0.0,0.0,0.0,0.0,0.0,0.0,0.0,0.0,0.0,0.0,0.0,0.0,-3.673,-3.6435,-3.5913,-3.5558,-3.5534,-3.5514,-3.5522,-3.5508,0.0,0.0,0.0,0.0,0.0,0.0,0.0,0.0,0.0,0.0,0.0,0.0,0.0,0.0,0.0,0.0,0.0,0.0,0.0,0.0,0.0,0.0,0.0,0.0,0.0,0.0,0.0,0.0,0.0,0.0,0.0,0.0,0.0,0.0,0.0,0.0,0.0,0.0,0.0,0.0,0.0,0.0,0.0,0.0,0.0,0.0,0.0,0.0,0.0,0.0,0.0,0.0,0.0,0.0,0.0,0.0,0.0,0.0,0.0,0.0,0.0,0.0,0.0,0.0,0.0,0.0,0.0,0.0,0.0,0.0,0.0,0.0,0.0,0.0,0.0,0.0,0.0,0.0,0.0,0.0,0.0,0.0,0.0,0.0,0.0,0.0,0.0,0.0,0.0,0.0,0.0,0.0,0.0,0.0,0.0,0.0,0.0,0.0,0.0,0.0,0.0,0.0,0.0,0.0,-3.6239,-3.5647,-3.5482,-3.5364,-3.5193,-3.5178,-3.5403,-3.5951,0.0,0.0,0.0,0.0,0.0,0.0,0.0,0.0,0.0,0.0,0.0,0.0,0.0,0.0,0.0,0.0,0.0,0.0,0.0,0.0,0.0,0.0,0.0,0.0,0.0,0.0,0.0,0.0,0.0,0.0,0.0,0.0,0.0,0.0,0.0,0.0,0.0,0.0,0.0,0.0,0.0,0.0,0.0,0.0,0.0,0.0,0.0,0.0,0.0,0.0,0.0,0.0,0.0,0.0,0.0,0.0,0.0,0.0,0.0,0.0,0.0,0.0,0.0,0.0,0.0,0.0,0.0,0.0,0.0,0.0,0.0,0.0,0.0,0.0,0.0,0.0,0.0,0.0,0.0,0.0,0.0,0.0,0.0,0.0,0.0,0.0,0.0,0.0,0.0,0.0,0.0,0.0,0.0,0.0,0.0,0.0,0.0,0.0,0.0,0.0,0.0,0.0,0.0,-3.5985,-3.5668,-3.556,-3.5364,-3.5239,-3.5273,-3.5162,-3.5393,-3.6064,-3.5892,0.0,0.0,0.0,0.0,0.0,0.0,0.0,0.0,0.0,0.0,0.0,0.0,0.0,0.0,0.0,0.0,0.0,0.0,0.0,0.0,0.0,0.0,0.0,0.0,0.0,0.0,0.0,0.0,0.0,0.0,0.0,0.0,0.0,0.0,0.0,0.0,0.0,0.0,0.0,0.0,0.0,0.0,0.0,0.0,0.0,0.0,0.0,0.0,0.0,0.0,0.0,0.0,0.0,0.0,0.0,0.0,0.0,0.0,0.0,0.0,0.0,0.0,0.0,0.0,0.0,0.0,0.0,0.0,0.0,0.0,0.0,0.0,0.0,0.0,0.0,0.0,0.0,0.0,0.0,0.0,0.0,0.0,0.0,0.0,0.0,0.0,0.0,0.0,0.0,0.0,0.0,0.0,0.0,0.0,0.0,0.0,0.0,0.0,0.0,0.0,0.0,0.0,-3.5302,-3.535,-3.5608,-3.5302,-3.5146,-3.5258,-3.5098,-3.5362,-3.6287,-3.6153,0.0,0.0,0.0,0.0,0.0,0.0,0.0,0.0,0.0,0.0,0.0,0.0,0.0,0.0,0.0,0.0,0.0,0.0,0.0,0.0,0.0,0.0,0.0,0.0,0.0,0.0,0.0,0.0,0.0,0.0,0.0,0.0,0.0,0.0,0.0,0.0,0.0,0.0,0.0,0.0,0.0,0.0,0.0,0.0,0.0,0.0,0.0,0.0,0.0,0.0,0.0,0.0,0.0,0.0,0.0,0.0,0.0,0.0,0.0,0.0,0.0,0.0,0.0,0.0,0.0,0.0,0.0,0.0,0.0,0.0,0.0,0.0,0.0,0.0,0.0,0.0,0.0,0.0,0.0,0.0,0.0,0.0,0.0,0.0,0.0,0.0,0.0,0.0,0.0,0.0,0.0,0.0,0.0,0.0,0.0,0.0,0.0,0.0,0.0,0.0,0.0,0.0,-3.5553,-3.5608,-3.5451,-3.5243,-3.5066,-3.4945,-3.4752,-3.5321,-3.6915,-3.6333,0.0,0.0,0.0,0.0,0.0,0.0,0.0,0.0,0.0,0.0,0.0,0.0,0.0,0.0,0.0,0.0,0.0,0.0,0.0,0.0,0.0,0.0,0.0,0.0,0.0,0.0,0.0,0.0,0.0,0.0,0.0,0.0,0.0,0.0,0.0,0.0,0.0,0.0,0.0,0.0,0.0,0.0,0.0,0.0,0.0,0.0,0.0,0.0,0.0,0.0,0.0,0.0,0.0,0.0,0.0,0.0,0.0,0.0,0.0,0.0,0.0,0.0,0.0,0.0,0.0,0.0,0.0,0.0,0.0,0.0,0.0,0.0,0.0,0.0,0.0,0.0,0.0,0.0,0.0,0.0,0.0,0.0,0.0,0.0,0.0,0.0,0.0,0.0,0.0,0.0,0.0,0.0,0.0,0.0,0.0,0.0,0.0,0.0,0.0,0.0,0.0,0.0,-3.5232,-3.5288,-3.5209,-3.5066,-3.4944,-3.4889,-3.471,-3.5315,-3.6986,0.0,0.0,0.0,0.0,0.0,0.0,0.0,0.0,0.0,0.0,0.0,0.0,0.0,0.0,0.0,0.0,0.0,0.0,0.0,0.0,0.0,0.0,0.0,0.0,0.0,0.0,0.0,0.0,0.0,0.0,0.0,0.0,0.0,0.0,0.0,0.0,0.0,0.0,0.0,0.0,0.0,0.0,0.0,0.0,0.0,0.0,0.0,0.0,0.0,0.0,0.0,0.0,0.0,0.0,0.0,0.0,0.0,0.0,0.0,0.0,0.0,0.0,0.0,0.0,0.0,0.0,0.0,0.0,0.0,0.0,0.0,0.0,0.0,0.0,0.0,0.0,0.0,0.0,0.0,0.0,0.0,0.0,0.0,0.0,0.0,0.0,0.0,0.0,0.0,0.0,0.0,0.0,0.0,0.0,0.0,0.0,0.0,0.0,0.0,0.0,0.0,0.0,-3.5051,-3.5149,-3.5193,-3.5193,-3.5016,-3.4908,-3.4908,-3.471,-3.5315,-3.6986,0.0,0.0,0.0,0.0,0.0,0.0,0.0,0.0,0.0,0.0,0.0,0.0,0.0,0.0,0.0,0.0,0.0,0.0,0.0,0.0,0.0,0.0,0.0,0.0,0.0,0.0,0.0,0.0,0.0,0.0,0.0,0.0,0.0,0.0,0.0,0.0,0.0,0.0,0.0,0.0,0.0,0.0,0.0,0.0,0.0,0.0,0.0,0.0,0.0,0.0,0.0,0.0,0.0,0.0,0.0,0.0,0.0,0.0,0.0,0.0,0.0,0.0,0.0,0.0,0.0,0.0,0.0,0.0,0.0,0.0,0.0,0.0,0.0,0.0,0.0,0.0,0.0,0.0,0.0,0.0,0.0,0.0,0.0,0.0,0.0,0.0,0.0,0.0,0.0,0.0,0.0,0.0,0.0,0.0,0.0,0.0,0.0,0.0,0.0,0.0,0.0,0.0,-3.5378,-3.5391,-3.5391,-3.5391,-3.5122,-3.4927,-3.4927,-3.4728,-3.5315,0.0,0.0,0.0,0.0,0.0,0.0,0.0,0.0,0.0,0.0,0.0,0.0,0.0,0.0,0.0,0.0,0.0,0.0,0.0,0.0,0.0,0.0,0.0,0.0,0.0,0.0,0.0,0.0,0.0,0.0,0.0,0.0,0.0,0.0,0.0,0.0,0.0,0.0,0.0,0.0,0.0,0.0,0.0,0.0,0.0,0.0,0.0,0.0,0.0,0.0,0.0,0.0,0.0,0.0,0.0,0.0,0.0,0.0,0.0,0.0,0.0,0.0,0.0,0.0,0.0,0.0,0.0,0.0,0.0,0.0,0.0,0.0,0.0,0.0,0.0,0.0,0.0,0.0,0.0,0.0,0.0,0.0,0.0,0.0,0.0,0.0,0.0,0.0,0.0,0.0,0.0,0.0,0.0,0.0,0.0,0.0,0.0,0.0,0.0,0.0,0.0,0.0,0.0,-3.4851,-3.503,-3.5346,-3.5703,-3.576,-3.5927,-3.6403,-3.5885,-3.6216,-3.7831,0.0,0.0,0.0,0.0,0.0,0.0,0.0,0.0,0.0,0.0,0.0,0.0,0.0,0.0,0.0,0.0,0.0,0.0,0.0,0.0,0.0,0.0,0.0,0.0,0.0,0.0,0.0,0.0,0.0,0.0,0.0,0.0,0.0,0.0,0.0,0.0,0.0,0.0,0.0,0.0,0.0,0.0,0.0,0.0,0.0,0.0,0.0,0.0,0.0,0.0,0.0,0.0,0.0,0.0,0.0,0.0,0.0,0.0,0.0,0.0,0.0,0.0,0.0,0.0,0.0,0.0,0.0,0.0,0.0,0.0,0.0,0.0,0.0,0.0,0.0,0.0,0.0,0.0,0.0,0.0,0.0,0.0,0.0,0.0,0.0,0.0,0.0,0.0,0.0,0.0,0.0,0.0,0.0,0.0,0.0,0.0,0.0,0.0,0.0,0.0,0.0,0.0,-3.5164,-3.5363,-3.5628,-3.5937,-3.6298,-3.6672,-3.7065,-3.6366,-3.6441,-3.7737,0.0,0.0,0.0,0.0,0.0,0.0,0.0,0.0,0.0,0.0,0.0,0.0,0.0,0.0,0.0,0.0,0.0,0.0,0.0,0.0,0.0,0.0,0.0,0.0,0.0,0.0,0.0,0.0,0.0,0.0,0.0,0.0,0.0,0.0,0.0,0.0,0.0,0.0,0.0,0.0,0.0,0.0,0.0,0.0,0.0,0.0,0.0,0.0,0.0,0.0,0.0,0.0,0.0,0.0,0.0,0.0,0.0,0.0,0.0,0.0,0.0,0.0,0.0,0.0,0.0,0.0,0.0,0.0,0.0,0.0,0.0,0.0,0.0,0.0,0.0,0.0,0.0,0.0,0.0,0.0,0.0,0.0,0.0,0.0,0.0,0.0,0.0,0.0,0.0,0.0,0.0,0.0,0.0,0.0,0.0,0.0,0.0,0.0,0.0,0.0,0.0,0.0,-3.6081,-3.6118,-3.6137,-3.6288,-3.6836,-3.723,-3.7347,-3.6517,-3.6348,-3.7155,0.0,0.0,0.0,0.0,0.0,0.0,0.0,0.0,0.0,0.0,0.0,0.0,0.0,0.0,0.0,0.0,0.0,0.0,0.0,0.0,0.0,0.0,0.0,0.0,0.0,0.0,0.0,0.0,0.0,0.0,0.0,0.0,0.0,0.0,0.0,0.0,0.0,0.0,0.0,0.0,0.0,0.0,0.0,0.0,0.0,0.0,0.0,0.0,0.0,0.0,0.0,0.0,0.0,0.0,0.0,0.0,0.0,0.0,0.0,0.0,-4.2546,0.0,0.0,0.0,0.0,0.0,0.0,0.0,0.0,0.0,0.0,0.0,0.0,0.0,0.0,0.0,0.0,0.0,0.0,0.0,0.0,0.0,0.0,0.0,0.0,0.0,0.0,0.0,0.0,0.0,0.0,0.0,0.0,0.0,0.0,0.0,0.0,0.0,0.0,0.0,0.0,0.0,-3.6678,-3.6321,-3.6434,-3.7713,-3.7967,-3.8319,-3.8995,-3.7681,-3.7192,-3.8,-3.6608,0.0,0.0,0.0,0.0,0.0,0.0,0.0,0.0,0.0,0.0,0.0,0.0,0.0,0.0,0.0,0.0,0.0,0.0,0.0,0.0,0.0,0.0,0.0,0.0,0.0,0.0,0.0,0.0,0.0,0.0,0.0,0.0,0.0,0.0,0.0,0.0,0.0,0.0,0.0,0.0,0.0,0.0,0.0,0.0,0.0,0.0,0.0,0.0,0.0,0.0,0.0,0.0,0.0,0.0,0.0,0.0,0.0,0.0,0.0,0.0,-4.1717,0.0,0.0,0.0,0.0,0.0,0.0,0.0,0.0,0.0,0.0,0.0,0.0,0.0,0.0,0.0,0.0,0.0,0.0,0.0,0.0,0.0,0.0,0.0,0.0,0.0,0.0,0.0,0.0,0.0,0.0,0.0,0.0,0.0,0.0,0.0,0.0,0.0,0.0,0.0,0.0,-3.7474,-3.6967,-3.6948,-3.8169,-3.8676,-3.9107,-3.9564,-3.8056,-3.7268,-3.7699,-3.6461,0.0,0.0,0.0,0.0,0.0,0.0,0.0,0.0,0.0,0.0,0.0,0.0,0.0,0.0,0.0,0.0,0.0,0.0,0.0,0.0,0.0,0.0,0.0,0.0,0.0,0.0,0.0,0.0,0.0,0.0,0.0,0.0,0.0,0.0,0.0,0.0,0.0,0.0,0.0,0.0,0.0,0.0,0.0,0.0,0.0,0.0,0.0,0.0,0.0,0.0,0.0,0.0,0.0,-4.1028,-4.0981,-4.0894,-4.0653,-4.0482,-4.0422,-4.0345,-4.0362,-4.0454,0.0,0.0,0.0,0.0,0.0,0.0,0.0,0.0,0.0,0.0,0.0,0.0,0.0,0.0,0.0,0.0,0.0,0.0,0.0,0.0,0.0,0.0,0.0,0.0,0.0,-3.5801,-3.5803,0.0,0.0,0.0,0.0,0.0,0.0,0.0,0.0,0.0,0.0,0.0,0.0,-3.8112,-3.7718,-3.7624,-3.8432,-3.9164,-3.9602,-3.9602,-3.8056,-3.7103,-3.7126,-3.6242,-3.5353,0.0,0.0,0.0,0.0,0.0,0.0,0.0,0.0,0.0,0.0,0.0,0.0,0.0,0.0,0.0,0.0,0.0,0.0,0.0,0.0,0.0,0.0,0.0,0.0,0.0,0.0,0.0,0.0,0.0,0.0,0.0,0.0,-2.8578,-2.9212,0.0,0.0,0.0,0.0,0.0,0.0,0.0,0.0,0.0,0.0,0.0,0.0,0.0,-4.0632,-4.0864,-4.0906,-4.0975,-4.1089,-4.1094,-4.1018,-4.0901,-4.0732,-4.0604,-4.0481,-4.0344,0.0,-4.0309,-4.0308,0.0,0.0,0.0,0.0,0.0,0.0,0.0,0.0,0.0,0.0,0.0,0.0,0.0,0.0,0.0,0.0,0.0,0.0,0.0,0.0,0.0,0.0,-3.5799,-3.5799,-3.5791,-3.5791,0.0,-3.5639,-3.5438,-3.5249,0.0,0.0,0.0,0.0,0.0,0.0,0.0,0.0,-3.8188,-3.8206,-3.8469,-3.9333,-3.9545,-3.9602,-3.9602,-3.8056,-3.7107,-3.7178,-3.5786,-3.4842,-3.4591,-3.4724,0.0,0.0,0.0,0.0,0.0,0.0,0.0,0.0,0.0,0.0,0.0,0.0,0.0,0.0,0.0,0.0,0.0,0.0,0.0,0.0,0.0,0.0,0.0,0.0,0.0,0.0,0.0,0.0,0.0,-2.8562,-2.9219,-2.9507,-2.938,-2.9554,0.0,0.0,0.0,0.0,0.0,0.0,0.0,0.0,0.0,-3.8145,-3.9447,-4.0371,-4.0771,-4.085,-4.098,-4.1093,-4.1103,-4.1037,-4.0906,-4.0762,-4.0636,-4.0485,-4.0363,-4.031,-4.031,-4.0291,-4.031,-4.0253,0.0,0.0,0.0,0.0,0.0,-3.6753,-3.5988,-3.5794,0.0,0.0,0.0,0.0,0.0,0.0,0.0,0.0,0.0,0.0,0.0,0.0,0.0,-3.5799,-3.5765,-3.5708,-3.564,-3.5523,-3.5432,0.0,-3.5078,-3.5154,-3.5949,0.0,0.0,0.0,0.0,-3.738,-3.8206,-3.83,-3.8638,-3.9526,-3.9602,-3.9414,-3.8901,-3.7774,-3.6938,-3.654,-3.5449,-3.481,-3.487,-3.4733,-3.4653,0.0,0.0,0.0,0.0,0.0,0.0,0.0,0.0,0.0,0.0,0.0,0.0,0.0,0.0,0.0,0.0,0.0,0.0,0.0,0.0,0.0,0.0,0.0,0.0,0.0,0.0,0.0,0.0,-2.9311,-2.9825,-3.0098,-3.0006,-3.0189,0.0,0.0,0.0,0.0,0.0,0.0,-3.5197,-3.6107,-3.7163,-3.8375,-3.934,-4.0133,-4.0694,-4.0801,-4.0933,-4.1107,-4.1107,-4.1037,-4.0906,-4.0762,-4.0636,-4.0504,-4.0363,-4.031,-4.0327,-4.031,-4.031,-4.0234,-3.9704,-3.9384,-3.9054,-3.7906,-3.7284,-3.6917,-3.6343,-3.6064,-3.5935,-3.5935,0.0,-3.5903,-3.589,0.0,0.0,0.0,0.0,-3.5728,-3.5782,0.0,-3.5791,-3.5773,-3.5747,-3.5648,-3.5523,-3.5412,-3.5336,0.0,-3.5114,-3.5154,-3.5927,0.0,0.0,0.0,0.0,-3.7549,-3.7943,-3.8375,-3.8882,-3.9545,-3.9414,-3.8995,-3.8357,-3.7385,-3.6588,-3.6073,-3.5302,-3.4946,-3.5127,-3.4851,-3.4773,-3.4963,0.0,0.0,0.0,0.0,0.0,0.0,0.0,0.0,0.0,0.0,0.0,0.0,0.0,0.0,0.0,0.0,0.0,0.0,0.0,0.0,0.0,0.0,0.0,0.0,0.0,0.0,0.0,0.0,0.0,-3.1205,-3.0904,0.0,0.0,0.0,0.0,-3.3772,-3.3872,-3.4382,-3.5509,-3.671,-3.7518,-3.7927,-3.9088,-4.0024,-4.0694,-4.0713,-4.0836,-4.1107,-4.1107,-4.1022,-4.0909,-4.0752,-4.0629,-4.0496,-4.0344,-4.0345,-4.0389,-4.0327,-4.031,-4.0291,-4.0336,-3.9868,-3.9223,-3.9315,-3.8365,-3.7016,-3.7099,-3.6621,-3.5991,-3.5991,-3.5942,-3.5895,-3.5827,-3.5768,0.0,0.0,-3.5688,-3.5728,-3.5782,-3.5799,-3.5782,-3.5708,-3.5688,-3.5667,-3.5519,-3.5307,-3.5136,0.0,-3.5026,-3.5172,-3.6027,0.0,-3.5916,-3.5953,-3.7268,-3.7981,-3.7249,-3.8544,-3.9564,-3.9602,-3.8863,-3.8357,-3.83,-3.6927,-3.6092,-3.6176,-3.5495,-3.5127,-3.5193,-3.5001,-3.4982,-3.5193,-3.4963,0.0,0.0,0.0,0.0,0.0,0.0,0.0,0.0,0.0,0.0,0.0,0.0,0.0,0.0,0.0,0.0,0.0,0.0,0.0,0.0,0.0,0.0,0.0,0.0,0.0,0.0,0.0,0.0,-3.1516,-3.1434,0.0,-3.2312,-3.1951,-3.2367,-3.3869,-3.3986,-3.448,-3.5532,-3.6574,-3.7345,-3.7675,-3.8832,-3.9764,-4.0444,-4.0602,-4.0825,-4.1107,-4.1093,-4.1046,-4.0961,-4.0839,-4.0707,-4.0617,-4.0489,-4.0476,-4.053,-4.0504,-4.0489,-4.0489,-4.0607,-4.0474,-4.0172,-3.9779,-3.9256,-3.8576,-3.75,-3.6974,-3.6679,-3.6126,-3.5923,-3.5899,-3.5872,-3.584,-3.5823,-3.5773,-3.5728,-3.5718,-3.5718,-3.5747,-3.5708,-3.5604,-3.5646,-3.5635,-3.5359,-3.5228,-3.5136,-3.5032,-3.4832,-3.4996,-3.5907,-3.5499,-3.524,-3.5822,-3.6836,-3.7418,-3.7136,-3.8568,-3.937,-3.8826,-3.8559,-3.8003,-3.6911,-3.6394,-3.5949,-3.5514,-3.5246,-3.5127,-3.5209,-3.5124,-3.5124,-3.5209,-3.5124,-3.5124,0.0,0.0,0.0,0.0,0.0,0.0,0.0,0.0,0.0,0.0,0.0,0.0,0.0,0.0,0.0,0.0,0.0,0.0,0.0,0.0,0.0,0.0,0.0,0.0,0.0,-3.1187,-3.1682,-3.1682,-3.1838,-3.2007,-3.2176,-3.2007,-3.2407,-3.3665,-3.3869,-3.4382,-3.527,-3.6364,-3.7177,-3.7575,-3.8728,-3.9611,-4.0219,-4.0532,-4.0801,-4.1026,-4.1072,-4.1087,-4.1022,-4.0889,-4.0809,-4.0761,-4.063,-4.061,-4.0662,-4.0662,-4.0694,-4.0706,-4.0769,-4.08,-4.0734,-4.0277,-3.9924,-3.9459,-3.7735,-3.718,-3.7089,-3.6196,-3.5895,-3.5899,-3.5903,-3.5898,-3.5891,-3.5826,-3.5765,-3.5728,-3.5728,-3.5728,-3.5708,-3.5585,-3.5604,-3.557,-3.5326,-3.5219,-3.5122,-3.4982,-3.4831,-3.49,-3.5528,-3.5109,-3.499,-3.5813,-3.6437,-3.6892,-3.7092,-3.8131,-3.8644,-3.806,-3.7845,-3.7284,-3.617,-3.593,-3.5628,-3.5131,-3.5127,-3.5143,-3.5209,-3.5124,-3.5124,-3.5209,-3.5209,-3.5209,-3.5209,0.0,0.0,0.0,0.0,0.0,0.0,0.0,0.0,0.0,0.0,0.0,0.0,0.0,0.0,0.0,0.0,0.0,0.0,0.0,0.0,0.0,0.0,0.0,-3.0599,-3.1261,-3.1739,-3.1682,-3.212,-3.2176,-3.1724,-3.212,-3.2602,-3.3145,-3.3716,-3.4235,-3.4769,-3.618,-3.7157,-3.7575,-3.8681,-3.9538,-4.0062,-4.0482,-4.0761,-4.0889,-4.1046,-4.1092,-4.1091,-4.0964,-4.09,-4.0909,-4.0752,-4.0731,-4.0801,-4.0801,-4.083,-4.0898,-4.0834,-4.08,-4.0812,-4.0878,-4.039,-3.9466,-3.7834,-3.7285,-3.7142,-3.6247,-3.5927,-3.5899,-3.5905,-3.5905,-3.5891,-3.5826,-3.5791,-3.5791,-3.5791,-3.5791,-3.5773,-3.5718,-3.5604,-3.5489,-3.5407,-3.5261,-3.511,-3.5092,-3.5001,-3.4908,-3.4908,-3.4908,-3.5135,-3.5845,-3.6097,0.0,-3.7071,-3.7289,-3.7389,-3.737,-3.6669,-3.6177,-3.6158,-3.5514,-3.5092,-3.5092,-3.516,-3.5209,-3.5209,-3.5019,-3.5001,-3.5209,-3.5209,-3.5209,-3.5209,0.0,0.0,0.0,0.0,0.0,0.0,0.0,0.0,0.0,0.0,0.0,0.0,0.0,0.0,0.0,0.0,0.0,0.0,0.0,0.0,0.0,-2.8961,-3.0242,-3.0083,-3.1287,-3.1951,-3.1263,-3.161,-3.1838,-3.1724,-3.1853,-3.2272,-3.313,-3.3716,-3.4235,-3.4769,-3.5916,-3.6768,-3.7269,-3.8297,-3.9158,-3.9787,-4.0395,-4.0771,-4.0889,-4.1042,-4.1105,-4.1091,-4.101,-4.1003,-4.1037,-4.0898,-4.0882,-4.0953,-4.0953,-4.0964,-4.0971,-4.0898,-4.0878,-4.0878,-4.0954,-4.0458,-3.9701,-3.9252,-3.8263,-3.7181,-3.6941,-3.6426,-3.5899,-3.5903,-3.5898,-3.5891,-3.5826,-3.5756,-3.5737,-3.5737,-3.5737,-3.5688,-3.5528,-3.5604,-3.5629,-3.533,-3.5345,-3.5355,-3.5209,-3.5124,-3.5072,-3.4927,-3.4908,-3.4965,-3.5172,-3.5759,0.0,-3.6439,-3.7009,-3.7181,-3.6593,-3.6368,-3.6046,-3.5438,-3.5261,-3.5176,-3.5176,-3.5193,-3.5209,-3.5209,-3.5141,-3.5141,-3.5209,-3.5209,-3.5209,0.0,0.0,0.0,0.0,0.0,0.0,0.0,0.0,0.0,0.0,0.0,0.0,0.0,0.0,0.0,0.0,0.0,0.0,0.0,0.0,0.0,0.0,-2.8943,-3.0103,-2.9658,-3.1065,-3.1838,-3.1087,-3.1263,-3.1321,-3.1146,-3.1495,-3.2042,-3.2958,-3.3678,-3.433,-3.4961,-3.6232,-3.6999,-3.7171,-3.8386,-3.9175,-3.9519,-4.0202,-4.0629,-4.082,-4.1013,-4.1101,-4.1091,-4.1053,-4.1062,0.0,-4.1028,-4.1006,-4.1031,-4.1031,-4.1033,0.0,0.0,0.0,0.0,0.0,-4.0714,-4.0296,-3.9925,-3.9131,-3.8166,-3.7449,-3.6855,-3.6372,-3.6011,-3.5911,-3.5898,-3.585,-3.5782,-3.5747,-3.5718,-3.5707,-3.5657,-3.5483,-3.5546,-3.557,-3.533,-3.5345,-3.534,-3.5223,0.0,0.0,-3.5054,-3.5037,-3.5133,-3.5439,-3.5666,-3.5894,-3.6217,-3.6369,-3.6312,-3.5836,-3.5834,-3.5659,-3.5183,-3.5176,0.0,0.0,0.0,-3.5209,-3.5209,-3.5209,0.0,0.0,0.0,-3.5209,0.0,0.0,0.0,0.0,-3.5209,-3.5209,0.0,0.0,0.0,0.0,0.0,0.0,0.0,0.0,0.0,0.0,0.0,0.0,0.0,0.0,0.0,0.0,-2.8621,-2.9863,-2.9545,-3.0773,-3.1495,-3.097,-3.1028,-3.0954,-3.0534,-3.1309,-3.2133,-3.2866,-3.3799,-3.4636,-3.534,0.0,0.0,0.0,0.0,-3.9338,-3.9362,-3.9948,-4.04,-4.0681,-4.0943,-4.1084,-4.1085,-4.1097,-4.1091,-4.1093,-4.1101,-4.1104,-4.1105,-4.11,-4.1067,-4.1,-4.0994,-4.0993,-4.1011,-4.1007,-4.1056,0.0,0.0,0.0,0.0,-3.8007,-3.7375,-3.7058,-3.6275,-3.5975,-3.5892,-3.5911,-3.5857,-3.5791,-3.5747,-3.5718,-3.5667,-3.5519,-3.5438,-3.5412,-3.5379,-3.5289,-3.5226,-3.5209,-3.5209,-3.5209,-3.5209,-3.5209,-3.5425,-3.6082,-3.5619,0.0,-3.6082,-3.56,-3.5209,-3.5209,0.0,0.0,-3.5209,-3.5209,-3.5209,-3.5209,-3.5209,-3.5209,-3.5209,-3.5209,-3.5209,-3.5209,-3.5209,-3.5209,-3.5209,-3.5209,-3.5209,-3.5209,-3.5209,-3.5209,0.0,0.0,0.0,0.0,0.0,0.0,0.0,0.0,0.0,0.0,0.0,0.0,0.0,0.0,0.0,-2.8329,-2.92,-3.0068,-3.076,-3.1227,-3.1248,-3.0553,-3.1185,-3.1674,-3.1689,-3.2328,-3.3125,-3.4069,-3.4732,-3.5395,-3.5959,-3.6732,0.0,-3.8303,-3.8543,-3.9018,-3.9692,-3.9886,-4.017,-4.0549,0.0,0.0,-4.0935,-4.1046,-4.1097,-4.1091,-4.1093,-4.1108,-4.1105,-4.1091,-4.1081,-4.1074,-4.1011,-4.1025,-4.1081,-4.1086,-4.1085,-4.1085,-4.0909,-4.0382,-3.9741,-3.9406,-3.8372,-3.7237,-3.7024,-3.6465,0.0,-3.5908,-3.5898,-3.5884,-3.5857,-3.5784,-3.5667,-3.5519,-3.5483,-3.5438,-3.527,-3.5304,-3.532,-3.5226,-3.5209,-3.5209,-3.5209,-3.5209,-3.525,-3.5386,-3.5288,-3.525,-3.5386,-3.5288,-3.5209,-3.5209,-3.5209,-3.5209,-3.5209,-3.5209,-3.5209,-3.5209,-3.5209,-3.5209,-3.5209,-3.5209,-3.5209,-3.5209,-3.5209,-3.5209,-3.5209,-3.5209,-3.5209,-3.5209,-3.5209,-3.5209,0.0,0.0,0.0,0.0,0.0,0.0,0.0,0.0,0.0,0.0,0.0,-2.7625,-2.7625,0.0,-2.8255,-2.8636,-2.9507,-3.0368,-3.0919,-3.166,-3.1856,-3.12,-3.1369,-3.1689,-3.2101,-3.2658,-3.3466,-3.4577,-3.513,-3.5681,-3.6301,-3.7187,-3.7829,-3.821,-3.8988,-3.9479,-3.9538,-4.0034,-4.0309,-4.0298,-4.0711,-4.0906,-4.091,-4.1042,-4.1101,-4.1097,-4.1091,-4.1094,-4.1091,-4.1097,-4.1108,-4.1108,-4.1066,-4.1066,-4.1094,-4.1094,-4.1101,-4.1108,-4.1108,-4.0815,-4.0385,-3.9937,-3.9234,-3.8394,-3.7507,-3.691,-3.6454,-3.6012,-3.5889,-3.5879,-3.583,-3.5754,-3.5659,-3.5531,-3.5477,-3.5424,-3.5369,-3.533,-3.5304,-3.5304,-3.5304,-3.5273,-3.5209,-3.5258,-3.5273,-3.5209,-3.5209,-3.5209,-3.5209,-3.5209,-3.5209,-3.5209,-3.5209,-3.5209,-3.5209,-3.5209,-3.5209,-3.5209,-3.5209,-3.5209,-3.5209,-3.5209,-3.5209,-3.5209,-3.5209,-3.5209,-3.5209,-3.5209,-3.5209,-3.5209,-3.5209,-3.5209,0.0,0.0,0.0,0.0,0.0,0.0,0.0,-2.7284,-2.7386,-2.7575,-2.7625,-2.7625,-2.7625,-2.8128,-2.8637,-2.8771,-2.9759,-3.0608,-3.094,-3.198,-3.2586,-3.221,-3.1973,-3.2077,-3.2693,-3.3206,-3.3991,-3.5046,-3.5477,-3.5968,-3.6631,-3.7722,-3.8209,-3.8091,-3.9577,-4.0077,-3.9367,-4.0225,-4.0435,-4.0043,-4.0571,-4.0828,-4.0839,-4.1,-4.1072,-4.1052,-4.1091,-4.109,-4.1093,-4.1103,-4.1097,-4.1094,-4.1091,-4.1108,-4.1108,-4.1108,-4.1108,-4.1108,-4.1108,-4.1108,-4.0971,-4.0288,-3.9937,-3.9546,-3.8199,-3.7526,-3.7067,-3.6364,-3.6036,-3.5883,-3.5772,-3.5732,-3.5697,-3.5568,-3.5489,-3.5443,-3.5514,-3.5369,-3.5273,-3.5383,-3.5383,-3.5335,-3.5258,-3.5304,-3.532,-3.5226,-3.5209,-3.5209,-3.5209,-3.5209,-3.5209,-3.5209,-3.5209,-3.5209,-3.5209,-3.5209,-3.5209,-3.5209,-3.5209,-3.5209,-3.5209,-3.5209,-3.5209,-3.5209,-3.5209,-3.5209,-3.5209,-3.5209,-3.5209,-3.5209,-3.5209,-3.5209,-2.5934,-2.6418,-2.651,-2.651,-2.6712,-2.6884,0.0,-2.7233,-2.7284,-2.7524,-2.7625,-2.7625,-2.7625,-2.8128,-2.8786,-2.937,-3.0058,-3.0788,-3.1588,-3.2282,-3.2811,-3.3199,-3.3719,-3.417,-3.4463,-3.5052,-3.5634,-3.6244,-3.6368,-3.6646,-3.7298,-3.7953,-3.8525,-3.9003,-3.9864,-4.0076,-3.9672,-4.0161,-4.0215,-3.9735,-4.03,-4.0549,-4.0564,-4.0809,-4.0915,-4.0924,-4.1047,-4.1094,-4.109,-4.1093,-4.109,-4.111,-4.1097,-4.1108,-4.1108,-4.1108,-4.1108,-4.1108,-4.1108,-4.1108,-4.1088,-4.0991,-4.0424,-3.9761,-3.9585,-3.8473,-3.7279,-3.7162,-3.6544,-3.5903,-3.5875,-3.5827,-3.5784,-3.5776,-3.566,-3.5585,-3.5596,-3.5483,-3.5364,-3.5398,-3.5304,-3.5258,-3.535,-3.5289,-3.5226,-3.5209,-3.5209,-3.5209,-3.5209,-3.5209,-3.5209,-3.5209,-3.5209,-3.5209,-3.5209,-3.5209,-3.5209,-3.5209,-3.5209,-3.5209,-3.5209,-3.5209,-3.5209,-3.5209,-3.5209,-3.5209,-3.5209,-3.5209,-3.5209,-3.5209,-3.5209,-3.5209,-2.5879,-2.6418,-2.651,-2.6645,-2.6712,-2.6832,-2.7041,-2.7093,-2.7144,-2.7437,-2.7488,-2.7607,-2.8098,-2.8727,-2.9385,-3.0013,-3.0672,-3.121,-3.1552,-3.2481,-3.3291,-3.3577,-3.4648,-3.5344,-3.5329,-3.5522,-3.5958,-3.6429,-3.6492,-3.66,-3.6831,-3.778,-3.8407,-3.8684,-3.9895,-4.0447,-4.0093,-4.0289,-4.0293,-4.0096,-4.0134,-4.0247,-4.0454,-4.0723,-4.0906,-4.103,-4.1086,-4.1101,-4.1094,-4.1094,-4.1092,-4.1091,-4.1097,-4.1108,-4.1108,-4.1108,-4.1108,-4.1108,-4.1108,-4.1108,-4.1108,-4.1108,-4.0854,-4.0464,-3.9956,-3.898,-3.7946,-3.7438,-3.6651,-3.5942,-3.5912,-3.589,-3.5864,-3.5866,-3.5784,-3.5735,-3.5776,-3.563,-3.5526,-3.5574,-3.5457,-3.5369,-3.5393,-3.535,-3.5289,-3.5209,-3.5209,-3.5209,-3.5209,-3.5209,-3.5209,-3.5209,-3.5209,-3.5209,-3.5242,-3.5261,-3.5258,-3.5254,-3.5254,-3.5254,-3.5254,-3.5258,-3.5261,-3.5261,-3.5308,-3.5289,-3.5261,-3.53,-3.5296,-3.5254,-3.5258,-3.5261,-2.5879,-2.6312,-2.6472,-2.6606,-2.6727,-2.6846,-2.6951,-2.7093,-2.7284,-2.7473,-2.759,-2.779,-2.8387,-2.9117,-2.9729,-3.0178,-3.0971,-3.1482,-3.1482,-3.2662,-3.3561,-3.3774,-3.5044,-3.5894,-3.5767,-3.5894,-3.6085,-3.6492,-3.6492,-3.6492,-3.6492,-3.7663,-3.8278,-3.8278,-3.9919,-4.0637,-4.0391,-4.0378,-4.0339,-4.0244,-3.9976,-3.9965,-4.0212,-4.0584,-4.0859,-4.1045,-4.1081,-4.11,-4.1105,-4.1107,-4.1093,-4.1093,-4.111,-4.1105,-4.1105,-4.1105,-4.1099,-4.1108,-4.1108,-4.1108,-4.1108,-4.1108,-4.1108,-4.0971,-4.0346,-3.9585,-3.8746,-3.7906,-3.7028,-3.6284,-3.5997,-3.5935,-3.5931,-3.5934,-3.5883,-3.584,-3.5894,-3.5764,-3.566,-3.5715,-3.5621,-3.5512,-3.5502,-3.5477,-3.5438,-3.5378,-3.5326,-3.527,-3.5209,-3.5209,-3.5226,-3.5242,-3.5223,-3.5258,-3.5308,-3.5308,-3.5304,-3.53,-3.5326,-3.534,-3.5296,-3.534,-3.5374,-3.535,-3.543,-3.5424,-3.5383,-3.5405,-3.5391,-3.5355,-3.532,-3.5293,-2.5893,-2.6111,-2.6286,-2.6286,-2.6568,-2.6846,-2.6951,-2.7372,-2.773,-2.7864,-2.8042,-2.8186,-2.8217,-2.8958,-2.9594,-2.9609,-3.0687,-3.1482,-3.1482,-3.2662,-3.3561,-3.3774,-3.4904,-3.5752,-3.5973,-3.6289,-3.6492,-3.6492,-3.6492,-3.6492,-3.6492,-3.7663,-3.8278,-3.8278,-3.9919,-4.0654,-4.0315,-4.0376,-4.0242,-3.9915,-3.9783,-3.9717,-3.9743,-4.0345,-4.0723,-4.0917,-4.1045,-4.1091,-4.1097,-4.11,-4.1097,-4.1097,-4.1103,-4.1108,-4.1108,-4.1108,-4.1093,-4.1108,-4.1108,-4.1108,-4.1108,-4.1108,-4.1108,-4.1108,-4.1069,-4.0444,-3.9605,-3.8785,-3.7926,-3.7067,-3.6225,-3.5991,-3.5991,-3.5991,-3.5958,-3.5903,-3.5903,-3.5833,-3.5791,-3.5791,-3.5696,-3.565,-3.5776,-3.5668,-3.565,-3.5757,-3.562,-3.5418,-3.5242,-3.5261,-3.5308,-3.53,-3.53,-3.53,-3.53,-3.53,-3.53,-3.5315,-3.5418,-3.5451,-3.5315,-3.5492,-3.557,-3.5495,-3.557,-3.5602,-3.5602,-3.5535,-3.5495,-3.5495,-3.5369,-3.5304,-2.5962,-2.6258,-2.6525,-2.6326,-2.6803,-2.7218,-2.6803,-2.7276,-2.7815,-2.778,-2.783,-2.8031,-2.8586,-2.9094,-2.9575,-2.9967,-3.0842,-3.1482,-3.1482,-3.2662,-3.3561,-3.3561,-3.4826,-3.5752,-3.5767,-3.6085,0.0,-3.6274,-3.6414,-3.6492,-3.6492,-3.7282,-3.7911,-3.8294,-3.9262,-4.0017,-4.0654,-3.9905,-3.9743,-4.0159,-3.9796,-3.9679,-3.9778,-4.021,-4.053,-4.0768,-4.0869,-4.096,-4.1038,-4.1072,-4.1094,-4.1097,-4.1101,-4.1107,-4.1107,-4.1107,-4.1092,-4.1094,-4.111,-4.1101,-4.1108,-4.1108,-4.1108,-4.1108,-4.1108,-4.0483,-3.9624,-3.8824,-3.7965,-3.7106,-3.6228,-3.5991,-3.5991,-3.5991,-3.5988,-3.5965,-3.5965,-3.5903,-3.5875,-3.5875,-3.5781,-3.5749,-3.5791,-3.5696,-3.5621,-3.5668,-3.5579,-3.5445,-3.53,-3.5285,-3.53,-3.53,-3.5315,-3.5315,-3.5364,-3.5364,-3.5402,-3.5483,-3.5531,-3.5577,-3.557,-3.5621,-3.566,-3.5621,-3.5687,-3.5704,-3.5669,-3.5696,-3.5687,-3.5621,-3.5492,-3.5438,-2.5812,-2.6165,-2.6472,-2.6433,-2.6893,-2.7306,-2.7071,-2.76,-2.8207,-2.8207,-2.8076,-2.8164,-2.8656,-2.9064,-2.9451,-2.9826,-3.077,-3.1467,-3.1409,-3.2602,-3.3499,-3.3499,-3.4778,-3.5653,-3.5653,-3.5894,0.0,-3.6196,-3.6414,-3.6492,-3.6492,-3.7058,-3.7695,-3.8278,-3.892,-3.9714,-4.0802,-3.9554,-3.9088,-3.9479,-3.9338,-3.9421,-3.9735,-3.9986,-4.0277,-4.0557,-4.066,-4.077,-4.0897,-4.0967,-4.1025,-4.1061,-4.1097,-4.1104,-4.1104,-4.1104,-4.1091,-4.1101,-4.1093,-4.1093,-4.1108,-4.1108,-4.1108,-4.1108,-4.1108,-4.0715,-4.0084,-3.9266,-3.8422,-3.7555,-3.6696,-3.6228,-3.5991,-3.5991,-3.5991,-3.5991,-3.5991,-3.5965,-3.5939,-3.5939,-3.5909,-3.5878,-3.5878,-3.5795,-3.5741,-3.571,-3.5678,-3.559,-3.5451,-3.5425,-3.5438,-3.5451,-3.5451,-3.5451,-3.5495,-3.5514,-3.5543,-3.5621,-3.5679,-3.5715,-3.5693,-3.576,-3.5794,-3.5764,-3.5833,-3.5846,-3.5801,-3.5833,-3.5807,-3.576,-3.564,-3.557,-2.5494,-2.5812,-2.6218,-2.6578,-2.6893,-2.7203,-2.7765,-2.8288,-2.8795,-2.9028,-2.8748,-2.8463,-2.8463,-2.8949,-2.9277,-2.9098,-3.0431,-3.1467,-3.1351,-3.2602,-3.3499,-3.3499,-3.4681,-3.5504,-3.5504,-3.5589,-3.5816,-3.6133,0.0,-3.6492,-3.6492,-3.7013,-3.7621,-3.8278,-3.8865,-3.9645,-4.0754,-3.9256,-3.8333,-3.7993,-3.8392,-3.8952,-3.9556,-3.9716,-3.9967,-4.03,-4.0438,-4.0565,-4.0703,-4.077,-4.0878,-4.0996,-4.1052,-4.1085,-4.1085,-4.1085,-4.1095,-4.1094,-4.1097,-4.1086,-4.1107,-4.1107,-4.1107,-4.1107,-4.1107,-4.1093,-4.0916,-4.0038,-3.9213,-3.84,-3.7538,-3.6657,-3.5994,-3.5994,-3.5991,-3.5991,-3.5991,-3.5991,-3.5991,-3.5991,-3.5991,-3.5991,-3.5991,-3.5991,-3.5981,-3.5899,-3.5914,-3.5866,-3.5724,-3.5706,-3.5696,-3.5693,-3.5693,-3.5693,-3.5693,-3.5693,-3.5702,-3.5702,-3.5833,-3.5846,-3.571,-3.5895,-3.5978,-3.5914,-3.5974,-3.5991,-3.5991,-3.5938,-3.5914,-3.5894,-3.576,-3.5713,-2.5369,-2.6002,-2.6549,-2.6563,-2.7306,-2.794,-2.7625,-2.8155,-2.8669,-2.8543,-2.824,-2.8061,-2.8061,-2.8622,-2.8987,-2.8987,-3.0303,-3.1351,-3.1278,-3.2602,-3.3499,-3.3499,-3.4681,-3.5504,-3.5504,-3.5589,-3.5752,0.0,-3.6022,-3.6163,-3.6274,-3.6445,-3.7087,-3.8278,-3.8446,-3.9102,-4.0254,-3.9375,-3.8473,-3.7632,-3.8296,-3.8789,-3.9144,-3.9445,-3.9794,-4.0158,-4.0247,-4.0408,-4.063,-4.0703,-4.08,-4.0926,-4.0935,-4.0943,-4.0943,-4.0943,-4.0952,-4.0949,-4.0953,-4.1013,-4.1107,-4.1107,-4.1107,-4.1086,-4.1041,-4.1066,-4.0914,-3.9988,-3.9155,-3.834,-3.7518,-3.6657,-3.6009,-3.5996,-3.5991,-3.5991,-3.5991,-3.5991,-3.5991,-3.5991,-3.5991,-3.5991,-3.5991,-3.5991,-3.5991,-3.5981,-3.5962,-3.5914,-3.5729,-3.5704,-3.5693,-3.5693,-3.5693,-3.5693,-3.5693,-3.5693,-3.5745,-3.584,-3.5883,-3.5899,-3.5923,-3.5965,-3.5988,-3.5962,-3.5988,-3.5991,-3.5991,-3.5985,-3.5962,-3.5978,-3.5894,-3.5846,-2.5839,-2.6336,-2.6849,-2.7034,-2.7625,-2.8088,-2.7974,-2.835,-2.8637,-2.8415,-2.8304,-2.8143,-2.77,-2.8748,-2.9559,-2.9248,-3.0779,-3.1921,-3.161,-3.2854,-3.3759,-3.3561,-3.4681,-3.5504,-3.5504,-3.5539,-3.5589,-3.5589,-3.5846,-3.6037,-3.6085,-3.6085,-3.6707,-3.8133,-3.8149,-3.8466,-3.914,-3.8928,-3.8303,-3.7228,-3.7843,-3.8418,-3.9008,-3.9189,-3.9561,-4.002,0.0,-4.0194,-4.038,-4.0516,-4.0655,-4.0787,-4.0869,-4.0907,-4.0907,-4.0907,-4.0907,-4.0907,-4.0907,-4.0953,-4.1013,-4.1042,-4.1066,-4.1042,-4.1008,-4.1003,-4.0918,-4.0403,-3.968,-3.8836,-3.8045,-3.7187,-3.6445,-3.6087,-3.6005,-3.6003,-3.5994,-3.5991,-3.5991,-3.5991,-3.5991,-3.5991,-3.5991,-3.5991,-3.5991,-3.5991,-3.5991,-3.5958,-3.5844,-3.5833,-3.5833,-3.5833,-3.5833,-3.5833,-3.5833,-3.5833,-3.585,-3.5938,-3.5942,-3.5951,-3.5991,-3.5991,-3.5991,-3.5991,-3.5991,-3.5991,-3.5991,-3.5991,-3.5991,-3.5991,-3.5955,-3.5942,-2.6457,-2.6707,-2.7071,-2.7625,-2.784,-2.7989,-2.8446,-2.859,-2.8542,-2.8431,-2.8511,-2.8304,-2.75,-2.9109,-3.0351,-2.9681,-3.1474,-3.2718,-3.2089,-3.333,-3.4099,-3.3653,-3.4718,-3.5464,-3.5489,-3.5504,-3.5504,-3.5504,-3.5797,-3.591,-3.5973,-3.6022,-3.6707,-3.806,-3.8092,-3.8027,-3.7858,-3.8203,-3.7836,-3.69,-3.7321,-3.8011,-3.8971,-3.8971,-3.9268,-3.9845,0.0,0.0,-4.012,-4.0315,-4.0472,-4.0604,-4.0818,-4.0888,-4.0888,-4.0888,-4.0888,-4.0888,-4.0888,-4.0888,-4.0907,-4.0952,-4.0988,-4.0988,-4.098,-4.0937,-4.0901,-4.0968,-4.034,-3.9494,-3.8695,-3.7841,-3.6985,-3.6191,-3.5996,-3.5995,-3.5986,-3.5982,-3.5999,-3.5994,-3.5991,-3.5991,-3.5991,-3.5991,-3.5991,-3.5991,-3.5994,-3.5994,-3.5994,-3.5991,-3.5991,-3.5991,-3.5991,-3.5991,-3.5991,-3.5991,-3.5991,-3.5991,-3.5991,-3.5991,-3.5991,-3.5994,-3.5994,-3.5994,-3.5994,-3.5996,-3.5996,-3.5996,-3.5994,-3.5994,-3.5994,-3.5994,-2.6229,-2.6707,-2.7174,-2.756,-2.7989,-2.825,-2.7989,-2.7989,-2.794,-2.7925,-2.791,-2.783,-2.761,-2.9073,-3.0179,-2.9681,-3.1328,-3.2641,-3.2477,-3.3395,-3.4053,-3.4027,-3.4805,-3.5413,-3.5509,-3.5504,-3.5504,0.0,-3.5554,-3.5604,-3.5767,-3.6305,-3.7207,-3.8606,-3.8642,-3.8355,-3.7761,-3.7627,-3.7359,-3.69,-3.7321,-3.7911,-3.8658,-3.8658,-3.899,-3.9575,0.0,0.0,-4.012,-4.0266,-4.0399,-4.054,-4.0739,-4.0827,-4.0827,-4.0827,-4.0827,-4.0827,-4.0827,-4.0823,-4.0828,-4.0907,-4.0917,-4.0917,-4.0849,-4.0869,-4.0878,-4.0849,-4.0256,-3.9439,-3.8633,-3.7771,-3.6926,-3.6184,-3.597,-3.5923,-3.5927,-3.5916,-3.5937,-3.5999,-3.5991,-3.5991,-3.5991,-3.5991,-3.5991,-3.5991,-3.5999,-3.6001,-3.5994,-3.5991,-3.5991,-3.5991,-3.5991,-3.5991,-3.5991,-3.5991,-3.5991,-3.5991,-3.5991,-3.5991,-3.5991,-3.5999,-3.6003,-3.6003,-3.6007,-3.6009,-3.6009,-3.6009,-3.6007,-3.6003,-3.6003,-3.5999,-2.7034,-2.7255,-2.756,-2.7825,-2.8088,-2.8235,-2.8152,-2.8103,-2.8054,-2.784,-2.786,-2.778,-2.7357,-2.8852,-3.0164,-3.0038,-3.1672,-3.3002,-3.3033,-3.3576,-3.3846,-3.3655,-3.4304,-3.4813,-3.4936,-3.5295,-3.5504,-3.5504,-3.5504,-3.5554,-3.5604,-3.66,-3.7488,-3.8124,-3.8526,-3.8354,-3.7713,-3.7204,-3.6869,-3.6597,-3.7017,-3.7578,-3.8291,-3.8504,-3.8818,-3.9242,-3.9433,0.0,-3.9813,-4.0081,-4.023,-4.03,-4.0485,-4.0579,-4.0635,-4.0635,-4.0713,-4.079,-4.079,-4.0796,-4.0812,-4.0834,-4.0848,-4.0839,-4.0818,-4.0826,-4.0846,-4.0807,-4.0518,-4.0053,-3.9229,-3.8376,-3.7534,-3.6757,-3.6208,-3.5841,-3.5841,-3.5854,-3.5868,-3.5937,-3.5956,-3.5954,-3.5986,-3.6003,-3.6003,-3.6003,-3.6005,-3.6007,-3.6003,-3.6003,-3.6003,-3.5999,-3.5999,-3.6001,-3.6003,-3.6003,-3.6003,-3.6003,-3.6003,-3.6003,-3.6003,-3.6007,-3.6009,-3.6009,-3.5991,-3.5991,-3.5991,-3.5991,-3.601,-3.6009,-3.6009,-3.6007,-2.774,-2.779,-2.784,-2.8088,-2.8137,-2.8186,-2.8235,-2.825,-2.8201,-2.789,-2.7894,-2.778,-2.7218,-2.8748,-3.0081,-3.0164,-3.1847,-3.3196,-3.3403,-3.3471,-3.345,-3.331,-3.3804,-3.423,-3.4394,-3.51,-3.5504,-3.5504,-3.5504,0.0,-3.591,-3.6951,-3.7584,-3.7728,-3.8121,-3.802,-3.7364,-3.6673,-3.6305,-3.6199,-3.6638,-3.7155,-3.7857,-3.8263,-3.8628,-3.8915,-3.9261,0.0,0.0,-3.992,-4.0101,-4.012,-4.0248,-4.0367,-4.0446,-4.0446,-4.0559,-4.0687,-4.0687,-4.07,-4.0733,-4.07,-4.0732,-4.0804,-4.0804,-4.08,-4.0803,-4.0792,-4.0804,-4.0613,-3.9791,-3.9063,-3.8305,-3.7316,-3.6411,-3.5777,-3.5788,-3.5773,-3.5806,-3.5864,-3.5888,-3.5891,-3.5957,-3.5957,-3.5957,-3.5957,-3.5976,-3.5975,-3.5975,-3.5993,-3.5991,-3.6007,-3.6007,-3.6007,-3.5991,-3.5991,-3.5991,-3.5991,-3.5991,-3.5991,-3.5991,-3.5992,-3.5992,-3.5992,-3.5993,-3.5993,-3.5993,-3.5993,-3.5993,-3.5992,-3.5992,-3.5992,-2.7625,-2.7725,-2.779,-2.784,-2.8039,-2.8137,-2.7775,-2.779,-2.784,-2.779,-2.7645,-2.753,-2.7386,-2.8867,-2.9977,-2.9499,-3.1041,-3.2503,-3.3171,-3.2827,-3.2798,-3.3454,-3.3913,-3.4122,-3.4207,-3.5021,-3.5504,-3.5504,-3.5504,0.0,-3.7131,-3.737,-3.7607,-3.8154,-3.7684,-3.7053,-3.6352,-3.5713,-3.5599,-3.595,-3.6416,-3.6843,-3.7285,-3.7809,-3.8234,-3.8554,0.0,0.0,0.0,-3.992,-4.0101,-4.012,-4.0248,-4.0317,-4.0317,-4.0317,-4.0334,-4.0351,-4.0351,-4.0434,-4.0511,-4.0383,-4.0545,-4.0803,-4.0803,-4.0803,-4.079,-4.0803,-4.0803,-4.0602,-3.973,-3.945,-3.8984,-3.7385,-3.6348,-3.5715,-3.5721,-3.5709,-3.5736,-3.5806,-3.5814,-3.5818,-3.5818,-3.5822,-3.5822,-3.5822,-3.586,-3.5911,-3.5914,-3.5957,-3.5995,-3.5995,-3.5992,-3.5991,-3.5991,-3.5991,-3.5991,-3.5991,-3.5991,-3.5991,-3.5991,-3.5994,-3.5995,-3.5995,-3.5996,-3.5996,-3.5996,-3.5996,-3.5996,-3.5995,-3.5995,-3.5994,-2.8188,-2.794,-2.7675,-2.779,-2.794,-2.8054,-2.7974,-2.8088,-2.8103,-2.784,-2.7509,-2.7291,-2.7386,-2.7942,-2.8705,-2.9591,-3.0266,-3.0982,-3.1964,-3.193,-3.1803,-3.187,-3.3008,-3.3768,-3.3704,-3.4598,-3.5296,-3.5474,0.0,0.0,-3.731,-3.7429,-3.7287,-3.7109,-3.714,-3.6671,-3.5679,-3.5343,-3.5321,-3.556,-3.595,-3.6399,-3.6843,-3.7303,-3.7739,-3.8138,0.0,0.0,0.0,-3.95,-3.9705,-3.9854,-3.992,-3.9983,-4.0062,-4.0062,-4.0157,-4.03,-4.03,-4.0315,-4.0367,-4.0317,-4.0403,-4.0515,-4.0593,-4.0621,-4.0635,-4.0778,-4.079,-4.0725,-4.0382,-3.9879,-3.9065,-3.7343,-3.6665,-3.6288,-3.5796,-3.5689,-3.5706,-3.5735,-3.5749,-3.5743,-3.5783,-3.5807,-3.5807,-3.5807,-3.5821,-3.5834,-3.5838,-3.5864,-3.5871,-3.5871,-3.5956,-3.5994,-3.5995,-3.5995,-3.5995,-3.5995,-3.5995,-3.5995,-3.5995,-3.5996,-3.5996,-3.5996,-3.5996,-3.5996,-3.5996,-3.5996,-3.5996,-3.5996,-3.5996,-3.5996,-2.8891,-2.8532,-2.8225,-2.8378,-2.848,-2.8586,-2.8538,-2.8492,-2.8381,-2.7886,-2.7458,-2.7137,-2.7115,-2.7432,-2.8001,-2.8961,-2.9331,-2.9778,-3.0647,-3.0815,-3.0784,-3.0669,-3.2103,-3.3093,-3.3146,-3.4325,-3.5142,-3.5394,0.0,0.0,0.0,-3.7062,-3.6927,-3.6621,-3.6708,-3.624,-3.5201,-3.5083,-3.5105,-3.5198,-3.5633,-3.6037,-3.6498,-3.696,-3.7431,-3.7846,0.0,0.0,0.0,-3.9144,-3.9414,-3.9647,-3.9647,-3.9698,-3.9772,-3.9772,-3.9922,-4.012,-4.012,-4.0157,-4.023,-4.0194,-4.0212,-4.0266,-4.0351,-4.0399,-4.0481,-4.0654,-4.0746,-4.079,-4.079,-4.0152,-3.9197,-3.7967,-3.7464,-3.7058,-3.6226,-3.6052,-3.5977,-3.5737,-3.5697,-3.5715,-3.576,-3.5774,-3.5774,-3.5774,-3.5768,-3.5762,-3.5762,-3.578,-3.5791,-3.5791,-3.5874,-3.5933,-3.595,-3.595,-3.595,-3.595,-3.595,-3.595,-3.595,-3.5953,-3.5974,-3.5974,-3.5996,-3.5996,-3.5996,-3.5996,-3.5996,-3.5996,-3.5996,-3.5996,-2.9564,-2.9564,-2.9604,-2.975,-2.9856,-2.9863,-2.9332,-2.8976,-2.8589,-2.7926,-2.7458,-2.6967,-2.6563,-2.7657,-2.8251,-2.7313,-2.8327,-2.9218,-2.9297,-2.9366,-2.966,-3.0428,-3.125,-3.205,-3.2723,-3.4053,-3.5001,0.0,0.0,0.0,0.0,-3.6326,-3.6565,-3.7084,-3.6406,-3.5644,-3.4916,-3.4899,-3.4899,-3.4899,-3.5362,-3.582,-3.6215,-3.6838,-3.7319,0.0,0.0,0.0,0.0,-3.9064,-3.9305,-3.9483,-3.9483,-3.9483,-3.9483,-3.9483,-3.9599,-3.9717,-3.9717,-3.9876,-4.0081,-3.9935,-3.9979,-4.0101,-4.0101,-4.0194,-4.0334,-4.0481,-4.0654,-4.079,-4.079,-4.0152,-3.9507,-3.9487,-3.8818,-3.7947,-3.7077,-3.6884,-3.6651,-3.5839,-3.5704,-3.5704,-3.5715,-3.5695,-3.5695,-3.5695,-3.5698,-3.5702,-3.5702,-3.5749,-3.5791,-3.5791,-3.5791,-3.5791,-3.5791,-3.5791,-3.5791,-3.5791,-3.5791,-3.5791,-3.5791,-3.5877,-3.5896,-3.5896,-3.5973,-3.5996,-3.5996,-3.5996,-3.5996,-3.5996,-3.5996,-3.5996,-3.0223,-2.9909,-2.9633,-2.9619,-2.9741,-2.9856,-2.9787,-2.9501,-2.9147,-2.8604,-2.7853,-2.7215,-2.6951,-2.7256,-2.7483,-2.7504,-2.7744,-2.8239,-2.9183,-2.9297,-2.9605,-3.0428,-3.1265,-3.2205,-3.3257,0.0,-3.4463,0.0,0.0,0.0,0.0,-3.4965,-3.5086,-3.5851,-3.5545,-3.5051,-3.4349,-3.4349,-3.4546,-3.4899,-3.5071,-3.5362,-3.582,-3.6308,0.0,0.0,0.0,0.0,0.0,-3.867,-3.8952,-3.9165,-3.9324,-3.9376,-3.9376,-3.9376,-3.9452,-3.9556,-3.9556,-3.9628,-3.9698,-3.9647,-3.967,-3.9698,-3.9698,-3.992,-4.0194,-4.0334,-4.0481,-4.0593,-4.0598,-4.0494,-4.023,-3.9586,-3.927,-3.8856,-3.7982,-3.7796,-3.7699,-3.7392,-3.7334,-3.7334,-3.7334,-3.7334,-3.7334,-3.7334,-3.7351,-3.7336,-3.7336,-3.7401,-3.7413,-3.7392,-3.7413,-3.7005,-3.5883,-3.5791,-3.5791,-3.5791,-3.5791,-3.5791,-3.5791,-3.5821,-3.5821,-3.5821,-3.5812,-3.5797,-3.5797,-3.5845,-3.5884,-3.5927,-3.5927,-3.5953,-3.1065,-3.0668,-3.0328,-3.0383,-3.0548,-3.0582,-3.0487,-3.0196,-2.9783,-2.9071,-2.8424,-2.7911,-2.7465,-2.7652,-2.7826,-2.7767,-2.7826,-2.8139,-2.8803,-2.9148,-2.9658,-3.0436,-3.1234,-3.198,0.0,-3.3195,0.0,0.0,0.0,0.0,0.0,-3.3994,-3.4171,-3.4706,-3.4917,-3.4823,-3.4399,-3.4399,-3.4546,-3.4899,-3.4899,-3.5148,-3.5616,-3.6071,0.0,0.0,0.0,0.0,0.0,-3.8296,-3.8535,-3.8785,-3.8894,-3.8952,-3.898,-3.9082,-3.9192,-3.9324,-3.9401,-3.9477,-3.9502,-3.9502,-3.9502,-3.9502,-3.9502,-3.9747,-4.0022,-4.0063,-4.021,-4.0348,-4.0281,-4.0367,-4.0346,-3.9856,-3.9769,-3.9585,-3.882,-3.8646,-3.855,-3.8176,-3.8105,-3.8105,-3.8105,-3.8105,-3.8105,-3.8105,-3.8105,-3.8105,-3.8105,-3.8132,-3.8151,-3.8086,-3.8132,-3.7754,-3.6762,-3.6673,-3.6537,-3.6207,-3.6187,-3.6032,-3.5749,-3.5725,-3.5714,-3.5714,-3.5716,-3.5703,-3.5703,-3.5736,-3.5786,-3.5825,-3.5825,-3.5868,0.0,-3.1712,-3.1539,-3.1727,-3.1898,-3.1886,-3.1357,-3.1055,0.0,-2.9415,-2.9171,-2.8878,-2.8009,-2.8608,-2.894,-2.7933,-2.8415,-2.8791,-2.8354,-2.9045,-2.9782,-3.051,-3.109,-3.1467,-3.1511,-3.214,0.0,0.0,0.0,0.0,0.0,-3.3429,-3.3684,-3.3684,-3.4443,-3.4851,-3.4899,-3.4787,-3.4787,-3.4899,-3.4899,-3.5102,-3.5588,-3.6071,0.0,0.0,0.0,0.0,0.0,-3.7984,-3.8153,-3.8382,-3.8382,-3.8382,-3.8415,-3.8683,-3.8862,-3.897,-3.9165,-3.9324,-3.9433,-3.9433,-3.9477,-3.9458,-3.9458,-3.9656,-3.9838,-3.9709,-3.9863,-4.0043,-3.9907,-3.9907,-3.9967,-4.021,-4.03,-4.0159,-3.9586,-3.9474,-3.9243,-3.8433,-3.8279,-3.8279,-3.8279,-3.8279,-3.8279,-3.8279,-3.8279,-3.8279,-3.8279,-3.8279,-3.8279,-3.8279,-3.8279,-3.8279,-3.8279,-3.8163,-3.7739,-3.6929,-3.689,-3.6575,-3.5804,-3.5715,-3.5689,-3.5689,-3.5682,-3.5689,-3.5689,-3.5689,-3.5689,-3.5696,-3.5696,-3.5755,-3.2641,0.0,-3.1539,-3.1539,-3.1727,-3.1853,0.0,-3.1554,-3.1132,-3.0473,-2.9778,-2.9117,-2.8412,-2.8564,-2.8598,-2.7933,-2.8637,-2.9318,-2.9406,-3.0177,-3.0793,-3.0732,-3.0773,-3.1095,-3.1821,-3.2195,0.0,0.0,0.0,0.0,0.0,-3.234,-3.2359,-3.2772,-3.3523,-3.4136,-3.4594,-3.3748,-3.3799,-3.4756,-3.4756,-3.4835,-3.5102,-3.5864,0.0,0.0,0.0,0.0,-3.7721,-3.7915,-3.8052,-3.8119,-3.8318,-3.8382,-3.8415,-3.8478,-3.851,-3.8541,-3.8585,-3.8646,-3.8707,-3.8902,-3.9073,-3.9192,-3.9192,-3.9383,-3.9604,-3.9556,-3.9683,-3.9797,-3.9769,-3.9821,-3.9907,-3.9984,-4.0157,-4.0243,-4.0051,-4.0165,-4.0241,-3.998,-3.9942,-3.9942,-3.9942,-3.9942,-3.9942,-3.9942,-3.9942,-3.9942,-3.9942,-3.9991,-3.9991,-3.9942,-3.9991,-3.9991,-3.9942,-3.881,-3.8009,-3.7816,-3.7797,-3.77,-3.752,-3.6865,-3.6517,-3.6517,-3.5893,-3.5538,-3.5554,-3.5554,-3.557,-3.5629,-3.5629,-3.5671,-3.3039,-3.2272,-3.1597,-3.1539,-3.1712,-3.1883,-3.1996,-3.1966,-3.1788,-3.1272,-3.0628,-2.9988,-2.9653,-2.9354,-2.9059,-2.8961,-2.9249,-2.9568,-2.9765,-3.0321,-3.0613,-3.0522,-3.0462,-3.0638,0.0,0.0,0.0,0.0,0.0,0.0,0.0,-3.1616,-3.1864,-3.2461,-3.2826,-3.3527,-3.4497,-3.3917,-3.3917,-3.4594,-3.4594,-3.4643,-3.4739,-3.5509,0.0,0.0,0.0,0.0,-3.7613,-3.7757,-3.7828,-3.781,-3.7984,-3.8018,-3.8052,-3.8186,-3.8219,-3.8219,-3.835,-3.8382,-3.8415,-3.8559,-3.8695,-3.8796,-3.895,-3.9073,-3.9192,-3.9298,-3.9414,-3.9494,-3.9433,-3.947,-3.9576,-3.9683,-3.9838,-3.9944,-4.0004,-4.012,-4.0267,-4.0339,-4.0356,-4.0389,-4.0489,-4.0489,-4.0489,-4.0489,-4.0489,-4.0489,-4.0489,-4.0539,-4.0539,-4.0504,-4.0539,-4.0539,-4.0504,-3.9706,-3.9047,-3.8662,-3.8642,-3.8469,-3.8064,-3.7607,-3.7343,-3.7343,-3.6488,-3.6045,-3.6054,-3.5669,-3.5528,-3.5554,-3.5554,-3.559,-3.3495,-3.2586,-3.1883,-3.1655,-3.1826,-3.2038,-3.2038,-3.2247,-3.2287,-3.1781,-3.1379,-3.1087,-3.097,-3.0326,-2.9898,-3.0266,-2.9898,-2.9651,-2.9884,-2.996,-3.005,-3.0111,-3.0219,0.0,0.0,0.0,0.0,0.0,0.0,0.0,0.0,-3.1146,-3.1652,-3.2398,-3.2398,-3.3087,-3.4448,-3.4333,-3.4333,-3.4448,-3.4448,-3.4497,-3.4546,-3.5115,-3.5599,0.0,0.0,0.0,-3.7503,-3.7503,-3.7503,-3.7503,-3.754,-3.754,-3.7594,-3.7845,-3.7949,-3.7984,-3.8186,-3.8318,-3.835,-3.835,-3.835,-3.8446,-3.8683,-3.8743,-3.8773,-3.8989,-3.9156,-3.9245,-3.9129,-3.9101,-3.9156,-3.9383,-3.9458,-3.9556,-3.9728,-3.9775,-3.9861,-4.0081,-4.012,-4.0177,-4.0336,-4.0406,-4.0441,-4.0441,-4.0473,-4.0508,-4.0492,-4.0473,-4.0473,-4.0473,-4.0473,-4.0473,-4.0473,-4.0473,-4.0185,-3.9512,-3.9473,-3.9089,-3.8204,-3.8166,-3.8108,-3.7993,-3.7262,-3.6877,-3.6911,-3.6219,-3.5878,-3.5858,-3.5743,-3.5714,-3.4431,-3.3547,-3.2547,-3.2038,-3.2038,-3.215,-3.215,-3.2302,-3.2216,-3.1652,-3.1552,-3.1437,-3.0896,-3.0792,-3.0673,-3.0372,-2.9898,-2.9727,-3.019,-3.0007,-2.9946,-3.0266,0.0,0.0,0.0,0.0,0.0,0.0,0.0,0.0,0.0,-3.097,-3.1263,-3.2327,-3.2398,-3.298,-3.4151,-3.363,-3.3681,-3.4349,-3.4349,-3.4399,-3.4497,-3.5021,-3.5402,0.0,0.0,-3.6736,-3.7087,-3.7087,-3.7087,-3.7105,-3.7297,-3.7334,-3.7372,-3.7577,-3.7649,-3.7649,-3.7721,-3.788,-3.8052,-3.8052,-3.8219,-3.8415,-3.8446,-3.8446,-3.8528,-3.8773,-3.896,-3.9129,-3.9101,-3.9101,-3.9129,-3.9137,-3.935,-3.9508,-3.9532,-3.9683,-3.9797,-3.9775,-3.9775,-3.9775,-3.9819,-4.0003,-4.0158,-4.0158,-4.036,-4.0482,-4.0413,-4.0413,-4.0413,-4.0413,-4.0413,-4.0413,-4.0413,-4.0413,-4.0356,-4.0241,-4.0274,-3.9906,-3.8955,-3.8936,-3.8607,-3.7928,-3.7775,-3.7732,-3.7796,-3.768,-3.7589,-3.7525,-3.6825,-3.6512,-3.48,-3.4284,-3.3646,-3.2857,-3.2287,-3.1996,-3.1996,-3.2094,-3.2079,-3.1853,-3.1625,-3.1509,-3.1552,-3.119,-3.0777,-3.0372,-2.9898,-2.9552,-2.9458,-2.928,-2.928,0.0,0.0,0.0,0.0,0.0,0.0,0.0,0.0,0.0,0.0,0.0,-3.0851,-3.1992,-3.2185,-3.2788,-3.3848,-3.3764,-3.3866,-3.4201,-3.4201,-3.425,-3.43,-3.4561,-3.4958,-3.534,0.0,-3.6291,-3.6696,-3.693,-3.6987,-3.7027,-3.7105,-3.7143,-3.7143,-3.7241,-3.7279,-3.7279,-3.7279,-3.7354,-3.7449,-3.7449,-3.7541,-3.7685,-3.7827,-3.7844,-3.7913,-3.8147,-3.8548,-3.896,-3.9073,-3.9073,-3.9064,-3.9101,-3.9156,-3.921,-3.9219,-3.9279,-3.9364,-3.9445,-3.947,-3.9519,-3.9641,-3.9754,-3.9819,-3.9819,-3.9922,-4.0002,-3.9982,-3.9982,-3.9982,-3.9982,-3.9982,-3.9982,-3.9982,-4.0101,-4.0252,-4.0379,-4.0432,-4.0241,-3.9821,-3.9802,-3.9629,-3.9262,-3.8783,-3.855,-3.86,-3.8159,-3.7932,-3.7881,-3.7529,-3.7356,-3.5115,-3.4802,-3.4415,-3.3511,-3.2641,-3.1996,-3.1898,-3.194,-3.1996,-3.194,-3.1697,-3.1582,-3.2038,-3.1379,-3.0718,-3.0433,-2.996,-2.9392,-2.8774,-2.8689,-2.8647,-2.8493,0.0,0.0,0.0,0.0,0.0,0.0,0.0,0.0,0.0,0.0,-3.0408,-3.1507,-3.1819,-3.2446,-3.3419,-3.3585,-3.3758,-3.3874,-3.3874,-3.3874,-3.3858,-3.3957,-3.4365,-3.4958,-3.5311,-3.5776,-3.6266,-3.6591,-3.6771,-3.6851,-3.6908,-3.6948,-3.6987,-3.6987,-3.6987,-3.6987,-3.6987,-3.6987,-3.6987,-3.6987,-3.6987,-3.7048,-3.7243,-3.7319,-3.7339,-3.756,-3.8047,-3.8523,-3.8855,-3.8884,-3.8873,-3.9017,-3.8979,-3.8892,-3.8968,-3.8939,-3.895,-3.9156,-3.9192,-3.9227,-3.9377,-3.9457,-3.9481,-3.95,-3.9548,-3.9576,-3.9571,-3.9571,-3.9571,-3.9571,-3.9571,-3.9571,-3.9571,-3.9754,-3.9962,-4.0177,-4.0326,-4.0381,-4.0381,-4.0381,-4.0381,-4.0379,-3.9727,-3.9382,-3.9399,-3.8786,-3.8482,-3.8463,-3.8271,-3.8175,-3.556,-3.4975,-3.4268,-3.37,-3.3145,-3.2641,-3.2247,-3.2094,-3.194,-3.1841,-3.1898,-3.194,-3.1841,-3.1278,-3.0777,-3.0777,-3.0144,-2.9392,-2.8774,0.0,-2.8478,0.0,0.0,0.0,0.0,0.0,0.0,0.0,0.0,0.0,0.0,0.0,0.0,-3.1013,-3.1507,-3.2018,-3.2641,-3.2525,-3.27,-3.3161,-3.3161,-3.3161,-3.3161,-3.3161,-3.3746,-3.4739,-3.4739,-3.5195,-3.5871,-3.5854,-3.6088,-3.6385,-3.6643,-3.6846,-3.6987,-3.6987,-3.6987,-3.6987,-3.6987,-3.6987,-3.6987,-3.6987,-3.6987,-3.7009,-3.7009,-3.7009,-3.7087,-3.7356,-3.745,-3.7614,-3.8212,-3.8355,-3.8455,-3.8815,-3.891,-3.891,-3.891,-3.8892,-3.8881,-3.8833,-3.8851,-3.8833,-3.8862,-3.8999,-3.9171,-3.9219,-3.9371,-3.95,-3.9508,-3.9508,-3.9508,-3.9508,-3.9508,-3.9508,-3.9508,-3.9532,-3.9532,-3.9556,-4.0021,-4.0308,-4.031,-4.031,-4.031,-4.0307,-4.025,-4.0229,-4.0319,-4.0262,-4.0189,-4.0096,-3.9363,-3.9001,-3.5622,-3.535,-3.4961,-3.4399,-3.3716,-3.2933,-3.1951,-3.1697,-3.164,-3.1597,-3.1655,-3.1712,-3.1799,-3.1219,-3.0777,-3.0777,-2.98,-2.883,-2.8212,-2.7776,0.0,0.0,0.0,0.0,0.0,0.0,0.0,0.0,0.0,0.0,0.0,0.0,0.0,-2.9406,-3.0015,-3.0552,-3.1105,-3.1444,-3.1529,-3.131,-3.1903,-3.2257,-3.2417,-3.2417,-3.2901,-3.3713,-3.3937,-3.4452,-3.5148,-3.5605,-3.5854,-3.6045,-3.6318,-3.6485,-3.655,-3.655,-3.655,-3.655,-3.655,-3.655,-3.655,-3.655,-3.655,-3.655,-3.655,-3.655,-3.6591,-3.6696,-3.6736,-3.696,-3.8011,-3.8277,-3.836,-3.8785,-3.8822,-3.878,-3.8822,-3.881,-3.878,-3.875,-3.875,-3.875,-3.875,-3.8737,-3.873,-3.8766,-3.8789,-3.8799,-3.8836,-3.8836,-3.8836,-3.8836,-3.8836,-3.8876,-3.9045,-3.9073,-3.9154,-3.9301,-3.9614,-3.9873,-4.0038,-4.0038,-4.0138,-4.0291,-4.0272,-4.0272,-4.0346,-4.0291,-4.0253,-4.0234,-3.9928,-3.9757,-3.5622,-3.5503,-3.5291,-3.4723,-3.3986,-3.3077,-3.2007,-3.164,-3.1482,-3.1482,-3.1482,-3.1539,-3.167,-3.1219,-3.0777,-3.0584,-2.954,-2.8404,-2.7611,0.0,0.0,0.0,0.0,0.0,0.0,0.0,0.0,0.0,0.0,0.0,0.0,0.0,0.0,0.0,-2.8861,-2.9381,-2.9826,-3.0238,-3.0329,-3.01,-3.0465,-3.1007,-3.1531,-3.1484,-3.187,-3.2644,-3.3175,-3.3789,-3.4393,-3.5323,-3.5783,-3.5958,-3.6216,-3.6301,-3.6301,-3.6301,-3.6301,-3.6301,-3.6301,-3.6301,-3.6301,-3.6301,-3.6301,-3.6301,-3.6301,-3.6301,-3.6301,-3.6301,-3.6259,-3.6474,-3.7542,-3.7893,-3.8065,-3.851,-3.859,-3.8609,-3.8652,-3.864,-3.8627,-3.8627,-3.8627,-3.8627,-3.8627,-3.8528,-3.8478,-3.8478,-3.8415,-3.8382,-3.8382,-3.8382,-3.8382,-3.8382,-3.8382,-3.846,-3.8658,-3.867,-3.8759,-3.8924,-3.91,-3.9313,-3.9656,-3.9679,-3.9766,-3.9956,-4.0017,-4.0058,-4.0098,-4.0157,-4.0176,-4.0176,-4.0176,-4.0157,-3.5622,-3.5458,-3.5135,-3.4545,-3.3802,-3.3093,-3.2547,-3.1966,-3.1482,-3.1482,-3.1482,-3.1482,-3.1482,-3.1219,-3.0777,-3.0133,-2.9256,-2.8228,0.0,0.0,0.0,0.0,0.0,0.0,0.0,0.0,0.0,0.0,0.0,0.0,0.0,0.0,0.0,0.0,-2.8254,-2.8637,-2.9083,-2.8891,-2.9144,-2.9808,-2.9043,-2.9344,-3.0574,-3.0323,-3.0688,-3.1662,-3.266,-3.3288,-3.3697,-3.486,-3.5694,-3.6208,-3.6276,-3.6301,-3.6301,-3.6301,-3.6301,-3.6301,-3.6301,-3.6301,-3.6301,-3.6301,-3.6301,-3.6301,-3.6301,-3.6301,-3.6301,-3.6301,-3.6233,-3.6276,-3.6603,-3.7038,-3.7487,-3.7915,-3.8186,-3.8382,-3.8382,-3.8382,-3.8382,-3.8382,-3.8382,-3.8382,-3.8382,-3.8382,-3.8382,-3.8382,-3.8382,-3.8382,-3.8382,-3.8382,-3.8382,-3.8382,-3.8382,-3.8382,-3.8382,-3.8382,-3.8382,-3.8382,-3.8382,-3.864,-3.9178,-3.9205,-3.9205,-3.9205,-3.9537,-3.9693,-3.9693,-3.9954,-4.0077,-4.0096,-4.0096,-4.0096,-3.5655,-3.5429,-3.5245,-3.4977,-3.4399,-3.3767,-3.3093,-3.2216,-3.1482,-3.1482,-3.1482,-3.1482,-3.1482,-3.1219,-3.0822,-3.0148,-2.8941,-2.7776,0.0,0.0,0.0,0.0,0.0,0.0,0.0,0.0,0.0,0.0,0.0,0.0,0.0,0.0,0.0,0.0,-2.6869,-2.7287,-2.7712,-2.7964,-2.8343,-2.8801,-2.8585,-2.8872,-2.953,-2.9437,-2.9864,-3.064,-3.0943,-3.1598,-3.2541,-3.3617,-3.4631,-3.5526,-3.5509,-3.5509,-3.5554,-3.5958,-3.6105,-3.6105,-3.6105,-3.6105,-3.6105,-3.6105,-3.6105,-3.6105,-3.6105,-3.6105,-3.6105,-3.6105,-3.6062,-3.6062,-3.6199,-3.6474,-3.6821,-3.7303,-3.7721,-3.7964,-3.7964,-3.8201,-3.8382,-3.8382,-3.8382,-3.8382,-3.8382,-3.8368,-3.8322,-3.8322,-3.8289,-3.8274,-3.8274,-3.8274,-3.8274,-3.8274,-3.8274,-3.8274,-3.8274,-3.8274,-3.8274,-3.8274,-3.8274,-3.8446,-3.8915,-3.8915,-3.9008,-3.9205,-3.9231,-3.9301,-3.9352,-3.9377,-3.9513,-3.9758,-3.9758,-3.9826,-3.5694,-3.54,-3.5245,-3.5135,-3.4626,-3.3951,-3.3108,-3.216,-3.1482,-3.1482,-3.1482,-3.1482,-3.1482,-3.1351,-3.0895,-3.0016,-2.8713,-2.7495,0.0,0.0,0.0,0.0,0.0,0.0,0.0,0.0,0.0,0.0,0.0,0.0,0.0,0.0,0.0,0.0,-2.6297,-2.6616,-2.6864,-2.7473,-2.794,-2.8152,-2.8299,-2.8541,-2.8811,-2.8811,-2.9124,-2.9627,-3.0038,-3.0973,-3.2321,-3.2991,-3.3815,-3.471,-3.4998,-3.5121,-3.5266,-3.5827,-3.6019,-3.6019,-3.6019,-3.6019,-3.6019,-3.6019,-3.6019,-3.6019,-3.6019,-3.6019,-3.6019,-3.6019,-3.5975,-3.5932,-3.5932,-3.6002,-3.6224,-3.6764,-3.719,-3.7451,-3.7451,-3.7756,-3.805,-3.805,-3.8186,-3.8322,-3.8322,-3.8307,-3.8241,-3.8241,-3.8225,-3.8192,-3.8192,-3.8192,-3.8192,-3.8192,-3.814,-3.8122,-3.8122,-3.8106,-3.809,-3.809,-3.809,-3.8189,-3.8442,-3.8523,-3.8628,-3.8799,-3.8886,-3.8924,-3.8952,-3.9036,-3.9171,-3.9364,-3.9364,-3.9508,-3.571,-3.5354,-3.5245,-3.5088,-3.4594,-3.3832,-3.2765,-3.2064,-3.1582,-3.1524,-3.1482,-3.1482,-3.1482,-3.1482,-3.1055,-2.9726,-2.8584,0.0,0.0,0.0,0.0,0.0,0.0,0.0,0.0,0.0,0.0,0.0,0.0,0.0,0.0,0.0,0.0,0.0,-2.6258,-2.6457,-2.6563,-2.7306,-2.779,0.0,-2.8201,-2.8411,-2.8411,-2.8411,-2.8477,-2.8732,-2.9675,-3.1015,-3.2547,-3.2679,-3.3112,-3.376,-3.4387,-3.4783,-3.5073,-3.5576,-3.5864,-3.5975,-3.5975,-3.5975,-3.5975,-3.5975,-3.5975,-3.5975,-3.5975,-3.5975,-3.5975,-3.5975,-3.5844,-3.5773,-3.5773,-3.5667,-3.5694,-3.6182,-3.658,-3.686,-3.686,-3.7152,-3.7469,-3.7469,-3.781,-3.814,-3.814,-3.814,-3.8192,-3.8192,-3.8192,-3.8192,-3.8192,-3.8192,-3.8158,-3.8106,-3.8002,-3.7949,-3.7949,-3.7863,-3.7864,-3.7899,-3.7899,-3.7899,-3.7899,-3.809,-3.8192,-3.8192,-3.8433,-3.8523,-3.8523,-3.877,-3.8924,-3.8952,-3.8952,-3.9136,-3.5549,-3.5105,-3.4994,-3.4947,-3.4497,-3.405,-3.3781,-3.2926,-3.2064,-3.1582,-3.1482,-3.1482,-3.1482,-3.1482,-3.1093,-2.9803,0.0,0.0,0.0,0.0,0.0,0.0,0.0,0.0,0.0,0.0,0.0,0.0,0.0,0.0,0.0,0.0,0.0,-2.5592,-2.5839,-2.6297,-2.6797,-2.7122,-2.7545,0.0,-2.8299,-2.8411,-2.8411,-2.8411,-2.8396,-2.8493,-2.9077,-3.0108,-3.1299,-3.1254,-3.1678,-3.236,-3.2498,-3.2941,-3.3532,-3.4064,-3.4858,-3.5711,-3.5711,-3.5711,-3.5711,-3.5711,-3.5711,-3.5711,-3.5711,-3.5711,-3.5711,-3.5711,-3.5639,-3.5566,-3.5566,-3.5475,-3.5367,-3.5503,-3.5985,-3.6409,-3.6409,-3.6759,-3.7017,-3.7017,-3.7358,-3.7632,-3.7632,-3.7862,-3.802,-3.7969,-3.7969,-3.7969,-3.7969,-3.7969,-3.7828,-3.7469,-3.7377,-3.7377,-3.7377,-3.7358,-3.7504,-3.7864,-3.7899,-3.7899,-3.7899,-3.7934,-3.7969,-3.7969,-3.802,-3.8054,-3.8054,-3.8104,-3.8249,-3.8449,-3.8449,-3.8633,-3.5535,-3.5041,-3.4994,-3.4899,-3.4691,-3.4399,-3.4151,-3.3626,-3.298,-3.212,-3.1697,-3.1482,-3.1482,-3.1482,-3.1106,-2.9804,0.0,0.0,0.0,0.0,0.0,0.0,0.0,0.0,0.0,0.0,0.0,0.0,0.0,0.0,0.0,-2.4948,-2.5061,-2.5257,-2.5605,-2.5974,-2.6404,-2.6864,-2.7393,-2.7925,-2.8186,-2.8299,-2.8299,-2.8348,-2.8411,-2.8396,-2.8653,-2.9249,-3.0057,-3.0254,-3.0629,-3.1069,-3.158,-3.2066,-3.256,-3.3073,-3.4052,-3.5081,-3.5081,-3.5318,-3.5622,-3.5622,-3.5594,-3.5549,-3.5549,-3.5503,-3.5458,-3.5458,-3.5429,-3.5383,-3.5383,-3.5337,-3.5291,-3.5291,-3.5594,-3.5888,-3.5844,-3.6199,-3.6498,-3.644,-3.6746,-3.7079,-3.7303,-3.7685,-3.7863,-3.7577,-3.7775,-3.7899,-3.7899,-3.7721,-3.745,-3.7228,-3.6981,-3.6825,-3.6825,-3.6746,-3.6843,-3.7055,-3.7111,-3.7111,-3.7111,-3.7111,-3.7356,-3.7899,-3.7899,-3.7899,-3.7899,-3.7899,-3.7985,-3.8101,-3.8101,-3.8263,-3.5673,-3.5258,-3.5135,-3.4947,-3.4899,-3.4787,-3.4349,-3.4151,-3.3781,-3.2873,-3.212,-3.164,-3.1524,-3.1435,-3.0971,0.0,0.0,0.0,0.0,0.0,0.0,0.0,0.0,0.0,0.0,0.0,0.0,0.0,0.0,0.0,-2.4408,-2.4452,-2.4637,-2.4878,-2.5314,-2.5646,-2.5948,-2.6654,-2.7188,-2.7625,-2.7989,-2.8186,-2.8186,-2.8299,-2.8314,-2.8314,-2.8314,-2.8605,-2.909,-2.9483,-2.9745,-3.0022,-3.0803,-3.1316,-3.1611,-3.2118,-3.309,-3.4172,-3.4368,-3.4868,-3.5363,-3.5498,-3.552,-3.5446,-3.5446,-3.54,-3.5291,-3.5291,-3.5291,-3.5245,-3.5245,-3.5245,-3.5245,-3.5245,-3.5337,-3.54,-3.5291,-3.5667,-3.5941,-3.5837,-3.613,-3.6551,-3.6981,-3.7376,-3.7504,-3.7114,-3.7431,-3.7703,-3.7613,-3.7339,-3.7097,-3.6943,-3.6545,-3.6256,-3.6256,-3.6147,-3.6105,-3.619,-3.619,-3.619,-3.6147,-3.6147,-3.6603,-3.754,-3.7649,-3.7775,-3.7864,-3.7864,-3.7828,-3.7793,-3.7739,-3.7862,-3.6173,-3.582,-3.5407,-3.5024,-3.4899,-3.4899,-3.4804,-3.4349,-3.3899,-3.3729,-3.2926,-3.212,-3.1582,-3.1046,-3.0417,0.0,0.0,0.0,0.0,0.0,0.0,0.0,0.0,0.0,0.0,0.0,0.0,0.0,0.0,0.0,-2.4171,-2.4363,-2.4509,-2.458,-2.4878,-2.5439,-2.6244,-2.6457,-2.6982,-2.779,-2.7955,-2.8005,-2.8005,-2.8069,-2.8054,-2.8054,-2.8054,-2.8381,-2.8951,-2.8997,-2.9091,-2.9216,-2.9262,-2.9674,-3.0323,-3.0667,-3.1596,-3.285,-3.389,-3.4281,-3.4466,-3.5119,-3.5337,-3.5354,-3.5354,-3.5291,-3.5291,-3.5291,-3.5198,-3.5152,-3.5152,-3.5041,-3.4947,-3.4947,-3.5058,-3.5198,-3.5291,-3.5337,-3.5412,-3.5367,-3.5705,-3.6088,-3.6464,-3.6545,-3.6545,-3.634,-3.6724,-3.69,-3.6481,-3.6724,-3.6643,-3.5907,-3.5732,-3.5705,-3.5705,-3.5705,-3.5793,-3.6097,-3.6097,-3.6037,-3.5933,-3.5933,-3.602,-3.6147,-3.6741,-3.7226,-3.7631,-3.7631,-3.7558,-3.7372,-3.7129,-3.7167,-3.6337,-3.5907,-3.5526,-3.5316,-3.5102,-3.4899,-3.4899,-3.4594,-3.425,-3.3949,-3.3245,-3.2437,-3.1838,-3.0956,-3.0075,0.0,0.0,0.0,0.0,0.0,0.0,0.0,0.0,0.0,0.0,0.0,0.0,0.0,0.0,-2.4112,-2.4112,-2.4216,-2.4261,-2.4261,-2.4447,-2.4991,-2.6014,-2.6068,-2.6654,-2.779,-2.7855,-2.7905,-2.7905,-2.779,-2.7855,-2.802,-2.802,-2.8137,-2.8414,-2.8669,-2.8669,-2.8494,-2.8716,-2.8983,-2.9281,-2.9454,-3.044,-3.1851,-3.2788,-3.3363,-3.3826,-3.457,-3.4545,-3.4284,-3.461,-3.4675,-3.4691,-3.4994,-3.5041,-3.4994,-3.4994,-3.4899,-3.4804,-3.4804,-3.4804,-3.4804,-3.4851,-3.5041,-3.5152,-3.5088,-3.5407,-3.5705,-3.5599,-3.5977,-3.6172,-3.5907,-3.6232,-3.644,-3.6232,-3.619,-3.5994,-3.5526,-3.527,-3.5055,-3.4991,-3.4991,-3.5038,-3.5207,-3.5207,-3.5161,-3.5115,-3.5115,-3.5237,-3.5493,-3.6062,-3.644,-3.6661,-3.6838,-3.6799,-3.6516,-3.658,-3.658,-3.6412,-3.5977,-3.5749,-3.5616,-3.5241,-3.4899,-3.4851,-3.4756,-3.4546,-3.4101,-3.3439,-3.2734,-3.216,-3.0956,0.0,0.0,0.0,0.0,0.0,0.0,0.0,0.0,0.0,0.0,0.0,0.0,0.0,0.0,0.0,-2.4112,-2.4112,-2.4112,-2.4112,-2.4112,-2.4112,-2.4664,-2.5783,-2.6108,-2.6759,-2.774,-2.774,-2.774,-2.774,-2.7625,-2.7725,-2.7905,-2.7905,-2.7905,-2.7955,-2.835,-2.8301,-2.8005,-2.8334,-2.8463,-2.8463,-2.8543,-2.9405,-3.0606,-3.1651,-3.2317,-3.287,-3.3778,-3.3767,-3.3443,-3.3802,-3.4002,-3.4151,-3.4546,-3.4691,-3.4804,-3.4804,-3.4739,-3.4643,-3.4643,-3.4546,-3.4497,-3.4546,-3.4804,-3.4994,-3.4899,-3.5195,-3.5316,-3.4947,-3.5391,-3.5715,-3.5391,-3.5671,-3.5916,-3.5786,-3.5599,-3.5419,-3.5207,-3.4866,-3.4594,-3.4497,-3.4497,-3.4497,-3.4448,-3.4448,-3.4448,-3.4399,-3.4399,-3.4561,-3.4911,-3.5266,-3.5582,-3.5907,-3.6165,-3.6105,-3.5803,-3.5977,-3.5977,-3.644,-3.6172,-3.6062,-3.5705,-3.5241,-3.4851,-3.4739,-3.4594,-3.4448,-3.43,-3.3697,-3.2986,-3.2492,-3.114,0.0,0.0,0.0,0.0,0.0,0.0,0.0,0.0,0.0,0.0,0.0,0.0,0.0,0.0,0.0,-2.4112,-2.4112,-2.4112,-2.4112,-2.4112,-2.4112,-2.4664,-2.5783,-2.6916,-2.756,-2.7625,-2.7625,-2.7625,-2.7625,-2.7625,-2.7625,-2.7625,-2.7625,-2.7675,-2.779,-2.784,-2.7905,-2.8005,-2.789,-2.784,-2.7875,-2.8207,-2.8367,-2.8713,-3.0525,-3.1177,-3.1431,-3.2792,-3.3235,-3.3251,-3.3235,-3.3543,-3.3899,-3.3949,-3.425,-3.4497,-3.4497,-3.4497,-3.4497,-3.4497,-3.4497,-3.4546,-3.4643,-3.4707,-3.4756,-3.4899,-3.4947,-3.4899,-3.4739,-3.4739,-3.4739,-3.4594,-3.4975,-3.5098,-3.4626,-3.4975,-3.5052,-3.4594,-3.4546,-3.4497,-3.4497,-3.4497,-3.4448,-3.43,-3.43,-3.425,-3.4151,-3.4101,-3.4151,-3.4151,-3.4184,-3.4785,-3.5907,-3.5907,-3.5803,-3.5504,-3.534,-3.534,-3.7188,-3.686,-3.6522,-3.6037,-3.5571,-3.5085,-3.4691,-3.4448,-3.4349,-3.43,-3.3681,-3.3145,-3.2949,-3.1525,0.0,0.0,0.0,0.0,0.0,0.0,0.0,0.0,0.0,0.0,0.0,0.0,0.0,0.0,0.0,0.0,-2.3949,-2.3949,-2.4008,-2.4112,-2.4112,-2.4505,-2.5272,-2.6457,-2.7049,-2.7049,-2.7408,-2.7625,-2.7625,-2.7625,-2.7625,-2.7625,-2.7625,-2.7625,-2.7675,-2.7675,-2.7675,-2.774,-2.7675,-2.7675,-2.7675,-2.781,-2.8027,-2.8488,-3.001,-3.049,-3.067,-3.1944,-3.2114,-3.1921,-3.2281,-3.2485,-3.2664,-3.3024,-3.3235,-3.3443,-3.3818,-3.3885,-3.3783,-3.3681,-3.3387,-3.3177,-3.3287,-3.3649,-3.4036,-3.4086,-3.4366,-3.4643,-3.4594,-3.4546,-3.4546,-3.4497,-3.4626,-3.4675,-3.4546,-3.4626,-3.4658,-3.4399,-3.4349,-3.4349,-3.425,-3.425,-3.4201,-3.4151,-3.4151,-3.4151,-3.4101,-3.4101,-3.4101,-3.4101,-3.4101,-3.4317,-3.4738,-3.5021,-3.4927,-3.4625,-3.4802,-3.4802,-3.7649,-3.7264,-3.6781,-3.6249,-3.5776,-3.5237,-3.4626,-3.4399,-3.43,-3.425,-3.3866,-3.3423,-3.3251,-3.2222,0.0,0.0,0.0,0.0,0.0,0.0,0.0,0.0,0.0,0.0,0.0,0.0,0.0,0.0,0.0,0.0,-2.376,-2.3819,-2.3819,-2.3936,-2.4157,-2.4492,-2.4878,-2.592,-2.651,-2.6721,-2.71,-2.7408,-2.7625,-2.7524,-2.7524,-2.7524,-2.7473,-2.7524,-2.7625,-2.7625,-2.7625,-2.7625,-2.7625,-2.7575,-2.7524,-2.7524,-2.771,-2.8111,-2.9357,-2.9788,-2.9961,-3.1216,-3.1379,-3.119,-3.1537,-3.1736,-3.189,-3.225,-3.2485,-3.2703,-3.3077,-3.3145,-3.3039,-3.2933,-3.2516,-3.2104,-3.217,-3.2741,-3.3323,-3.3531,-3.3919,-3.4267,-3.4399,-3.4448,-3.4399,-3.4349,-3.4349,-3.4349,-3.4349,-3.4349,-3.4349,-3.425,-3.425,-3.4084,-3.3815,-3.3984,-3.3984,-3.3815,-3.3984,-3.405,-3.3949,-3.3949,-3.3899,-3.3848,-3.3678,-3.361,-3.361,-3.4184,-3.4349,-3.4101,-3.4349,-3.4349,0.0,0.0,0.0,-3.6316,-3.5803,-3.5253,-3.4626,-3.4399,-3.425,-3.4151,-3.4101,-3.3933,-3.3303,-3.3251,0.0,0.0,0.0,0.0,0.0,0.0,0.0,0.0,0.0,0.0,0.0,0.0,0.0,0.0,0.0,-2.3569,-2.3569,-2.3628,-2.3628,-2.3628,-2.4292,-2.4681,-2.4681,-2.5398,-2.6068,-2.6669,-2.6683,-2.7049,-2.7575,-2.7437,-2.7401,-2.7401,-2.7284,-2.7335,-2.7575,-2.7575,-2.7575,-2.7575,-2.7575,-2.7539,-2.7401,-2.7401,-2.7284,-2.7358,-2.8655,-2.9098,-2.9319,-3.0645,-3.1087,-3.1087,-3.1087,-3.1336,-3.1679,-3.1679,-3.1992,-3.2342,-3.2398,-3.2382,-3.2382,-3.2382,-3.1879,-3.148,-3.148,-3.2003,-3.2633,-3.3375,-3.3598,-3.3716,-3.4184,-3.425,-3.425,-3.4101,-3.4101,-3.4101,-3.4101,-3.4101,-3.4101,-3.4101,-3.4101,-3.3815,-3.3251,-3.3697,-3.3764,-3.3182,-3.3697,-3.3899,-3.3642,-3.3642,-3.3539,-3.324,-3.2834,-3.2586,-3.2586,-3.3559,-3.405,-3.405,-3.405,-3.405,-3.7739,0.0,0.0,0.0,0.0,0.0,-3.4578,-3.4349,-3.425,-3.4151,-3.4101,-3.405,-3.3866,-3.3866,-3.3374,0.0,0.0,0.0,0.0,0.0,0.0,0.0,0.0,0.0,0.0,0.0,0.0,0.0,-2.3603,-2.3318,-2.3463,-2.3569,-2.3628,-2.3628,-2.3793,-2.3897,-2.3897,-2.4951,-2.5563,-2.5783,-2.6616,-2.7167,-2.7321,-2.7284,-2.7284,-2.7233,-2.7233,-2.7233,-2.7321,-2.7321,-2.7321,-2.7321,-2.7321,-2.7284,-2.7284,-2.7284,-2.7233,-2.7358,-2.8561,-2.8961,-2.9166,-3.0338,-3.0762,-3.0762,-3.0762,-3.0807,-3.0911,-3.0911,-3.097,-3.1204,-3.1652,-3.1766,-3.1766,-3.1766,-3.1321,-3.0866,-3.0866,-3.1014,-3.1349,-3.1962,-3.2756,-3.3251,-3.2964,-3.3282,-3.3475,-3.3475,-3.3475,-3.3594,-3.4034,-3.4101,-3.4101,-3.4101,-3.3594,-3.3214,-3.3093,-3.2718,-3.2431,-3.2266,-3.2431,-3.2501,-3.2391,-3.2391,-3.2336,-3.2296,-3.217,-3.2114,-3.2114,-3.2391,-3.2501,-3.2501,-3.2857,-3.3208,-3.7828,-3.7757,-3.745,-3.6399,0.0,0.0,-3.4723,-3.4399,-3.43,0.0,-3.4151,-3.4101,-3.4101,-3.4101,-3.3804,0.0,0.0,0.0,0.0,0.0,0.0,0.0,0.0,0.0,0.0,0.0,0.0,-2.4509,-2.359,-2.3138,-2.3271,-2.333,-2.3378,-2.3378,-2.345,-2.3509,-2.3509,-2.4509,-2.5119,-2.5398,-2.6336,-2.6959,-2.7181,-2.713,-2.7144,-2.7093,-2.7078,-2.7026,-2.7026,-2.7026,-2.7078,-2.7181,-2.7181,-2.7181,-2.7144,-2.7144,-2.7254,-2.7515,-2.8499,-2.8968,-2.9361,-3.0308,-3.0568,-3.0568,-3.0568,-3.0568,-3.0568,-3.0568,-3.0568,-3.0687,-3.1029,-3.1073,-3.1014,-3.1014,-3.0687,-3.0401,-3.0401,-3.0401,-3.0628,-3.1379,-3.2018,-3.2446,-3.2296,-3.254,-3.2741,-3.2648,-3.2648,-3.2756,-3.3161,-3.3161,-3.3161,-3.3161,-3.2826,-3.2431,-3.221,-3.1987,-3.1762,-3.1549,-3.1777,-3.1834,-3.1705,-3.1705,-3.1664,-3.1507,-3.1334,-3.116,-3.0911,-3.1607,-3.189,-3.189,-3.2351,-3.2765,-3.7916,-3.781,-3.7504,-3.6563,-3.6207,0.0,-3.4961,-3.4546,-3.43,0.0,-3.4201,-3.4101,-3.4101,-3.4101,-3.3917,0.0,0.0,0.0,0.0,0.0,0.0,0.0,0.0,0.0,0.0,-2.5701,-2.5063,-2.4894,-2.3767,-2.3078,-2.3078,-2.3078,-2.3078,-2.3078,-2.3271,-2.3403,-2.3403,-2.4176,-2.4851,-2.5342,-2.6014,-2.663,-2.713,-2.7041,-2.7003,-2.6951,-2.6846,-2.6779,-2.6779,-2.6779,-2.6937,-2.7181,-2.7181,-2.7093,-2.7003,-2.7003,-2.7292,-2.7824,-2.8463,-2.9102,-2.9726,-3.0364,-3.0568,-3.0568,-3.0568,-3.0568,-3.0568,-3.0582,-3.0522,-3.0522,-3.0522,-3.0387,-3.0266,-3.0266,-3.0158,-3.0111,-3.0111,-3.0111,-3.0341,-3.1204,-3.1422,-3.1522,-3.1819,-3.1916,-3.1931,-3.1834,-3.1834,-3.1819,-3.189,-3.189,-3.189,-3.189,-3.1819,-3.1534,-3.1028,-3.1377,-3.1435,-3.0866,-3.1377,-3.1477,-3.1203,-3.1203,-3.1102,-3.0851,-3.0433,-3.0021,-2.9602,-3.097,-3.1664,-3.1721,-3.213,-3.2367,-3.8002,-3.7898,-3.7703,-3.7091,-3.6539,0.0,-3.5283,-3.4754,-3.4399,0.0,-3.4101,-3.4101,-3.4101,-3.4101,-3.405,0.0,0.0,0.0,0.0,0.0,0.0,0.0,0.0,0.0,0.0,-2.5839,-2.5314,-2.435,-2.3543,-2.3078,-2.3078,-2.3078,-2.3078,-2.3078,-2.3138,-2.3138,-2.3138,-2.4337,-2.4951,-2.5063,-2.6204,-2.6779,-2.6884,-2.6832,-2.6846,-2.6846,-2.6779,-2.6779,-2.6779,-2.6779,-2.6832,-2.6884,-2.6884,-2.6832,-2.6846,-2.6846,-2.7186,-2.7824,-2.8463,-2.9102,-2.9726,-3.0364,-3.0568,-3.0568,-3.0568,-3.0507,-3.0326,-3.0233,-3.0172,-3.0172,-3.0172,-3.0172,-3.0172,-3.0172,-3.0111,-3.0111,-3.0111,-3.0111,-3.0172,-3.0341,-3.0777,-3.0999,-3.0553,-3.0881,-3.1203,-3.1203,-3.1145,-3.1377,-3.1834,-3.189,-3.189,-3.189,-3.1304,-3.0896,-3.0778,-3.0343,-3.0007,-2.9898,-3.0007,-3.0007,-2.9946,-2.9946,-2.996,-2.9837,-2.9789,-2.9665,-2.9602,-2.9884,-3.0237,-3.0598,-3.0718,-3.0955,-3.8036,-3.7967,-3.7828,-3.7261,-3.6878,0.0,0.0,-3.5328,-3.488,-3.4785,-3.448,-3.4201,-3.4201,-3.4151,-3.4101,-3.4101,0.0,0.0,0.0,0.0,0.0,0.0,0.0,0.0,0.0,-2.6056,-2.555,-2.4624,-2.3943,-2.3603,-2.3603,-2.3245,-2.3078,-2.3078,-2.3078,-2.3078,-2.3078,-2.406,-2.4681,-2.5007,-2.5934,-2.634,-2.634,-2.6674,-2.6621,-2.6394,-2.6674,-2.6712,-2.6645,-2.6645,-2.6606,-2.6568,-2.6727,-2.6712,-2.6645,-2.6645,-2.7267,-2.8134,-2.8508,-2.9175,-3.0013,-3.0346,-3.0401,-3.0341,-3.0341,-3.028,-3.0158,-3.0111,-3.0111,-3.0111,-3.0111,-3.0036,-2.996,-2.996,-2.9913,-2.9865,-2.9865,-2.9865,-2.9865,-2.9865,-3.0068,-3.0237,-3.0021,-3.0176,-3.0404,-3.0283,-3.0297,-3.0404,-3.0689,-3.0748,-3.0748,-3.0748,-3.0404,-3.0162,-3.0162,-2.9837,-2.9602,-2.9602,-2.9602,-2.9602,-2.9602,-2.9415,-2.9289,-2.9099,-2.8817,-2.8675,-2.8675,-2.8376,-2.8839,-2.996,-3.019,-3.0312,-3.807,-3.8018,-3.788,-3.7374,-3.7185,-3.6974,0.0,0.0,0.0,-3.5374,0.0,0.0,-3.4349,0.0,0.0,0.0,0.0,0.0,0.0,0.0,0.0,0.0,0.0,0.0,0.0,-2.6233,-2.5715,-2.5189,-2.4624,-2.4234,-2.4131,-2.3603,-2.3245,-2.3078,-2.3078,-2.3078,-2.3078,-2.3767,-2.435,-2.4851,-2.5425,-2.5715,-2.577,-2.634,-2.6272,-2.5701,-2.6433,-2.6592,-2.6283,-2.6404,-2.6418,-2.634,-2.6621,-2.6592,-2.6486,-2.6601,-2.7432,-2.8454,-2.8584,-2.9317,-3.0266,-3.0266,-3.0158,-3.0111,-3.0036,-3.0036,-3.005,-2.9988,-2.9988,-2.9988,-2.9988,-2.9898,-2.9761,-2.9761,-2.9651,-2.9602,-2.9602,-2.9602,-2.9602,-2.9602,-2.9602,-2.9665,-2.9761,-2.9761,-2.9699,-2.9602,-2.9602,-2.9602,-2.9602,-2.9602,-2.9602,-2.9602,-2.954,-2.9477,-2.9477,-2.9415,-2.9415,-2.9415,-2.9415,-2.9352,-2.9275,-2.8881,-2.8546,-2.83,-2.7802,-2.7524,-2.7524,-2.7098,-2.763,-2.9058,-2.9484,-2.9532,-3.8174,-3.8088,0.0,0.0,-3.7466,-3.7013,0.0,0.0,-3.5374,-3.5237,0.0,0.0,-3.4497,0.0,0.0,0.0,0.0,0.0,0.0,0.0,0.0,0.0,0.0,0.0,0.0,0.0,-2.5893,-2.5784,-2.5245,-2.4681,-2.4118,-2.4002,-2.3721,-2.3138,-2.3078,-2.3078,-2.3078,-2.3767,-2.4118,-2.4234,-2.4794,-2.5077,-2.5133,-2.5715,-2.5591,-2.4924,-2.6054,-2.6122,-2.5577,-2.6096,-2.6326,-2.6286,-2.634,-2.634,-2.6397,-2.7009,-2.7653,-2.834,-2.884,-2.9497,-3.0111,-3.0111,-3.0111,-3.005,-2.9884,-2.9822,-2.9822,-2.9665,-2.9665,-2.9665,-2.9665,-2.9665,-2.9602,-2.9602,-2.9602,-2.9602,-2.9602,-2.9602,-2.9602,-2.9602,-2.9602,-2.9602,-2.9602,-2.9602,-2.9602,-2.9602,-2.9602,-2.9602,-2.9602,-2.9602,-2.9602,-2.9602,-2.9352,-2.9162,-2.9162,-2.8908,-2.8716,-2.8716,-2.8716,-2.8495,-2.7934,-2.7445,-2.7152,-2.7085,-2.7018,-2.7018,-2.7018,-2.695,-2.7018,-2.7219,-2.7272,-2.7272,-3.8192,0.0,0.0,0.0,0.0,0.0,-3.7321,0.0,-3.6357,0.0,0.0,0.0,0.0,0.0,0.0,0.0,-3.4105,0.0,0.0,0.0,0.0,0.0,0.0,0.0,0.0,0.0,0.0,0.0,0.0,-2.5425,-2.5147,-2.4465,-2.3956,-2.3721,-2.3305,-2.3078,-2.3078,-2.3365,-2.3721,-2.4131,-2.435,-2.4394,-2.4323,-2.4937,-2.4768,-2.4137,-2.5329,-2.5618,-2.5287,-2.5577,-2.5825,-2.6002,-2.5674,-2.5784,-2.625,-2.686,-2.7541,-2.8167,-2.8793,-2.9434,-2.9898,-2.9851,-2.9803,-2.9789,-2.9713,-2.9373,-2.9093,-2.9526,-2.9261,-2.9044,-2.9477,-2.9602,-2.954,-2.9352,-2.9289,-2.9289,-2.9035,-2.9035,-2.9035,-2.9035,-2.9035,-2.9035,-2.9035,-2.9162,-2.9149,-2.861,-2.8468,-2.8403,-2.8103,-2.8325,-2.8468,-2.8468,-2.8688,-2.878,-2.878,-2.8651,-2.8444,-2.8091,-2.7802,-2.7391,-2.6976,-2.6705,-2.6501,-2.6308,-2.5951,-2.5812,-2.5812,-2.5475,-2.5334,-2.5334,-2.6408,-2.6815,-3.8192,0.0,0.0,0.0,0.0,0.0,0.0,0.0,0.0,0.0,0.0,0.0,0.0,0.0,-3.4657,-3.4331,0.0,-3.4219,0.0,-3.2764,0.0,0.0,0.0,0.0,0.0,0.0,0.0,0.0,-2.6394,-2.6056,-2.5893,-2.4921,-2.4292,-2.4131,-2.3424,-2.3078,-2.3078,-2.3078,-2.3305,-2.378,-2.3721,-2.3662,-2.3518,-2.4137,-2.4021,-2.3352,-2.4553,-2.4951,-2.4654,-2.4824,-2.5063,-2.537,-2.5118,-2.5342,-2.5923,-2.6849,-2.7541,-2.8036,-2.8828,-2.9393,-2.9699,-2.9665,-2.9463,-2.9324,-2.9324,-2.8776,-2.8247,-2.8789,-2.8648,-2.8376,-2.8931,-2.9212,-2.9289,-2.9035,-2.883,-2.8624,-2.8444,-2.8235,-2.8157,-2.8157,-2.8157,-2.8091,-2.8026,-2.8509,-2.8702,-2.7802,-2.767,-2.7524,-2.695,-2.7232,-2.7445,-2.7445,-2.7815,-2.8026,-2.8026,-2.7908,-2.7696,-2.7204,-2.6693,-2.6283,-2.6032,-2.5894,-2.5697,-2.5441,-2.5016,-2.4802,-2.4802,-2.4394,-2.4127,-2.3897,-2.5463,-2.602,0.0,0.0,0.0,-3.8036,0.0,0.0,0.0,0.0,-3.719,0.0,0.0,0.0,-3.5786,-3.5509,-3.4973,-3.3829,-3.4134,0.0,0.0,0.0,0.0,0.0,0.0,0.0,0.0,0.0,0.0,-2.6779,-2.6779,-2.65,-2.5948,-2.5314,-2.4681,-2.4118,-2.3424,-2.3078,-2.3078,-2.2969,-2.2909,-2.2909,-2.28,-2.2739,-2.2739,-2.3352,-2.3173,-2.2531,-2.3767,-2.3872,-2.3207,-2.3787,-2.4021,-2.4137,-2.4765,-2.5005,-2.5268,-2.7111,-2.7762,-2.8003,-2.9167,-2.9588,-2.9602,-2.9602,-2.9121,-2.8556,-2.8556,-2.7907,-2.7245,-2.7245,-2.7524,-2.7736,-2.7736,-2.8157,-2.8651,-2.8587,-2.8157,-2.7736,-2.7736,-2.7311,-2.695,-2.695,-2.695,-2.6815,-2.6501,-2.7683,-2.8379,-2.7802,-2.767,-2.7524,-2.695,-2.695,-2.695,-2.695,-2.6625,-2.6433,-2.6433,-2.6183,-2.6,-2.5931,-2.5358,-2.5075,-2.5075,-2.4539,-2.4261,-2.4261,-2.4273,-2.42,-2.42,-2.42,-2.3824,-2.3075,-2.3897,-2.4261,0.0,0.0,-3.8192,-3.8122,0.0,0.0,0.0,0.0,0.0,0.0,0.0,0.0,0.0,-3.5705,-3.5081,-3.4662,-3.4622,-3.4496,0.0,-3.257,0.0,0.0,0.0,0.0,0.0,0.0,0.0,-2.6779,-2.6779,-2.6553,0.0,-2.5314,-2.4738,-2.4118,-2.3365,-2.2969,-2.2969,-2.286,-2.28,-2.28,-2.2739,-2.2616,-2.2494,-2.2714,-2.2592,-2.2309,-2.316,-2.3327,-2.3148,-2.3314,-2.361,-2.4021,-2.4266,-2.4637,-2.51,-2.6178,-2.6785,-2.7262,-2.8428,-2.8597,-2.8274,-2.8712,-2.8298,-2.763,-2.763,-2.6963,-2.6364,-2.6896,-2.6761,-2.6569,-2.7031,-2.7311,-2.7391,-2.7204,-2.6989,-2.6786,-2.6526,-2.6389,-2.6239,-2.6239,-2.6239,-2.6183,-2.6114,-2.6471,-2.6607,-2.6032,-2.5894,-2.5685,-2.5205,-2.5405,-2.5615,-2.5615,-2.5906,-2.6057,-2.6057,-2.5569,-2.5288,-2.5288,-2.4814,-2.4467,-2.4467,-2.3813,-2.3677,-2.42,-2.3677,-2.3372,-2.3372,-2.3372,-2.299,-2.222,-2.2446,-2.2905,-3.8192,-3.8192,0.0,-3.8192,-3.8192,0.0,-3.8088,0.0,0.0,0.0,0.0,0.0,0.0,-3.5907,-3.5515,-3.5071,-3.4947,-3.464,0.0,-3.209,0.0,0.0,0.0,-2.6779,0.0,-2.6779,-2.6779,-2.6779,-2.6779,-2.6553,0.0,0.0,-2.4681,-2.3989,-2.3245,-2.2848,-2.286,-2.2678,-2.2616,-2.2616,-2.2555,-2.2432,-2.2297,-2.2297,-2.2309,-2.2185,-2.258,-2.275,-2.275,-2.275,-2.2992,-2.3399,-2.3623,-2.3917,-2.4474,-2.5499,-2.6242,-2.6845,-2.7782,-2.7855,-2.7537,-2.7986,-2.7511,-2.6786,-2.6786,-2.6102,-2.538,-2.5704,-2.5664,-2.5566,-2.5921,-2.6282,-2.6501,-2.6239,-2.6032,-2.5824,-2.5639,-2.5441,-2.5312,-2.5312,-2.5312,-2.5312,-2.5312,-2.5312,-2.5229,-2.5016,-2.5004,-2.4802,-2.4261,-2.4467,-2.4743,-2.4743,-2.5087,-2.5312,-2.5312,-2.4957,-2.4743,-2.4743,-2.4105,-2.374,-2.374,-2.299,-2.2841,-2.3361,-2.283,-2.2531,-2.2531,-2.2531,-2.2145,-2.1375,-2.1527,-2.1756]},{"header":{"parameterUnit":"m.s-1","parameterCategory":1,"la1":30.6,"la2":29.2853,"lo1":-89.7004,"lo2":-87.6739,"dy":0.0162,"dx":0.0183,"nx":112,"ny":82,"refTime":"2023-05-31T06:00:00:Z","depth":0,"parameterNumber":3,"parameterNumberName":"V-component_of_WINDS"},"data":[0.0,0.0,0.0,0.0,0.0,0.0,0.0,0.0,0.0,0.0,0.0,0.0,0.0,0.0,0.0,0.0,0.0,0.0,0.0,0.0,0.0,0.0,0.0,0.0,0.0,0.0,0.0,0.0,0.0,0.0,0.0,0.0,0.0,0.0,0.0,0.0,0.0,0.0,0.0,0.0,0.0,0.0,0.0,0.0,0.0,0.0,0.0,0.0,0.0,0.0,0.0,0.0,0.0,0.0,0.0,0.0,0.0,0.0,0.0,0.0,0.0,0.0,0.0,0.0,0.0,0.0,0.0,0.0,0.0,0.0,0.0,0.0,0.0,0.0,0.0,0.0,0.0,0.0,0.0,0.0,0.0,0.0,0.0,0.0,0.0,0.0,0.0,0.0,0.0,0.0,-0.5817,-0.6507,-0.5849,-0.5473,-0.5628,-0.5625,-0.5944,-0.6581,0.0,0.0,0.0,0.0,0.0,0.0,0.0,0.0,0.0,0.0,0.0,0.0,0.0,0.0,0.0,0.0,0.0,0.0,0.0,0.0,0.0,0.0,0.0,0.0,0.0,0.0,0.0,0.0,0.0,0.0,0.0,0.0,0.0,0.0,0.0,0.0,0.0,0.0,0.0,0.0,0.0,0.0,0.0,0.0,0.0,0.0,0.0,0.0,0.0,0.0,0.0,0.0,0.0,0.0,0.0,0.0,0.0,0.0,0.0,0.0,0.0,0.0,0.0,0.0,0.0,0.0,0.0,0.0,0.0,0.0,0.0,0.0,0.0,0.0,0.0,0.0,0.0,0.0,0.0,0.0,0.0,0.0,0.0,0.0,0.0,0.0,0.0,0.0,0.0,0.0,0.0,0.0,0.0,0.0,0.0,0.0,0.0,0.0,0.0,0.0,0.0,0.0,0.0,0.0,-0.7126,-0.6366,-0.6177,-0.6395,-0.708,-0.7157,-0.7606,-0.8631,0.0,0.0,0.0,0.0,0.0,0.0,0.0,0.0,0.0,0.0,0.0,0.0,0.0,0.0,0.0,0.0,0.0,0.0,0.0,0.0,0.0,0.0,0.0,0.0,0.0,0.0,0.0,0.0,0.0,0.0,0.0,0.0,0.0,0.0,0.0,0.0,0.0,0.0,0.0,0.0,0.0,0.0,0.0,0.0,0.0,0.0,0.0,0.0,0.0,0.0,0.0,0.0,0.0,0.0,0.0,0.0,0.0,0.0,0.0,0.0,0.0,0.0,0.0,0.0,0.0,0.0,0.0,0.0,0.0,0.0,0.0,0.0,0.0,0.0,0.0,0.0,0.0,0.0,0.0,0.0,0.0,0.0,0.0,0.0,0.0,0.0,0.0,0.0,0.0,0.0,0.0,0.0,0.0,0.0,0.0,0.0,0.0,0.0,0.0,0.0,0.0,0.0,0.0,-0.7403,-0.7095,-0.5712,-0.6395,-0.685,-0.6777,-0.7234,-0.7927,-0.8992,-0.8286,0.0,0.0,0.0,0.0,0.0,0.0,0.0,0.0,0.0,0.0,0.0,0.0,0.0,0.0,0.0,0.0,0.0,0.0,0.0,0.0,0.0,0.0,0.0,0.0,0.0,0.0,0.0,0.0,0.0,0.0,0.0,0.0,0.0,0.0,0.0,0.0,0.0,0.0,0.0,0.0,0.0,0.0,0.0,0.0,0.0,0.0,0.0,0.0,0.0,0.0,0.0,0.0,0.0,0.0,0.0,0.0,0.0,0.0,0.0,0.0,0.0,0.0,0.0,0.0,0.0,0.0,0.0,0.0,0.0,0.0,0.0,0.0,0.0,0.0,0.0,0.0,0.0,0.0,0.0,0.0,0.0,0.0,0.0,0.0,0.0,0.0,0.0,0.0,0.0,0.0,0.0,0.0,0.0,0.0,0.0,0.0,0.0,0.0,0.0,0.0,0.0,0.0,-0.6623,-0.6472,-0.5401,-0.6623,-0.731,-0.6853,-0.754,-0.849,-0.9384,-0.9434,0.0,0.0,0.0,0.0,0.0,0.0,0.0,0.0,0.0,0.0,0.0,0.0,0.0,0.0,0.0,0.0,0.0,0.0,0.0,0.0,0.0,0.0,0.0,0.0,0.0,0.0,0.0,0.0,0.0,0.0,0.0,0.0,0.0,0.0,0.0,0.0,0.0,0.0,0.0,0.0,0.0,0.0,0.0,0.0,0.0,0.0,0.0,0.0,0.0,0.0,0.0,0.0,0.0,0.0,0.0,0.0,0.0,0.0,0.0,0.0,0.0,0.0,0.0,0.0,0.0,0.0,0.0,0.0,0.0,0.0,0.0,0.0,0.0,0.0,0.0,0.0,0.0,0.0,0.0,0.0,0.0,0.0,0.0,0.0,0.0,0.0,0.0,0.0,0.0,0.0,0.0,0.0,0.0,0.0,0.0,0.0,0.0,0.0,0.0,0.0,0.0,0.0,-0.5631,-0.5401,-0.6012,-0.693,-0.7774,-0.847,-0.9231,-0.9962,-1.0498,-1.0333,0.0,0.0,0.0,0.0,0.0,0.0,0.0,0.0,0.0,0.0,0.0,0.0,0.0,0.0,0.0,0.0,0.0,0.0,0.0,0.0,0.0,0.0,0.0,0.0,0.0,0.0,0.0,0.0,0.0,0.0,0.0,0.0,0.0,0.0,0.0,0.0,0.0,0.0,0.0,0.0,0.0,0.0,0.0,0.0,0.0,0.0,0.0,0.0,0.0,0.0,0.0,0.0,0.0,0.0,0.0,0.0,0.0,0.0,0.0,0.0,0.0,0.0,0.0,0.0,0.0,0.0,0.0,0.0,0.0,0.0,0.0,0.0,0.0,0.0,0.0,0.0,0.0,0.0,0.0,0.0,0.0,0.0,0.0,0.0,0.0,0.0,0.0,0.0,0.0,0.0,0.0,0.0,0.0,0.0,0.0,0.0,0.0,0.0,0.0,0.0,0.0,0.0,-0.7088,-0.67,-0.7003,-0.7774,-0.8389,-0.8699,-0.9463,-1.0126,-1.0606,0.0,0.0,0.0,0.0,0.0,0.0,0.0,0.0,0.0,0.0,0.0,0.0,0.0,0.0,0.0,0.0,0.0,0.0,0.0,0.0,0.0,0.0,0.0,0.0,0.0,0.0,0.0,0.0,0.0,0.0,0.0,0.0,0.0,0.0,0.0,0.0,0.0,0.0,0.0,0.0,0.0,0.0,0.0,0.0,0.0,0.0,0.0,0.0,0.0,0.0,0.0,0.0,0.0,0.0,0.0,0.0,0.0,0.0,0.0,0.0,0.0,0.0,0.0,0.0,0.0,0.0,0.0,0.0,0.0,0.0,0.0,0.0,0.0,0.0,0.0,0.0,0.0,0.0,0.0,0.0,0.0,0.0,0.0,0.0,0.0,0.0,0.0,0.0,0.0,0.0,0.0,0.0,0.0,0.0,0.0,0.0,0.0,0.0,0.0,0.0,0.0,0.0,-0.7931,-0.7391,-0.708,-0.708,-0.8084,-0.8703,-0.8703,-0.9463,-1.0126,-1.0606,0.0,0.0,0.0,0.0,0.0,0.0,0.0,0.0,0.0,0.0,0.0,0.0,0.0,0.0,0.0,0.0,0.0,0.0,0.0,0.0,0.0,0.0,0.0,0.0,0.0,0.0,0.0,0.0,0.0,0.0,0.0,0.0,0.0,0.0,0.0,0.0,0.0,0.0,0.0,0.0,0.0,0.0,0.0,0.0,0.0,0.0,0.0,0.0,0.0,0.0,0.0,0.0,0.0,0.0,0.0,0.0,0.0,0.0,0.0,0.0,0.0,0.0,0.0,0.0,0.0,0.0,0.0,0.0,0.0,0.0,0.0,0.0,0.0,0.0,0.0,0.0,0.0,0.0,0.0,0.0,0.0,0.0,0.0,0.0,0.0,0.0,0.0,0.0,0.0,0.0,0.0,0.0,0.0,0.0,0.0,0.0,0.0,0.0,0.0,0.0,0.0,0.0,-0.6318,-0.624,-0.624,-0.624,-0.7706,-0.8708,-0.8708,-0.9468,-1.0126,0.0,0.0,0.0,0.0,0.0,0.0,0.0,0.0,0.0,0.0,0.0,0.0,0.0,0.0,0.0,0.0,0.0,0.0,0.0,0.0,0.0,0.0,0.0,0.0,0.0,0.0,0.0,0.0,0.0,0.0,0.0,0.0,0.0,0.0,0.0,0.0,0.0,0.0,0.0,0.0,0.0,0.0,0.0,0.0,0.0,0.0,0.0,0.0,0.0,0.0,0.0,0.0,0.0,0.0,0.0,0.0,0.0,0.0,0.0,0.0,0.0,0.0,0.0,0.0,0.0,0.0,0.0,0.0,0.0,0.0,0.0,0.0,0.0,0.0,0.0,0.0,0.0,0.0,0.0,0.0,0.0,0.0,0.0,0.0,0.0,0.0,0.0,0.0,0.0,0.0,0.0,0.0,0.0,0.0,0.0,0.0,0.0,0.0,0.0,0.0,0.0,0.0,0.0,-0.877,-0.7846,-0.7594,-0.8985,-0.8999,-0.9291,-1.001,-1.0121,-1.0385,-1.0848,0.0,0.0,0.0,0.0,0.0,0.0,0.0,0.0,0.0,0.0,0.0,0.0,0.0,0.0,0.0,0.0,0.0,0.0,0.0,0.0,0.0,0.0,0.0,0.0,0.0,0.0,0.0,0.0,0.0,0.0,0.0,0.0,0.0,0.0,0.0,0.0,0.0,0.0,0.0,0.0,0.0,0.0,0.0,0.0,0.0,0.0,0.0,0.0,0.0,0.0,0.0,0.0,0.0,0.0,0.0,0.0,0.0,0.0,0.0,0.0,0.0,0.0,0.0,0.0,0.0,0.0,0.0,0.0,0.0,0.0,0.0,0.0,0.0,0.0,0.0,0.0,0.0,0.0,0.0,0.0,0.0,0.0,0.0,0.0,0.0,0.0,0.0,0.0,0.0,0.0,0.0,0.0,0.0,0.0,0.0,0.0,0.0,0.0,0.0,0.0,0.0,0.0,-0.9504,-0.8735,-0.8554,-0.9713,-0.9726,-0.9912,-1.0541,-1.0428,-1.0449,-1.0821,0.0,0.0,0.0,0.0,0.0,0.0,0.0,0.0,0.0,0.0,0.0,0.0,0.0,0.0,0.0,0.0,0.0,0.0,0.0,0.0,0.0,0.0,0.0,0.0,0.0,0.0,0.0,0.0,0.0,0.0,0.0,0.0,0.0,0.0,0.0,0.0,0.0,0.0,0.0,0.0,0.0,0.0,0.0,0.0,0.0,0.0,0.0,0.0,0.0,0.0,0.0,0.0,0.0,0.0,0.0,0.0,0.0,0.0,0.0,0.0,0.0,0.0,0.0,0.0,0.0,0.0,0.0,0.0,0.0,0.0,0.0,0.0,0.0,0.0,0.0,0.0,0.0,0.0,0.0,0.0,0.0,0.0,0.0,0.0,0.0,0.0,0.0,0.0,0.0,0.0,0.0,0.0,0.0,0.0,0.0,0.0,0.0,0.0,0.0,0.0,0.0,0.0,-0.9163,-0.9257,-0.9262,-0.93,-1.0129,-1.0676,-1.0621,-1.0471,-1.0423,-1.0654,0.0,0.0,0.0,0.0,0.0,0.0,0.0,0.0,0.0,0.0,0.0,0.0,0.0,0.0,0.0,0.0,0.0,0.0,0.0,0.0,0.0,0.0,0.0,0.0,0.0,0.0,0.0,0.0,0.0,0.0,0.0,0.0,0.0,0.0,0.0,0.0,0.0,0.0,0.0,0.0,0.0,0.0,0.0,0.0,0.0,0.0,0.0,0.0,0.0,0.0,0.0,0.0,0.0,0.0,0.0,0.0,0.0,0.0,0.0,0.0,-0.6548,0.0,0.0,0.0,0.0,0.0,0.0,0.0,0.0,0.0,0.0,0.0,0.0,0.0,0.0,0.0,0.0,0.0,0.0,0.0,0.0,0.0,0.0,0.0,0.0,0.0,0.0,0.0,0.0,0.0,0.0,0.0,0.0,0.0,0.0,0.0,0.0,0.0,0.0,0.0,0.0,0.0,-1.0258,-1.0158,-1.019,-1.0547,-1.0797,-1.0988,-1.1182,-1.0805,-1.0665,-1.0896,-1.1192,0.0,0.0,0.0,0.0,0.0,0.0,0.0,0.0,0.0,0.0,0.0,0.0,0.0,0.0,0.0,0.0,0.0,0.0,0.0,0.0,0.0,0.0,0.0,0.0,0.0,0.0,0.0,0.0,0.0,0.0,0.0,0.0,0.0,0.0,0.0,0.0,0.0,0.0,0.0,0.0,0.0,0.0,0.0,0.0,0.0,0.0,0.0,0.0,0.0,0.0,0.0,0.0,0.0,0.0,0.0,0.0,0.0,0.0,0.0,0.0,-0.8015,0.0,0.0,0.0,0.0,0.0,0.0,0.0,0.0,0.0,0.0,0.0,0.0,0.0,0.0,0.0,0.0,0.0,0.0,0.0,0.0,0.0,0.0,0.0,0.0,0.0,0.0,0.0,0.0,0.0,0.0,0.0,0.0,0.0,0.0,0.0,0.0,0.0,0.0,0.0,0.0,-1.0746,-1.06,-1.0595,-1.0945,-1.109,-1.1214,-1.1251,-1.0912,-1.0686,-1.081,-1.08,0.0,0.0,0.0,0.0,0.0,0.0,0.0,0.0,0.0,0.0,0.0,0.0,0.0,0.0,0.0,0.0,0.0,0.0,0.0,0.0,0.0,0.0,0.0,0.0,0.0,0.0,0.0,0.0,0.0,0.0,0.0,0.0,0.0,0.0,0.0,0.0,0.0,0.0,0.0,0.0,0.0,0.0,0.0,0.0,0.0,0.0,0.0,0.0,0.0,0.0,0.0,0.0,0.0,-0.233,-0.3045,-0.3848,-0.5442,-0.6593,-0.7401,-0.8208,-0.8028,-0.7224,0.0,0.0,0.0,0.0,0.0,0.0,0.0,0.0,0.0,0.0,0.0,0.0,0.0,0.0,0.0,0.0,0.0,0.0,0.0,0.0,0.0,0.0,0.0,0.0,0.0,-0.3921,-0.4079,0.0,0.0,0.0,0.0,0.0,0.0,0.0,0.0,0.0,0.0,0.0,0.0,-1.0929,-1.0816,-1.0789,-1.102,-1.123,-1.1262,-1.1262,-1.0912,-1.0552,-1.0471,-1.0221,-1.0137,0.0,0.0,0.0,0.0,0.0,0.0,0.0,0.0,0.0,0.0,0.0,0.0,0.0,0.0,0.0,0.0,0.0,0.0,0.0,0.0,0.0,0.0,0.0,0.0,0.0,0.0,0.0,0.0,0.0,0.0,0.0,0.0,2.2428,2.2823,0.0,0.0,0.0,0.0,0.0,0.0,0.0,0.0,0.0,0.0,0.0,0.0,0.0,0.4989,0.3037,0.1607,0.0358,-0.0628,-0.1256,-0.215,-0.3309,-0.4641,-0.5797,-0.6956,-0.8116,0.0,-0.8384,-0.8292,0.0,0.0,0.0,0.0,0.0,0.0,0.0,0.0,0.0,0.0,0.0,0.0,0.0,0.0,0.0,0.0,0.0,0.0,0.0,0.0,0.0,0.0,-0.3763,-0.3763,-0.3841,-0.3841,0.0,-0.4771,-0.5851,-0.6692,0.0,0.0,0.0,0.0,0.0,0.0,0.0,0.0,-1.095,-1.0955,-1.1031,-1.1278,-1.1246,-1.1262,-1.1262,-1.0912,-1.0465,-1.0136,-0.9673,-0.9499,-0.9674,-0.963,0.0,0.0,0.0,0.0,0.0,0.0,0.0,0.0,0.0,0.0,0.0,0.0,0.0,0.0,0.0,0.0,0.0,0.0,0.0,0.0,0.0,0.0,0.0,0.0,0.0,0.0,0.0,0.0,0.0,2.4179,2.3661,2.3894,2.4112,2.4147,0.0,0.0,0.0,0.0,0.0,0.0,0.0,0.0,0.0,1.2486,0.9379,0.6665,0.4645,0.2677,0.1163,0.0179,-0.0897,-0.2151,-0.3489,-0.4554,-0.5711,-0.7048,-0.812,-0.8568,-0.8568,-0.8472,-0.8476,-0.8556,0.0,0.0,0.0,0.0,0.0,-0.4839,-0.418,-0.321,0.0,0.0,0.0,0.0,0.0,0.0,0.0,0.0,0.0,0.0,0.0,0.0,0.0,-0.3763,-0.4075,-0.4384,-0.4613,-0.5309,-0.6009,0.0,-0.7536,-0.8602,-0.913,0.0,0.0,0.0,0.0,-1.0719,-1.0955,-1.0982,-1.1079,-1.1241,-1.1262,-1.1209,-1.1155,-1.0832,-1.0418,-0.9876,-0.9498,-0.9165,-0.8775,-0.9226,-0.9448,0.0,0.0,0.0,0.0,0.0,0.0,0.0,0.0,0.0,0.0,0.0,0.0,0.0,0.0,0.0,0.0,0.0,0.0,0.0,0.0,0.0,0.0,0.0,0.0,0.0,0.0,0.0,0.0,2.5256,2.4586,2.4591,2.4735,2.4666,0.0,0.0,0.0,0.0,0.0,0.0,1.921,1.7029,1.5109,1.3684,1.0818,0.8074,0.5719,0.357,0.1877,0.0718,-0.0718,-0.2151,-0.3489,-0.4554,-0.5711,-0.7051,-0.812,-0.8476,-0.8296,-0.8476,-0.8568,-0.8552,-0.7628,-0.7211,-0.7062,-0.6004,-0.4991,-0.3962,-0.3419,-0.2522,-0.1726,-0.1726,0.0,-0.196,-0.2195,0.0,0.0,0.0,0.0,-0.4545,-0.3919,0.0,-0.3841,-0.3997,-0.4389,-0.4851,-0.5309,-0.6005,-0.6549,0.0,-0.7464,-0.8602,-0.9291,0.0,0.0,0.0,0.0,-1.0767,-1.088,-1.1004,-1.1149,-1.1246,-1.1209,-1.1182,-1.0999,-1.0632,-1.0147,-0.9582,-0.9212,-0.8713,-0.7949,-0.8851,-0.9074,-0.8394,0.0,0.0,0.0,0.0,0.0,0.0,0.0,0.0,0.0,0.0,0.0,0.0,0.0,0.0,0.0,0.0,0.0,0.0,0.0,0.0,0.0,0.0,0.0,0.0,0.0,0.0,0.0,0.0,0.0,2.449,2.5025,0.0,0.0,0.0,0.0,2.3103,2.2955,2.2221,2.0605,1.7806,1.5733,1.4559,1.1764,0.8782,0.5719,0.4279,0.2587,0.0718,-0.0718,-0.206,-0.322,-0.4463,-0.562,-0.6868,-0.8116,-0.8208,-0.7577,-0.8296,-0.8568,-0.8564,-0.7749,-0.7389,-0.7004,-0.57,-0.4541,-0.3564,-0.2838,-0.2079,-0.1335,-0.1335,-0.1569,-0.2117,-0.3056,-0.368,0.0,0.0,-0.4698,-0.4545,-0.3919,-0.3763,-0.3919,-0.4543,-0.4698,-0.4854,-0.5467,-0.6703,-0.7548,0.0,-0.7685,-0.8444,-0.8732,0.0,-1.0299,-1.0309,-1.0686,-1.0891,-1.0681,-1.1052,-1.1251,-1.1262,-1.1144,-1.0999,-1.0982,-1.0241,-0.9587,-0.9187,-0.8522,-0.7949,-0.7561,-0.8322,-0.8399,-0.7561,-0.8394,0.0,0.0,0.0,0.0,0.0,0.0,0.0,0.0,0.0,0.0,0.0,0.0,0.0,0.0,0.0,0.0,0.0,0.0,0.0,0.0,0.0,0.0,0.0,0.0,0.0,0.0,0.0,0.0,2.5635,2.5797,0.0,2.5358,2.5873,2.5288,2.3169,2.3032,2.2285,2.0722,1.8435,1.6627,1.5509,1.2711,0.973,0.6587,0.5075,0.3034,0.0718,-0.0269,-0.1523,-0.3044,-0.4202,-0.5179,-0.598,-0.7139,-0.7319,-0.6782,-0.7051,-0.7139,-0.7139,-0.6432,-0.6139,-0.5914,-0.4884,-0.4126,-0.346,-0.3198,-0.2667,-0.2083,-0.1814,-0.1961,-0.2353,-0.2744,-0.3136,-0.3528,-0.3997,-0.4387,-0.4623,-0.4465,-0.4389,-0.4543,-0.5162,-0.501,-0.5087,-0.6314,-0.7007,-0.7548,-0.7927,-0.8765,-0.9377,-0.937,-0.9761,-1.0105,-1.0272,-1.0562,-1.0729,-1.0649,-1.0968,-1.1289,-1.1133,-1.0784,-1.045,-1.015,-0.9667,-0.9047,-0.8526,-0.8218,-0.7949,-0.7484,-0.7787,-0.7787,-0.7484,-0.7787,-0.7787,0.0,0.0,0.0,0.0,0.0,0.0,0.0,0.0,0.0,0.0,0.0,0.0,0.0,0.0,0.0,0.0,0.0,0.0,0.0,0.0,0.0,0.0,0.0,0.0,0.0,2.6519,2.6233,2.6233,2.6013,2.5804,2.5594,2.5804,2.5205,2.3463,2.3169,2.2435,2.1088,1.893,1.7139,1.595,1.3146,1.0336,0.7636,0.5606,0.357,0.1522,0.0448,-0.0717,-0.206,-0.3218,-0.4109,-0.4734,-0.5891,-0.616,-0.5805,-0.5805,-0.5719,-0.563,-0.5458,-0.5371,-0.5272,-0.45,-0.3932,-0.3452,-0.297,-0.2518,-0.2106,-0.1976,-0.2117,-0.2353,-0.2589,-0.2904,-0.3219,-0.3686,-0.4075,-0.4387,-0.4387,-0.4387,-0.4543,-0.516,-0.5162,-0.5395,-0.6707,-0.7246,-0.7706,-0.8399,-0.9008,-0.9433,-0.9354,-0.9407,-0.9621,-1.0016,-1.0105,-1.0145,-1.0374,-1.0575,-1.0626,-1.0466,-1.014,-0.9816,-0.9523,-0.9042,-0.8554,-0.8111,-0.7949,-0.7791,-0.7484,-0.7787,-0.7787,-0.7484,-0.7484,-0.7484,-0.7484,0.0,0.0,0.0,0.0,0.0,0.0,0.0,0.0,0.0,0.0,0.0,0.0,0.0,0.0,0.0,0.0,0.0,0.0,0.0,0.0,0.0,0.0,0.0,2.5336,2.5884,2.6164,2.6233,2.5664,2.5594,2.6151,2.5664,2.5016,2.4192,2.339,2.266,2.1832,1.9237,1.7228,1.595,1.3224,1.0687,0.8607,0.596,0.4194,0.3218,0.1523,0.0359,-0.0448,-0.1609,-0.2502,-0.322,-0.4463,-0.4821,-0.4559,-0.4559,-0.4472,-0.4389,-0.5104,-0.5371,-0.5282,-0.4567,-0.3978,-0.3366,-0.2397,-0.1709,-0.1378,-0.1741,-0.1883,-0.2038,-0.2826,-0.3062,-0.3219,-0.3686,-0.3841,-0.3841,-0.3841,-0.3841,-0.3997,-0.4623,-0.5162,-0.578,-0.6483,-0.7334,-0.8025,-0.8102,-0.8403,-0.8703,-0.8703,-0.8703,-0.8923,-0.9605,-0.9335,0.0,-0.9933,-0.9644,-0.9409,-0.9404,-0.9228,-0.9104,-0.9099,-0.8444,-0.8102,-0.8102,-0.7714,-0.7484,-0.7484,-0.8246,-0.8322,-0.7484,-0.7484,-0.7484,-0.7484,0.0,0.0,0.0,0.0,0.0,0.0,0.0,0.0,0.0,0.0,0.0,0.0,0.0,0.0,0.0,0.0,0.0,0.0,0.0,0.0,0.0,2.4735,2.5489,2.6036,2.5791,2.5873,2.6701,2.6289,2.6013,2.6151,2.6025,2.5441,2.4181,2.339,2.266,2.1832,1.9806,1.8132,1.6985,1.4129,1.1599,0.9552,0.676,0.4645,0.3218,0.2061,0.0807,-0.0448,-0.1432,-0.2059,-0.251,-0.3578,-0.3757,-0.3403,-0.3403,-0.3494,-0.3855,-0.4389,-0.4567,-0.4567,-0.4034,-0.3451,-0.2863,-0.2573,-0.2424,-0.2193,-0.1936,-0.2068,-0.2353,-0.2589,-0.2904,-0.3219,-0.3686,-0.4153,-0.4467,-0.4467,-0.4467,-0.4698,-0.5786,-0.5162,-0.4849,-0.6788,-0.671,-0.6553,-0.7484,-0.7787,-0.8016,-0.8627,-0.8703,-0.8799,-0.8933,-0.9082,0.0,-0.9339,-0.9399,-0.9356,-0.9209,-0.8899,-0.8571,-0.8426,-0.7979,-0.7638,-0.7638,-0.7561,-0.7484,-0.7484,-0.771,-0.771,-0.7484,-0.7484,-0.7484,0.0,0.0,0.0,0.0,0.0,0.0,0.0,0.0,0.0,0.0,0.0,0.0,0.0,0.0,0.0,0.0,0.0,0.0,0.0,0.0,0.0,0.0,2.4394,2.5259,2.5781,2.5722,2.6013,2.6905,2.6701,2.6633,2.6837,2.6427,2.5947,2.529,2.4356,2.3705,2.3471,2.1342,1.9569,1.8331,1.5314,1.2729,1.0682,0.7724,0.562,0.42,0.2868,0.1615,0.0448,-0.0358,-0.0986,0.0,-0.233,-0.2688,-0.2599,-0.2599,-0.2869,0.0,0.0,0.0,0.0,0.0,-0.2936,-0.2465,-0.2442,-0.2308,-0.2084,-0.1963,-0.2093,-0.2304,-0.2439,-0.2747,-0.3141,-0.3452,-0.3919,-0.4389,-0.4623,-0.4701,-0.4932,-0.5938,-0.555,-0.5395,-0.6788,-0.671,-0.663,-0.7326,0.0,0.0,-0.8093,-0.8169,-0.8273,-0.859,-0.848,-0.8535,-0.8779,-0.8731,-0.855,-0.8438,-0.8191,-0.7987,-0.788,-0.7638,0.0,0.0,0.0,-0.7484,-0.7484,-0.7484,0.0,0.0,0.0,-0.7484,0.0,0.0,0.0,0.0,-0.7484,-0.7484,0.0,0.0,0.0,0.0,0.0,0.0,0.0,0.0,0.0,0.0,0.0,0.0,0.0,0.0,0.0,0.0,2.423,2.4508,2.5012,2.5707,2.6427,2.704,2.7092,2.7266,2.7735,2.6977,2.6606,2.6853,2.5701,2.5164,2.5558,0.0,0.0,0.0,0.0,1.4124,1.194,0.8856,0.6851,0.5808,0.3942,0.2693,0.1973,0.1166,0.0448,-0.0269,-0.0987,-0.1525,-0.1974,-0.2064,-0.2332,-0.2777,-0.2867,-0.3136,-0.3408,-0.2957,-0.2511,0.0,0.0,0.0,0.0,-0.1742,-0.1877,-0.1942,-0.2298,-0.2673,-0.2982,-0.2984,-0.3374,-0.3841,-0.4389,-0.4623,-0.4854,-0.5467,-0.6089,-0.6563,-0.6637,-0.7099,-0.7407,-0.7484,-0.7484,-0.7484,-0.7484,-0.7484,-0.7691,-0.833,-0.7897,0.0,-0.833,-0.7892,-0.7484,-0.7484,0.0,0.0,-0.7484,-0.7484,-0.7484,-0.7484,-0.7484,-0.7484,-0.7484,-0.7484,-0.7484,-0.7484,-0.7484,-0.7484,-0.7484,-0.7484,-0.7484,-0.7484,-0.7484,-0.7484,0.0,0.0,0.0,0.0,0.0,0.0,0.0,0.0,0.0,0.0,0.0,0.0,0.0,0.0,0.0,2.3666,2.4178,2.4567,2.4798,2.5741,2.6688,2.751,2.7712,2.7777,2.779,2.7979,2.7795,2.6978,2.6054,2.5247,2.4714,2.3514,0.0,2.0152,1.7768,1.5468,1.3281,1.013,0.799,0.6786,0.0,0.0,0.2862,0.1972,0.1166,0.0448,-0.0269,-0.0628,-0.0807,-0.1345,-0.1614,-0.1793,-0.2598,-0.2689,-0.2423,-0.2333,-0.1973,-0.1524,-0.1518,-0.1498,-0.1388,-0.1462,-0.1424,-0.1463,-0.1859,-0.2071,0.0,-0.2511,-0.2904,-0.3297,-0.3374,-0.4077,-0.4854,-0.5467,-0.5699,-0.6089,-0.7096,-0.7022,-0.6945,-0.7407,-0.7484,-0.7484,-0.7484,-0.7484,-0.7573,-0.7683,-0.7581,-0.7573,-0.7683,-0.7581,-0.7484,-0.7484,-0.7484,-0.7484,-0.7484,-0.7484,-0.7484,-0.7484,-0.7484,-0.7484,-0.7484,-0.7484,-0.7484,-0.7484,-0.7484,-0.7484,-0.7484,-0.7484,-0.7484,-0.7484,-0.7484,-0.7484,0.0,0.0,0.0,0.0,0.0,0.0,0.0,0.0,0.0,0.0,0.0,2.3078,2.3078,0.0,2.3603,2.3817,2.4541,2.5033,2.5038,2.5983,2.6968,2.7725,2.8121,2.8408,2.8651,2.864,2.8331,2.7751,2.7079,2.6644,2.6495,2.5201,2.3753,2.206,1.9545,1.6962,1.4489,1.1385,0.9121,0.7742,0.545,0.4119,0.3669,0.242,0.1615,0.1166,0.0448,-0.009,-0.0448,-0.1166,-0.1436,-0.1436,-0.1973,-0.1973,-0.1794,-0.1794,-0.1615,-0.1436,-0.1436,-0.1425,-0.141,-0.1395,-0.137,-0.1341,-0.1556,-0.1773,-0.191,-0.2124,-0.251,-0.2902,-0.345,-0.3995,-0.4616,-0.5389,-0.5857,-0.6167,-0.6475,-0.6788,-0.7022,-0.7022,-0.7022,-0.7176,-0.7484,-0.7253,-0.7176,-0.7484,-0.7484,-0.7484,-0.7484,-0.7484,-0.7484,-0.7484,-0.7484,-0.7484,-0.7484,-0.7484,-0.7484,-0.7484,-0.7484,-0.7484,-0.7484,-0.7484,-0.7484,-0.7484,-0.7484,-0.7484,-0.7484,-0.7484,-0.7484,-0.7484,-0.7484,-0.7484,0.0,0.0,0.0,0.0,0.0,0.0,0.0,2.3509,2.339,2.3138,2.3078,2.3078,2.3078,2.3602,2.4029,2.4142,2.4971,2.5569,2.5505,2.6362,2.7222,2.7876,2.8412,2.8882,2.9308,2.8993,2.8648,2.8507,2.8094,2.7975,2.8235,2.6659,2.529,2.4033,2.1044,1.8264,1.5806,1.2587,1.0269,0.8786,0.6154,0.4832,0.4743,0.3047,0.2242,0.2241,0.1345,0.0538,-0.0269,-0.0897,-0.1166,-0.1256,-0.1345,-0.1436,-0.1436,-0.1436,-0.1436,-0.1436,-0.1436,-0.1436,-0.1431,-0.1407,-0.1395,-0.1381,-0.1334,-0.1556,-0.178,-0.1747,-0.2046,-0.2588,-0.3444,-0.3834,-0.4146,-0.4999,-0.578,-0.617,-0.5625,-0.6475,-0.7176,-0.6718,-0.6718,-0.6868,-0.7253,-0.7022,-0.6945,-0.7407,-0.7484,-0.7484,-0.7484,-0.7484,-0.7484,-0.7484,-0.7484,-0.7484,-0.7484,-0.7484,-0.7484,-0.7484,-0.7484,-0.7484,-0.7484,-0.7484,-0.7484,-0.7484,-0.7484,-0.7484,-0.7484,-0.7484,-0.7484,-0.7484,-0.7484,-0.7484,2.4935,2.4421,2.4292,2.4292,2.4157,2.3995,0.0,2.3569,2.3509,2.3198,2.3078,2.3078,2.3078,2.3602,2.4155,2.4644,2.5222,2.572,2.6039,2.6611,2.7288,2.7981,2.8545,2.8799,2.8662,2.9023,2.9114,2.8573,2.8414,2.8119,2.7348,2.6329,2.5378,2.449,2.142,1.9008,1.7353,1.4025,1.1532,1.0091,0.7834,0.6786,0.6697,0.483,0.403,0.3941,0.2331,0.1256,0.0538,-0.0179,-0.0538,-0.0538,-0.1166,-0.1436,-0.1436,-0.1436,-0.1436,-0.1436,-0.1436,-0.1436,-0.1435,-0.1431,-0.1412,-0.1388,-0.1382,-0.1343,-0.1383,-0.1379,-0.1675,-0.196,-0.2116,-0.282,-0.3524,-0.3602,-0.4457,-0.516,-0.5082,-0.5938,-0.6714,-0.6641,-0.7022,-0.7253,-0.6791,-0.7099,-0.7407,-0.7484,-0.7484,-0.7484,-0.7484,-0.7484,-0.7484,-0.7484,-0.7484,-0.7484,-0.7484,-0.7484,-0.7484,-0.7484,-0.7484,-0.7484,-0.7484,-0.7484,-0.7484,-0.7484,-0.7484,-0.7484,-0.7484,-0.7484,-0.7484,-0.7484,-0.7484,-0.7484,2.4991,2.4421,2.4292,2.4203,2.4157,2.4054,2.3819,2.376,2.37,2.333,2.3271,2.3371,2.3577,2.4104,2.4657,2.5184,2.5737,2.6189,2.6358,2.7135,2.7688,2.7925,2.8561,2.9006,2.8994,2.9282,2.9118,2.859,2.851,2.8339,2.8007,2.6577,2.5663,2.5242,2.2457,2.0166,1.8696,1.5972,1.358,1.1592,0.9358,0.8006,0.7224,0.5361,0.4119,0.3409,0.2333,0.1615,0.1256,0.009,-0.0359,-0.0448,-0.1166,-0.1436,-0.1436,-0.1436,-0.1436,-0.1436,-0.1436,-0.1436,-0.1436,-0.1436,-0.1427,-0.1413,-0.1395,-0.1361,-0.1325,-0.1307,-0.144,-0.1569,-0.1803,-0.2195,-0.2586,-0.2823,-0.3524,-0.3992,-0.3602,-0.4691,-0.5547,-0.5237,-0.5854,-0.6475,-0.656,-0.6791,-0.7099,-0.7484,-0.7484,-0.7484,-0.7484,-0.7484,-0.7484,-0.7484,-0.7484,-0.7484,-0.733,-0.7334,-0.7253,-0.7173,-0.7173,-0.7173,-0.7173,-0.7253,-0.7334,-0.7334,-0.7103,-0.7099,-0.7334,-0.6942,-0.6861,-0.7173,-0.7253,-0.7334,2.4991,2.4536,2.4363,2.4274,2.4171,2.4067,2.3949,2.376,2.3509,2.3258,2.315,2.3215,2.3505,2.4216,2.4946,2.5322,2.5988,2.6533,2.6533,2.7406,2.8036,2.7841,2.8632,2.9197,2.9353,2.9197,2.8961,2.851,2.851,2.851,2.851,2.6741,2.5819,2.5819,2.3163,2.1042,1.9482,1.7244,1.5082,1.2979,1.0712,0.9135,0.8273,0.6065,0.4385,0.323,0.2423,0.2064,0.1974,0.0718,0.0179,0.0179,-0.0538,-0.0807,-0.0807,-0.0807,-0.1076,-0.1436,-0.1436,-0.1436,-0.1436,-0.1436,-0.1436,-0.1431,-0.1409,-0.1382,-0.1353,-0.1324,-0.1293,-0.1346,-0.165,-0.1726,-0.1804,-0.2119,-0.2588,-0.2899,-0.2431,-0.3522,-0.4457,-0.399,-0.4611,-0.5386,-0.5702,-0.5857,-0.6089,-0.6318,-0.6707,-0.7096,-0.7484,-0.7484,-0.7407,-0.733,-0.7326,-0.7253,-0.7103,-0.7103,-0.7022,-0.6942,-0.6707,-0.663,-0.6861,-0.663,-0.6556,-0.6791,-0.6247,-0.6167,-0.6398,-0.6163,-0.624,-0.6553,-0.6945,-0.718,2.5005,2.4778,2.462,2.462,2.4345,2.4067,2.3949,2.3378,2.2859,2.2665,2.2506,2.242,2.2445,2.3765,2.4833,2.4845,2.5749,2.6533,2.6533,2.7406,2.8036,2.7841,2.8773,2.9341,2.9131,2.8736,2.851,2.851,2.851,2.851,2.851,2.6741,2.5819,2.5819,2.3163,2.1051,1.9772,1.7347,1.5448,1.4135,1.169,1.0549,1.0371,0.7386,0.5361,0.421,0.323,0.2873,0.2784,0.2064,0.1705,0.1705,0.0897,0.0628,0.0628,0.0628,-0.0269,-0.1436,-0.1436,-0.1436,-0.1436,-0.1436,-0.1436,-0.1436,-0.1434,-0.1412,-0.1383,-0.1354,-0.1324,-0.1294,-0.1344,-0.1335,-0.1335,-0.1335,-0.1649,-0.196,-0.196,-0.2741,-0.3446,-0.3446,-0.3988,-0.4219,-0.3602,-0.4064,-0.4219,-0.36,-0.4768,-0.6086,-0.733,-0.7334,-0.7103,-0.6942,-0.6942,-0.6942,-0.6942,-0.6942,-0.6942,-0.6865,-0.6086,-0.6012,-0.6865,-0.5384,-0.4841,-0.5622,-0.4841,-0.445,-0.445,-0.5231,-0.5622,-0.5622,-0.6475,-0.7022,2.4962,2.4593,2.4305,2.4549,2.4028,2.3556,2.4028,2.3399,2.2725,2.2798,2.2738,2.28,2.3045,2.409,2.5037,2.5481,2.611,2.6533,2.6533,2.7406,2.8036,2.8036,2.8836,2.9341,2.9353,2.8961,0.0,2.8724,2.8578,2.851,2.851,2.7336,2.6423,2.583,2.4296,2.2756,2.1051,1.9141,1.7384,1.5718,1.2452,1.0539,0.9918,0.8089,0.6419,0.5006,0.4295,0.3764,0.332,0.2242,0.1794,0.1705,0.0987,0.0718,0.0718,0.0718,0.0359,-0.009,-0.0538,-0.0987,-0.1436,-0.1436,-0.1436,-0.1436,-0.1436,-0.1414,-0.1384,-0.1356,-0.1326,-0.1296,-0.1265,-0.1335,-0.1335,-0.1335,-0.1414,-0.1492,-0.1492,-0.196,-0.243,-0.243,-0.313,-0.3679,-0.3446,-0.3988,-0.4295,-0.4064,-0.4921,-0.5931,-0.6942,-0.7019,-0.6942,-0.6942,-0.6865,-0.6865,-0.6714,-0.6714,-0.6402,-0.5699,-0.5389,-0.5079,-0.4841,-0.4453,-0.43,-0.4611,-0.4066,-0.391,-0.4222,-0.3988,-0.4066,-0.4453,-0.5384,-0.5851,2.5145,2.4721,2.4363,2.4434,2.3897,2.3424,2.3636,2.2955,2.2237,2.2237,2.2433,2.2604,2.2896,2.4065,2.5153,2.5586,2.6164,2.6521,2.6589,2.7477,2.8109,2.8109,2.8925,2.9521,2.9521,2.9197,0.0,2.8791,2.8578,2.851,2.851,2.7672,2.6764,2.5819,2.4914,2.3627,2.1695,2.0372,1.8539,1.6051,1.3354,1.1397,1.0091,0.8956,0.7647,0.6242,0.5534,0.4825,0.4208,0.3224,0.2689,0.2422,0.1705,0.1525,0.1525,0.1525,0.1345,0.0987,0.0269,-0.0269,-0.0628,-0.0628,-0.0628,-0.0628,-0.0628,-0.08,-0.105,-0.0942,-0.109,-0.1311,-0.1281,-0.1265,-0.1335,-0.1335,-0.1335,-0.1335,-0.1335,-0.1492,-0.1648,-0.1648,-0.2196,-0.2666,-0.2666,-0.2974,-0.3363,-0.3675,-0.4144,-0.4844,-0.5774,-0.5928,-0.5851,-0.5774,-0.5774,-0.5774,-0.5622,-0.5625,-0.5312,-0.4611,-0.4302,-0.399,-0.383,-0.3365,-0.321,-0.3522,-0.2978,-0.2821,-0.3132,-0.2978,-0.3054,-0.3365,-0.4297,-0.4841,2.5494,2.5145,2.4664,2.4247,2.3897,2.3543,2.2786,2.2101,2.1502,2.1187,2.1565,2.1939,2.1939,2.3652,2.5116,2.5294,2.5991,2.6521,2.6658,2.7477,2.8109,2.8109,2.9101,2.9792,2.9792,2.9599,2.9263,2.887,0.0,2.851,2.851,2.7765,2.6835,2.5819,2.4999,2.3704,2.1784,2.0983,1.88,1.535,1.4545,1.3033,1.1063,1.0086,0.8952,0.7834,0.6858,0.6062,0.5359,0.4825,0.4206,0.3587,0.3141,0.2963,0.2963,0.2963,0.2513,0.1794,0.1166,0.0807,0.0718,0.0718,0.0718,0.0718,0.0718,0.0269,-0.0357,-0.0262,-0.0684,-0.1173,-0.1229,-0.128,-0.1257,-0.1257,-0.1335,-0.1335,-0.1335,-0.1335,-0.1335,-0.1335,-0.1335,-0.1335,-0.1335,-0.1335,-0.1571,-0.2353,-0.2433,-0.2823,-0.3912,-0.4068,-0.3988,-0.383,-0.383,-0.383,-0.383,-0.383,-0.3752,-0.3752,-0.2978,-0.2821,-0.3675,-0.2117,-0.1649,-0.2433,-0.1728,-0.1335,-0.1335,-0.2041,-0.2433,-0.2431,-0.3365,-0.3832,2.5592,2.4892,2.4221,2.4234,2.3424,2.2726,2.3078,2.2396,2.1702,2.1803,2.2163,2.2421,2.2421,2.4017,2.5421,2.5421,2.611,2.6658,2.6714,2.7477,2.8109,2.8109,2.9101,2.9792,2.9792,2.9599,2.9341,0.0,2.904,2.8895,2.8724,2.8474,2.7568,2.5819,2.5568,2.4553,2.2775,2.0716,1.8557,1.6363,1.4796,1.3451,1.2248,1.1311,1.0014,0.8627,0.8006,0.7034,0.5891,0.5359,0.4739,0.4121,0.4032,0.3942,0.3942,0.3942,0.3853,0.3673,0.3403,0.2239,0.0718,0.0718,0.0718,0.0807,0.1075,0.0806,0.0536,0.096,0.0598,0.0084,-0.0327,-0.048,-0.0707,-0.1178,-0.1335,-0.1335,-0.1335,-0.1335,-0.1335,-0.1335,-0.1335,-0.1335,-0.1335,-0.1335,-0.1335,-0.1571,-0.157,-0.2118,-0.3677,-0.391,-0.383,-0.383,-0.383,-0.383,-0.383,-0.383,-0.3521,-0.2899,-0.2588,-0.2353,-0.1961,-0.1492,-0.1414,-0.157,-0.1414,-0.1335,-0.1335,-0.1492,-0.157,-0.1649,-0.2431,-0.2821,2.5061,2.4452,2.3859,2.3708,2.3078,2.2543,2.2653,2.2149,2.1776,2.2002,2.2113,2.2286,2.2834,2.3804,2.4693,2.509,2.5485,2.5849,2.6289,2.7083,2.7705,2.8036,2.9101,2.9792,2.9792,2.9689,2.9599,2.9599,2.9287,2.9052,2.8961,2.8961,2.8039,2.5964,2.5975,2.4861,2.2598,2.0808,1.8993,1.7261,1.5869,1.4364,1.2674,1.2169,1.0971,0.9331,0.0,0.836,0.7302,0.6508,0.5714,0.5008,0.4476,0.43,0.43,0.43,0.43,0.43,0.43,0.3403,0.2239,0.2061,0.1973,0.2061,0.2329,0.2059,0.1787,0.1941,0.1472,0.0932,0.0332,0.0162,0.0,-0.0709,-0.0864,-0.0943,-0.1257,-0.1335,-0.1335,-0.1335,-0.1335,-0.1335,-0.1335,-0.1335,-0.1335,-0.1335,-0.1335,-0.1649,-0.2585,-0.2741,-0.2741,-0.2741,-0.2741,-0.2741,-0.2741,-0.2741,-0.2507,-0.2041,-0.1962,-0.1805,-0.1335,-0.1335,-0.1335,-0.1335,-0.1335,-0.1335,-0.1335,-0.1335,-0.1335,-0.1335,-0.1727,-0.1962,2.435,2.4047,2.3636,2.3078,2.2848,2.2665,2.2025,2.1839,2.1901,2.2013,2.1877,2.2113,2.3075,2.3362,2.3713,2.4576,2.459,2.4767,2.5639,2.6275,2.7003,2.7865,2.8875,2.9626,2.9779,2.9792,2.9792,2.9792,2.9378,2.9209,2.9131,2.904,2.8039,2.6036,2.5815,2.446,2.1967,2.0959,1.9696,1.7997,1.7107,1.5357,1.2851,1.2851,1.1912,1.0212,0.0,0.0,0.8803,0.7654,0.6773,0.6068,0.4921,0.4478,0.4478,0.4478,0.4478,0.4478,0.4478,0.4478,0.43,0.3853,0.3676,0.3676,0.3765,0.3582,0.3309,0.2955,0.2379,0.1724,0.1098,0.0908,0.0726,0.0,-0.0157,-0.0236,-0.0864,-0.1021,-0.11,-0.1257,-0.1335,-0.1335,-0.1335,-0.1335,-0.1335,-0.1335,-0.1257,-0.1257,-0.1257,-0.1335,-0.1335,-0.1335,-0.1335,-0.1335,-0.1335,-0.1335,-0.1335,-0.1335,-0.1335,-0.1335,-0.1335,-0.1257,-0.1257,-0.1257,-0.1257,-0.1178,-0.1178,-0.1178,-0.1257,-0.1257,-0.1257,-0.1257,2.4567,2.4047,2.3518,2.3125,2.2665,2.2371,2.2665,2.2665,2.2726,2.2714,2.2702,2.2738,2.3065,2.3438,2.3899,2.4576,2.4808,2.4933,2.5146,2.5394,2.6012,2.7188,2.7809,2.8549,2.9664,2.9792,2.9792,0.0,2.9702,2.9611,2.9353,2.8621,2.7406,2.5432,2.4146,2.3046,2.2132,2.075,1.9344,1.7997,1.7107,1.5703,1.388,1.388,1.2857,1.1068,0.0,0.0,0.8803,0.8009,0.7305,0.6602,0.5816,0.5466,0.5466,0.5466,0.5466,0.5466,0.5466,0.5193,0.4832,0.43,0.421,0.421,0.4654,0.4476,0.4206,0.4474,0.4142,0.345,0.2448,0.2145,0.1854,0.0711,0.0706,0.1019,0.0862,0.0392,-0.0235,-0.11,-0.1335,-0.1335,-0.1335,-0.1335,-0.1335,-0.1335,-0.11,-0.1021,-0.1257,-0.1335,-0.1335,-0.1335,-0.1335,-0.1335,-0.1335,-0.1335,-0.1335,-0.1335,-0.1335,-0.1335,-0.1335,-0.11,-0.0943,-0.0943,-0.0786,-0.0707,-0.0707,-0.0707,-0.0786,-0.0943,-0.0943,-0.11,2.3708,2.3484,2.3125,2.2836,2.2543,2.2359,2.2494,2.2555,2.2616,2.2848,2.2763,2.2798,2.3365,2.3678,2.3886,2.4108,2.4303,2.442,2.4443,2.4958,2.5737,2.6651,2.7779,2.8698,2.9315,2.9616,2.9792,2.9792,2.9792,2.9702,2.9611,2.8211,2.6987,2.608,2.4074,2.2818,2.2215,2.1264,2.0018,1.8647,1.7755,1.6437,1.4699,1.43,1.3366,1.1997,1.1494,0.0,1.0019,0.8886,0.8185,0.7834,0.7048,0.6609,0.6254,0.6254,0.5994,0.5733,0.5733,0.5552,0.5282,0.5104,0.4835,0.4743,0.4921,0.5013,0.5015,0.501,0.4796,0.4387,0.3605,0.3273,0.3036,0.2087,0.1739,0.1643,0.1643,0.133,0.0861,-0.0157,-0.0314,-0.0471,-0.0864,-0.0943,-0.0943,-0.0943,-0.0864,-0.0786,-0.0943,-0.0943,-0.0943,-0.11,-0.11,-0.1021,-0.0943,-0.0943,-0.0943,-0.0943,-0.0943,-0.0943,-0.0943,-0.0786,-0.0707,-0.0707,-0.0628,-0.0628,-0.0628,-0.0628,-0.0629,-0.0707,-0.0707,-0.0786,2.2969,2.2909,2.2848,2.2543,2.2482,2.242,2.2359,2.2371,2.2432,2.2787,2.2689,2.2798,2.3556,2.3804,2.3928,2.3886,2.3781,2.3788,2.3936,2.4542,2.5321,2.6142,2.7742,2.8849,2.8988,2.9453,2.9792,2.9792,2.9792,0.0,2.9209,2.7718,2.6685,2.6173,2.4169,2.2845,2.2229,2.171,2.075,1.945,1.8567,1.7326,1.5681,1.488,1.3964,1.3021,1.2003,0.0,0.0,0.9584,0.889,0.8803,0.8097,0.7482,0.7041,0.7041,0.6605,0.6171,0.6171,0.6083,0.5997,0.6083,0.5725,0.5191,0.5191,0.5371,0.5644,0.528,0.5191,0.4987,0.4446,0.4278,0.4026,0.3511,0.2866,0.2423,0.2267,0.2188,0.1955,0.1017,0.0861,0.0705,0.0078,-0.0078,-0.0078,-0.0078,-0.0157,-0.0314,-0.0314,-0.0471,-0.0628,-0.0786,-0.0786,-0.0786,-0.0628,-0.0628,-0.0628,-0.0628,-0.0628,-0.0628,-0.0628,-0.055,-0.055,-0.055,-0.0471,-0.0471,-0.0471,-0.0471,-0.0471,-0.055,-0.055,-0.055,2.3078,2.2957,2.2909,2.2848,2.2604,2.2482,2.2896,2.2909,2.2848,2.2909,2.2992,2.31,2.339,2.3691,2.4059,2.4643,2.4034,2.3615,2.399,2.3632,2.3939,2.567,2.6735,2.7879,2.9087,2.9517,2.9792,2.9792,2.9792,0.0,2.7476,2.7151,2.6211,2.419,2.332,2.2706,2.2168,2.1565,2.0761,1.9825,1.8957,1.8069,1.709,1.6049,1.5061,1.4223,0.0,0.0,0.0,0.9584,0.889,0.8803,0.8097,0.7746,0.7746,0.7746,0.7658,0.757,0.757,0.7221,0.6779,0.7394,0.6694,0.5644,0.5644,0.5644,0.5733,0.5644,0.5644,0.5526,0.4966,0.4844,0.4787,0.4508,0.4302,0.399,0.3361,0.3281,0.2969,0.1955,0.1799,0.172,0.172,0.1642,0.1642,0.1642,0.1174,0.0705,0.0549,0.0,-0.0314,-0.0314,-0.055,-0.0628,-0.0628,-0.0628,-0.0628,-0.0628,-0.0628,-0.0628,-0.0628,-0.0393,-0.0314,-0.0314,-0.0157,-0.0079,-0.0079,-0.0079,-0.0157,-0.0314,-0.0314,-0.0393,2.3653,2.3341,2.3017,2.2909,2.2726,2.2616,2.2653,2.2543,2.2555,2.2848,2.3185,2.3412,2.339,2.4182,2.4733,2.4501,2.4291,2.4206,2.4306,2.4061,2.4293,2.535,2.6021,2.698,2.8533,2.8775,2.9096,2.9767,0.0,0.0,2.7232,2.7069,2.6597,2.5385,2.3889,2.3026,2.284,2.1871,2.1118,2.0634,1.9825,1.8948,1.8069,1.7098,1.6214,1.5409,0.0,0.0,0.0,1.1047,1.0361,0.9937,0.9584,0.9231,0.8882,0.8882,0.8444,0.7834,0.7834,0.7654,0.7482,0.7746,0.7397,0.6871,0.652,0.6343,0.6254,0.5822,0.5733,0.5633,0.5406,0.5339,0.523,0.4999,0.4908,0.4777,0.4474,0.4382,0.4068,0.3205,0.3049,0.2891,0.2345,0.2268,0.2268,0.2268,0.2034,0.18,0.1721,0.1566,0.1409,0.1409,0.0314,-0.0393,-0.0236,-0.0236,-0.0236,-0.0236,-0.0236,-0.0236,-0.0236,-0.0157,-0.0157,-0.0157,-0.0079,0.0,0.0,0.0,-0.0079,-0.0157,-0.0157,-0.0157,2.4243,2.3941,2.3578,2.3393,2.3269,2.3045,2.27,2.2663,2.2677,2.2885,2.3245,2.359,2.3675,2.47,2.5323,2.4735,2.4721,2.4766,2.4597,2.4511,2.4707,2.5282,2.5996,2.7038,2.8435,2.8675,2.9098,2.9831,0.0,0.0,0.0,2.7175,2.6462,2.5405,2.3839,2.2977,2.286,2.2029,2.1512,2.1359,2.0469,1.9668,1.8798,1.7827,1.696,1.6162,0.0,0.0,0.0,1.2248,1.1488,1.0809,1.0809,1.0544,1.0101,1.0101,0.9492,0.8619,0.8619,0.8444,0.8185,0.836,0.8273,0.8009,0.757,0.7305,0.6956,0.6257,0.5908,0.5733,0.5733,0.5643,0.5422,0.5336,0.5265,0.5208,0.5091,0.5067,0.4896,0.4309,0.4146,0.399,0.3365,0.3209,0.3209,0.3209,0.3051,0.2893,0.2893,0.2659,0.2503,0.2503,0.1331,0.0549,0.0706,0.0706,0.0706,0.0706,0.0706,0.0706,0.0706,0.0549,0.0392,0.0392,0.0157,0.0,0.0,0.0,0.0,0.0,0.0,0.0,2.4808,2.4808,2.473,2.4524,2.4394,2.4075,2.3332,2.3464,2.3567,2.3021,2.3245,2.3754,2.4234,2.5122,2.5774,2.5581,2.5283,2.5065,2.4912,2.4861,2.4998,2.5419,2.7046,2.8355,2.8951,2.9864,3.0292,0.0,0.0,0.0,0.0,2.7249,2.5485,2.3286,2.2749,2.2273,2.1818,2.1807,2.1807,2.1807,2.0934,2.006,1.9256,1.8167,1.7204,0.0,0.0,0.0,0.0,1.2693,1.1923,1.1322,1.1322,1.1322,1.1322,1.1322,1.0982,1.0549,1.0549,0.985,0.8978,0.9772,0.9506,0.889,0.889,0.836,0.7658,0.6956,0.6257,0.5733,0.5733,0.5643,0.5464,0.5462,0.5455,0.5333,0.5211,0.5184,0.5151,0.5037,0.5018,0.5018,0.494,0.4937,0.4937,0.4937,0.4304,0.3752,0.3752,0.3049,0.2503,0.2503,0.2503,0.2503,0.2503,0.2503,0.2503,0.2503,0.2503,0.2503,0.2503,0.1723,0.1254,0.1254,0.0471,0.0,0.0,0.0,0.0,0.0,0.0,0.0,2.536,2.5096,2.4755,2.4743,2.4626,2.4394,2.4014,2.4211,2.4241,2.358,2.4106,2.4504,2.3949,2.4866,2.5628,2.5203,2.5201,2.5205,2.4925,2.4912,2.5062,2.5419,2.7058,2.8119,2.8154,0.0,2.9958,0.0,0.0,0.0,0.0,2.6588,2.5375,2.4871,2.3863,2.309,2.2628,2.2628,2.2327,2.1807,2.1492,2.0934,2.006,1.9204,0.0,0.0,0.0,0.0,0.0,1.3789,1.3033,1.2443,1.1929,1.1757,1.1757,1.1757,1.1499,1.1063,1.1063,1.0804,1.0544,1.0809,1.0722,1.0544,1.0544,0.9584,0.836,0.7658,0.6956,0.652,0.6612,0.6142,0.5654,0.574,0.5606,0.5461,0.5507,0.5564,0.555,0.5755,0.5746,0.5746,0.5746,0.5746,0.5746,0.5746,0.5499,0.533,0.533,0.5007,0.476,0.4923,0.476,0.4053,0.2588,0.2503,0.2503,0.2503,0.2503,0.2503,0.2503,0.2348,0.2348,0.2348,0.219,0.2111,0.2111,0.1957,0.1567,0.0862,0.0862,0.0549,2.5722,2.5619,2.5448,2.5382,2.5182,2.4987,2.4578,2.4781,2.4881,2.4393,2.4818,2.5132,2.4839,2.5561,2.6062,2.5667,2.5948,2.6012,2.5482,2.5562,2.5781,2.6225,2.7391,2.8169,0.0,2.8856,0.0,0.0,0.0,0.0,0.0,2.644,2.5401,2.5564,2.3885,2.2831,2.2553,2.2553,2.2327,2.1807,2.1807,2.1328,2.0459,1.9687,0.0,0.0,0.0,0.0,0.0,1.4796,1.4216,1.3639,1.3203,1.3033,1.2948,1.2699,1.2357,1.1929,1.1671,1.1413,1.1327,1.1327,1.1327,1.1327,1.1327,1.0279,0.9148,0.879,0.8089,0.7478,0.783,0.7482,0.6933,0.667,0.6477,0.627,0.5975,0.5948,0.5933,0.6047,0.6121,0.6121,0.6121,0.6121,0.6121,0.6121,0.6121,0.6121,0.6121,0.5954,0.5957,0.6117,0.5954,0.5306,0.3945,0.3854,0.384,0.3805,0.3803,0.3787,0.3679,0.3519,0.3439,0.3439,0.3203,0.3124,0.3124,0.2969,0.2581,0.1956,0.1956,0.1488,0.0,2.6258,2.6465,2.627,2.6062,2.5706,2.5054,2.5148,0.0,2.5345,2.5358,2.5662,2.658,2.6912,2.6987,2.6857,2.7201,2.7202,2.6441,2.6614,2.7052,2.7471,2.7994,2.8333,2.8373,2.8812,0.0,0.0,0.0,0.0,0.0,2.6591,2.5498,2.5498,2.3123,2.1883,2.1807,2.1949,2.1949,2.1807,2.1807,2.1405,2.0547,1.9687,0.0,0.0,0.0,0.0,0.0,1.5733,1.5318,1.4734,1.4734,1.4734,1.465,1.3984,1.3476,1.3039,1.2443,1.1929,1.1494,1.1494,1.1413,1.1408,1.1408,1.0626,0.984,1.0269,0.957,0.8694,0.9213,0.9213,0.8952,0.8089,0.7834,0.7534,0.6624,0.634,0.6303,0.6173,0.6148,0.6148,0.6148,0.6148,0.6148,0.6148,0.6148,0.6148,0.6148,0.6148,0.6148,0.6148,0.6148,0.6148,0.6148,0.613,0.6062,0.5932,0.5925,0.5793,0.5671,0.494,0.454,0.454,0.375,0.3279,0.3279,0.3279,0.3279,0.3202,0.3202,0.2735,2.4933,0.0,2.6465,2.6465,2.627,2.6025,0.0,2.5896,2.6008,2.5457,2.6,2.6448,2.6264,2.6988,2.7377,2.6857,2.6939,2.6865,2.6361,2.6581,2.6886,2.731,2.7587,2.7754,2.7906,2.7864,0.0,0.0,0.0,0.0,0.0,2.654,2.5739,2.5147,2.3801,2.2809,2.2252,2.3412,2.3338,2.2035,2.2035,2.1873,2.1405,1.9982,0.0,0.0,0.0,0.0,1.6402,1.5899,1.5567,1.5401,1.4901,1.4734,1.465,1.4482,1.4398,1.4314,1.4139,1.3971,1.3802,1.33,1.279,1.2357,1.2357,1.1666,1.089,1.1063,1.0448,0.9923,1.0193,0.9744,0.9213,0.9139,0.8444,0.7822,0.7785,0.7173,0.6734,0.687,0.6863,0.6863,0.6863,0.6863,0.6863,0.6863,0.6863,0.6863,0.6863,0.6692,0.6692,0.6863,0.6692,0.6692,0.6863,0.6408,0.6105,0.6074,0.6071,0.6055,0.5943,0.5839,0.5784,0.5784,0.5605,0.547,0.5234,0.5234,0.4841,0.4059,0.4059,0.3671,2.4337,2.5441,2.6396,2.6465,2.6258,2.605,2.591,2.5886,2.5857,2.5779,2.6391,2.6883,2.6583,2.7373,2.794,2.7363,2.7514,2.7573,2.7274,2.7301,2.7443,2.7603,2.7669,2.7708,0.0,0.0,0.0,0.0,0.0,0.0,0.0,2.6647,2.5918,2.5134,2.4624,2.3694,2.2402,2.3202,2.3202,2.2252,2.2252,2.2176,2.2025,2.0605,0.0,0.0,0.0,0.0,1.6648,1.6319,1.6154,1.6147,1.5733,1.565,1.5567,1.5235,1.5151,1.5151,1.4817,1.4734,1.465,1.4321,1.3893,1.3548,1.3222,1.279,1.2357,1.2015,1.1488,1.1139,1.1494,1.1225,1.0697,1.0448,0.984,0.9314,0.9052,0.8619,0.8101,0.7841,0.7753,0.7577,0.7139,0.7139,0.7139,0.7139,0.7139,0.7139,0.7139,0.6966,0.6966,0.7051,0.6966,0.6966,0.7051,0.6734,0.6534,0.647,0.6466,0.6437,0.637,0.6378,0.6417,0.6417,0.6434,0.6356,0.6195,0.6129,0.5786,0.5234,0.5234,0.4844,2.3672,2.5004,2.605,2.6327,2.6119,2.5828,2.5828,2.5535,2.5453,2.6082,2.6564,2.6905,2.704,2.7789,2.8249,2.7855,2.8249,2.8509,2.8235,2.8183,2.8145,2.8079,2.7934,0.0,0.0,0.0,0.0,0.0,0.0,0.0,0.0,2.6837,2.6208,2.5312,2.5312,2.4371,2.2478,2.2617,2.2617,2.2478,2.2478,2.2402,2.2327,2.1308,2.045,0.0,0.0,0.0,1.6894,1.6894,1.6894,1.6894,1.6812,1.6812,1.6738,1.6064,1.5816,1.5733,1.5235,1.4901,1.4817,1.4817,1.4817,1.4566,1.3984,1.3815,1.373,1.3045,1.2534,1.2186,1.2619,1.2705,1.2534,1.1666,1.1408,1.1063,1.0274,1.0009,0.9662,0.8886,0.8803,0.854,0.7749,0.7489,0.7404,0.7404,0.7228,0.7143,0.7231,0.7228,0.7228,0.7228,0.7228,0.7228,0.7228,0.7228,0.7176,0.7056,0.7049,0.698,0.6822,0.6816,0.6805,0.6785,0.6654,0.6585,0.6508,0.6386,0.6407,0.6404,0.6383,0.5977,2.2253,2.3599,2.5087,2.5828,2.5828,2.5688,2.5688,2.5465,2.5511,2.6208,2.6358,2.6496,2.7095,2.7242,2.7377,2.7709,2.8249,2.8457,2.7908,2.8105,2.817,2.7855,0.0,0.0,0.0,0.0,0.0,0.0,0.0,0.0,0.0,2.704,2.6701,2.537,2.5312,2.4515,2.2927,2.3548,2.3475,2.2628,2.2628,2.2553,2.2402,2.1461,2.075,0.0,0.0,1.8416,1.7789,1.7789,1.7789,1.7797,1.7392,1.731,1.7229,1.673,1.6566,1.6566,1.6402,1.5982,1.5567,1.5567,1.5151,1.465,1.4566,1.4566,1.4405,1.373,1.313,1.2619,1.2705,1.2705,1.2619,1.2528,1.1843,1.1235,1.1149,1.0448,0.9923,1.0009,1.0009,1.0009,0.9836,0.9144,0.8627,0.8627,0.7937,0.7503,0.7764,0.7764,0.7764,0.7764,0.7764,0.7764,0.7764,0.7764,0.7753,0.7731,0.7555,0.7396,0.7484,0.748,0.733,0.703,0.7001,0.6908,0.6664,0.6644,0.6713,0.6955,0.6659,0.652,2.1745,2.2585,2.3559,2.4647,2.5453,2.591,2.591,2.5758,2.5746,2.6025,2.6302,2.644,2.6358,2.6756,2.7229,2.7709,2.8249,2.8414,2.7833,2.7907,2.7907,0.0,0.0,0.0,0.0,0.0,0.0,0.0,0.0,0.0,0.0,0.0,2.7175,2.5791,2.5487,2.4707,2.3372,2.3423,2.3276,2.2852,2.2852,2.2777,2.2703,2.2231,2.1527,2.0817,0.0,1.9195,1.8496,1.8112,1.804,1.7959,1.7797,1.7716,1.7716,1.7465,1.7383,1.7383,1.7383,1.7221,1.6968,1.6968,1.6714,1.6386,1.6057,1.5966,1.5801,1.5123,1.4126,1.313,1.279,1.279,1.2881,1.2705,1.2534,1.2363,1.2272,1.2009,1.166,1.1311,1.1225,1.1052,1.0529,1.0096,0.9836,0.9836,0.9492,0.9235,0.9323,0.9323,0.9323,0.9323,0.9323,0.9323,0.9323,0.889,0.8372,0.794,0.7768,0.7731,0.774,0.7737,0.7703,0.7543,0.7451,0.7319,0.7154,0.7072,0.7116,0.7278,0.704,0.7008,2.1308,2.1852,2.2456,2.3683,2.4933,2.591,2.6062,2.598,2.591,2.598,2.6245,2.6383,2.5828,2.6564,2.7297,2.7643,2.8183,2.8383,2.7786,2.7705,2.7664,2.7515,0.0,0.0,0.0,0.0,0.0,0.0,0.0,0.0,0.0,0.0,2.7379,2.6321,2.5881,2.5122,2.3948,2.3408,2.2985,2.2848,2.2848,2.2848,2.2837,2.2689,2.2211,2.1527,2.0904,2.0138,1.9283,1.8745,1.8434,1.8273,1.8201,1.8121,1.804,1.804,1.804,1.804,1.804,1.804,1.804,1.804,1.804,1.787,1.7367,1.7204,1.7115,1.6429,1.5372,1.4307,1.3379,1.3294,1.3385,1.296,1.3137,1.3392,1.3228,1.3313,1.3222,1.2534,1.2357,1.218,1.1477,1.1128,1.1042,1.1047,1.0875,1.0697,1.0788,1.0788,1.0788,1.0788,1.0788,1.0788,1.0788,1.0096,0.941,0.8723,0.8204,0.8032,0.8032,0.8032,0.8032,0.794,0.7812,0.7744,0.7658,0.7539,0.7567,0.7563,0.7526,0.7507,2.0634,2.1538,2.2574,2.3379,2.4192,2.4933,2.5535,2.5758,2.598,2.6131,2.6062,2.598,2.6131,2.6714,2.7229,2.7229,2.7987,2.8383,2.7786,0.0,2.7501,0.0,0.0,0.0,0.0,0.0,0.0,0.0,0.0,0.0,0.0,0.0,0.0,2.6841,2.6321,2.5697,2.4933,2.3849,2.3003,2.2368,2.2368,2.2368,2.2368,2.2368,2.223,2.2025,2.2025,2.1252,2.0089,2.0079,1.9696,1.9143,1.8772,1.8371,1.804,1.804,1.804,1.804,1.804,1.804,1.804,1.804,1.804,1.7951,1.7951,1.7951,1.7789,1.7123,1.687,1.6453,1.4956,1.4531,1.4378,1.3555,1.3398,1.3398,1.3398,1.3392,1.3483,1.3561,1.3568,1.3561,1.3476,1.2766,1.2163,1.2272,1.1569,1.1047,1.1235,1.1235,1.1235,1.1235,1.1235,1.1235,1.1235,1.1149,1.1149,1.1063,0.924,0.8292,0.8568,0.8568,0.8476,0.8201,0.8189,0.8093,0.7837,0.7826,0.7994,0.8158,0.7741,0.7758,2.0566,2.1031,2.1634,2.2446,2.339,2.448,2.5873,2.6245,2.6314,2.6396,2.6327,2.6258,2.6213,2.6782,2.7229,2.7229,2.7668,2.7841,2.7244,2.6823,0.0,0.0,0.0,0.0,0.0,0.0,0.0,0.0,0.0,0.0,0.0,0.0,0.0,2.6361,2.5635,2.4962,2.4302,2.3374,2.2594,2.2026,2.2132,2.2066,2.1865,2.1865,2.1984,2.2209,2.1829,2.1528,2.1328,2.0557,2.0079,1.9775,1.9311,1.8993,1.8825,1.8825,1.8825,1.8825,1.8825,1.8825,1.8825,1.8825,1.8825,1.8825,1.8825,1.8825,1.8745,1.8496,1.8416,1.7827,1.5357,1.4789,1.4629,1.3639,1.3652,1.3828,1.3652,1.3743,1.3828,1.3913,1.3913,1.3913,1.3913,1.3717,1.362,1.3633,1.3451,1.336,1.3372,1.3372,1.3372,1.3372,1.3372,1.3197,1.2687,1.2601,1.2345,1.1735,1.0707,0.9941,0.9428,0.9428,0.9082,0.8472,0.856,0.856,0.83,0.8472,0.8556,0.8644,0.8487,0.8541,2.0566,2.0809,2.1205,2.2014,2.3032,2.4253,2.5804,2.6314,2.6533,2.6533,2.6533,2.6465,2.6339,2.6782,2.7229,2.7417,2.7546,2.755,2.7133,0.0,0.0,0.0,0.0,0.0,0.0,0.0,0.0,0.0,0.0,0.0,0.0,0.0,0.0,0.0,2.5534,2.4873,2.4369,2.3412,2.2647,2.207,2.2033,2.1812,2.157,2.1638,2.1904,2.2226,2.1854,2.1734,2.1805,2.0807,2.0245,1.9932,1.946,1.9301,1.9301,1.9301,1.9301,1.9301,1.9301,1.9301,1.9301,1.9301,1.9301,1.9301,1.9301,1.9301,1.9301,1.9301,1.9381,1.8886,1.6421,1.5696,1.5379,1.4398,1.4237,1.4243,1.4068,1.4159,1.425,1.425,1.425,1.425,1.425,1.4405,1.4482,1.4482,1.465,1.4734,1.4734,1.4734,1.4734,1.4734,1.4734,1.4475,1.388,1.3789,1.3535,1.293,1.2516,1.1832,1.0626,1.0539,1.0284,0.9685,0.9515,0.934,0.9257,0.9087,0.8999,0.8999,0.8999,0.9087,2.0566,2.0886,2.1425,2.222,2.3231,2.4264,2.5087,2.5886,2.6533,2.6533,2.6533,2.6533,2.6533,2.6782,2.7229,2.7855,2.7763,2.7619,0.0,0.0,0.0,0.0,0.0,0.0,0.0,0.0,0.0,0.0,0.0,0.0,0.0,0.0,0.0,0.0,2.6233,2.5785,2.5281,2.4243,2.3286,2.2462,2.1985,2.1614,2.1408,2.1729,2.1991,2.2067,2.2133,2.1825,2.1261,2.105,2.0401,1.9557,1.939,1.9301,1.9301,1.9301,1.9301,1.9301,1.9301,1.9301,1.9301,1.9301,1.9301,1.9301,1.9301,1.9301,1.9301,1.9301,1.9469,1.939,1.855,1.7666,1.6788,1.5899,1.5235,1.4734,1.4734,1.4734,1.4734,1.4734,1.4734,1.4734,1.4734,1.4734,1.4734,1.4734,1.4734,1.4734,1.4734,1.4734,1.4734,1.4734,1.4734,1.4734,1.4734,1.4734,1.4734,1.4734,1.4734,1.3873,1.2072,1.1986,1.1986,1.1986,1.1058,1.0636,1.0636,0.9777,0.9345,0.9349,0.9349,0.9349,2.0898,2.0974,2.1282,2.1645,2.2446,2.3316,2.4264,2.5511,2.6533,2.6533,2.6533,2.6533,2.6533,2.6782,2.6912,2.6791,2.687,2.6823,0.0,0.0,0.0,0.0,0.0,0.0,0.0,0.0,0.0,0.0,0.0,0.0,0.0,0.0,0.0,0.0,2.5055,2.457,2.409,2.3464,2.2849,2.23,2.2133,2.1757,2.1259,2.1388,2.1598,2.1957,2.197,2.1818,2.1538,2.1314,2.1014,2.0615,2.0605,2.0605,2.0527,1.9932,1.9706,1.9706,1.9706,1.9706,1.9706,1.9706,1.9706,1.9706,1.9706,1.9706,1.9706,1.9706,1.9784,1.9784,1.945,1.8886,1.8158,1.7098,1.6206,1.5628,1.5628,1.5144,1.4734,1.4734,1.4734,1.4734,1.4734,1.4824,1.4999,1.4999,1.5082,1.5173,1.5173,1.5173,1.5173,1.5173,1.5173,1.5173,1.5173,1.5173,1.5173,1.5173,1.5173,1.4566,1.3021,1.3021,1.2674,1.1986,1.1901,1.1735,1.1563,1.1477,1.1144,1.0467,1.0467,1.0207,2.1025,2.1061,2.1282,2.1425,2.2166,2.3117,2.4276,2.5581,2.6533,2.6533,2.6533,2.6533,2.6533,2.6658,2.6739,2.6439,2.6542,2.6552,0.0,0.0,0.0,0.0,0.0,0.0,0.0,0.0,0.0,0.0,0.0,0.0,0.0,0.0,0.0,0.0,2.4523,2.4176,2.3872,2.3258,2.2726,2.2494,2.2309,2.1999,2.1612,2.1612,2.1649,2.1823,2.1824,2.1587,2.109,2.0916,2.0925,2.0959,2.0513,2.0688,2.0981,2.0167,1.9863,1.9863,1.9863,1.9863,1.9863,1.9863,1.9863,1.9863,1.9863,1.9863,1.9863,1.9863,1.9942,2.002,2.002,1.9854,1.9362,1.823,1.7342,1.6772,1.6772,1.6124,1.547,1.547,1.5235,1.4999,1.4999,1.509,1.5257,1.5257,1.5347,1.5431,1.5431,1.5431,1.5431,1.5431,1.5506,1.5499,1.5499,1.559,1.568,1.568,1.568,1.5333,1.4468,1.4307,1.3964,1.336,1.3105,1.293,1.2845,1.2589,1.2163,1.166,1.166,1.1235,2.1035,2.1138,2.1282,2.1502,2.2252,2.3361,2.4802,2.5734,2.6383,2.6452,2.6533,2.6533,2.6533,2.6533,2.6523,2.6531,2.6538,0.0,0.0,0.0,0.0,0.0,0.0,0.0,0.0,0.0,0.0,0.0,0.0,0.0,0.0,0.0,0.0,0.0,2.4593,2.435,2.4234,2.3424,2.2909,0.0,2.2432,2.2197,2.2197,2.2197,2.2049,2.1749,2.1758,2.1217,2.0338,2.0124,2.039,2.079,1.9853,2.0183,2.1074,2.0333,1.9982,1.9942,1.9942,1.9942,1.9942,1.9942,1.9942,1.9942,1.9942,1.9942,1.9942,1.9942,2.0177,2.0342,2.0342,2.0489,2.0401,1.9441,1.8638,1.8078,1.8078,1.7423,1.678,1.678,1.6147,1.5506,1.5506,1.5506,1.5431,1.5431,1.5431,1.5431,1.5431,1.5431,1.5514,1.559,1.5741,1.5816,1.5816,1.6072,1.617,1.6087,1.6087,1.6087,1.6087,1.568,1.5431,1.5431,1.4657,1.4307,1.4307,1.3444,1.293,1.2845,1.2845,1.2339,2.1572,2.1512,2.1655,2.1731,2.2402,2.3075,2.3434,2.4587,2.5734,2.6383,2.6533,2.6533,2.6533,2.6533,2.6206,2.5342,0.0,0.0,0.0,0.0,0.0,0.0,0.0,0.0,0.0,0.0,0.0,0.0,0.0,0.0,0.0,0.0,0.0,2.5369,2.5061,2.4523,2.3917,2.3577,2.3113,0.0,2.2309,2.2197,2.2197,2.2197,2.2185,2.2061,2.1516,2.0984,2.0619,2.0687,2.0967,2.1317,2.1105,2.1392,2.188,2.1079,2.0635,2.0411,2.0411,2.0411,2.0411,2.0411,2.0411,2.0411,2.0411,2.0411,2.0411,2.0411,2.0576,2.0741,2.0741,2.0896,2.1041,2.0809,1.9844,1.9054,1.9054,1.8327,1.7755,1.7755,1.7025,1.646,1.646,1.5974,1.5748,1.5922,1.5922,1.5922,1.5922,1.5922,1.6154,1.678,1.6935,1.6935,1.6935,1.7025,1.6796,1.617,1.6087,1.6087,1.6087,1.6004,1.5922,1.5922,1.5748,1.5665,1.5665,1.5492,1.497,1.428,1.428,1.3776,2.1669,2.1578,2.1655,2.1807,2.2101,2.2553,2.2927,2.3655,2.4515,2.5664,2.6245,2.6533,2.6533,2.6533,2.6101,2.5008,0.0,0.0,0.0,0.0,0.0,0.0,0.0,0.0,0.0,0.0,0.0,0.0,0.0,0.0,0.0,2.5948,2.5839,2.5702,2.5272,2.4865,2.4408,2.3872,2.3292,2.2714,2.242,2.2309,2.2309,2.2247,2.2197,2.2185,2.1788,2.1348,2.0852,2.0599,2.0952,2.1654,2.0902,2.1124,2.1756,2.0969,2.0461,2.0254,2.0254,2.0391,2.0566,2.0566,2.0654,2.0731,2.0731,2.0809,2.0886,2.0886,2.0974,2.1051,2.1051,2.1128,2.1205,2.1205,2.0654,2.0098,2.0177,1.945,1.8798,1.8868,1.8221,1.7488,1.7098,1.6386,1.6072,1.6632,1.6327,1.6087,1.6087,1.6402,1.687,1.7261,1.7738,1.806,1.806,1.8221,1.8069,1.7674,1.7602,1.7602,1.7602,1.7602,1.7123,1.6087,1.6087,1.6087,1.6087,1.6087,1.5831,1.5394,1.5394,1.488,2.1328,2.1185,2.1425,2.1731,2.1807,2.1949,2.2628,2.2927,2.3434,2.4659,2.5664,2.6314,2.6452,2.6377,2.5988,0.0,0.0,0.0,0.0,0.0,0.0,0.0,0.0,0.0,0.0,0.0,0.0,0.0,0.0,0.0,2.6404,2.6336,2.619,2.5988,2.5536,2.5203,2.4948,2.4105,2.3531,2.3078,2.2665,2.242,2.242,2.2309,2.2321,2.2321,2.2321,2.1851,2.1135,2.0549,2.0924,2.1613,2.0485,2.0629,2.1523,2.0758,2.0277,2.0029,2.0043,2.0232,2.0623,2.0702,2.0819,2.0984,2.0984,2.1061,2.1205,2.1205,2.1205,2.1282,2.1282,2.1282,2.1282,2.1282,2.1128,2.1061,2.1205,2.0489,1.9923,2.007,1.9413,1.8523,1.7738,1.7033,1.6796,1.7504,1.696,1.6492,1.6648,1.7115,1.7496,1.7819,1.8621,1.9177,1.9177,1.9423,1.9502,1.9344,1.9344,1.9344,1.9423,1.9423,1.855,1.6812,1.6566,1.6327,1.617,1.617,1.6252,1.6335,1.6409,1.5974,1.9948,2.006,2.0857,2.1568,2.1807,2.1807,2.1959,2.2628,2.3298,2.3508,2.4587,2.5664,2.6383,2.605,2.5523,0.0,0.0,0.0,0.0,0.0,0.0,0.0,0.0,0.0,0.0,0.0,0.0,0.0,0.0,0.0,2.6727,2.6472,2.6283,2.6244,2.5988,2.5439,2.458,2.435,2.3767,2.2909,2.2739,2.2678,2.2678,2.2629,2.2616,2.2616,2.2616,2.2173,2.1325,2.1262,2.1233,2.1227,2.1163,2.1461,2.1829,2.1275,2.0913,2.0627,2.0464,2.0497,2.0607,2.0998,2.1128,2.1138,2.1138,2.1205,2.1205,2.1205,2.1359,2.1436,2.1436,2.1578,2.1731,2.1731,2.1589,2.1359,2.1205,2.1128,2.0964,2.1041,2.0304,1.9492,1.878,1.8621,1.8621,1.9018,1.831,1.7997,1.8789,1.831,1.847,1.9904,2.0216,2.0304,2.0304,2.0304,2.0148,1.9599,1.9599,1.9668,1.9816,1.9816,1.9659,1.9423,1.8318,1.7359,1.6656,1.6656,1.682,1.7229,1.761,1.7529,1.9524,1.9904,2.0615,2.1011,2.1405,2.1807,2.1807,2.2252,2.2777,2.3224,2.4154,2.5229,2.6013,2.5975,2.5686,0.0,0.0,0.0,0.0,0.0,0.0,0.0,0.0,0.0,0.0,0.0,0.0,0.0,0.0,2.6779,2.6779,2.6659,2.6592,2.6592,2.6447,2.5879,2.4794,2.4738,2.4105,2.2909,2.286,2.28,2.28,2.2909,2.286,2.269,2.269,2.2482,2.2099,2.1702,2.1702,2.1963,2.1639,2.1642,2.1766,2.1498,2.1019,2.0487,2.0688,2.0949,2.124,2.1707,2.222,2.2585,2.2155,2.209,2.2101,2.1655,2.1578,2.1655,2.1655,2.1807,2.1959,2.1959,2.1959,2.1959,2.1883,2.1578,2.1436,2.1502,2.0857,2.0304,2.045,1.9737,1.9335,1.9904,1.9265,1.8868,1.9265,1.9344,1.9747,2.0615,2.1088,2.1482,2.1548,2.1548,2.1471,2.1155,2.1155,2.1231,2.1308,2.1308,2.1068,2.0595,1.958,1.8868,1.8479,1.8167,1.8247,1.8807,1.8638,1.8638,1.9259,1.9737,2.0226,2.0459,2.1175,2.1807,2.1883,2.2035,2.2327,2.3001,2.3852,2.4779,2.5581,2.5975,0.0,0.0,0.0,0.0,0.0,0.0,0.0,0.0,0.0,0.0,0.0,0.0,0.0,0.0,0.0,2.6779,2.6779,2.6779,2.6779,2.6779,2.6779,2.6218,2.5007,2.4667,2.3989,2.2969,2.2969,2.2969,2.2969,2.3078,2.2957,2.28,2.28,2.28,2.2739,2.2149,2.2211,2.2678,2.2137,2.1939,2.1939,2.1803,2.1266,2.0742,2.1149,2.1593,2.2067,2.2676,2.3316,2.3745,2.3231,2.3043,2.2927,2.2327,2.2101,2.1959,2.1959,2.2025,2.2176,2.2176,2.2327,2.2402,2.2327,2.1959,2.1655,2.1807,2.1252,2.1011,2.1731,2.0847,2.0207,2.0847,2.0285,1.9806,2.0041,2.045,2.076,2.1155,2.1787,2.2252,2.2402,2.2402,2.2402,2.2478,2.2478,2.2478,2.2553,2.2553,2.2231,2.1603,2.0981,2.044,1.9904,1.9432,1.9502,2.0051,1.9737,1.9737,1.8868,1.9335,1.958,2.0304,2.1175,2.1883,2.2025,2.2252,2.2478,2.2703,2.3486,2.4409,2.5158,2.5784,0.0,0.0,0.0,0.0,0.0,0.0,0.0,0.0,0.0,0.0,0.0,0.0,0.0,0.0,0.0,2.6779,2.6779,2.6779,2.6779,2.6779,2.6779,2.6218,2.5007,2.3813,2.3125,2.3078,2.3078,2.3078,2.3078,2.3078,2.3078,2.3078,2.3078,2.3017,2.2909,2.2848,2.28,2.2678,2.2787,2.2848,2.2775,2.2237,2.2063,2.2032,2.2382,2.2548,2.2731,2.3715,2.4036,2.4047,2.4036,2.3706,2.3298,2.3224,2.2777,2.2402,2.2402,2.2402,2.2402,2.2402,2.2402,2.2327,2.2176,2.2111,2.2035,2.1807,2.1731,2.1807,2.2025,2.2025,2.2025,2.2252,2.1538,2.1298,2.2166,2.1538,2.1375,2.2252,2.2327,2.2402,2.2402,2.2402,2.2478,2.2703,2.2703,2.2777,2.2927,2.3001,2.2927,2.2927,2.2841,2.1842,1.9904,1.9904,2.0051,2.0498,2.0817,2.0817,1.744,1.8078,1.8709,1.9668,2.0537,2.1395,2.2101,2.2478,2.2628,2.2703,2.3475,2.4192,2.4492,2.5188,0.0,0.0,0.0,0.0,0.0,0.0,0.0,0.0,0.0,0.0,0.0,0.0,0.0,0.0,0.0,0.0,2.6951,2.6951,2.6899,2.6779,2.6779,2.6394,2.5605,2.435,2.3721,2.3721,2.3305,2.3078,2.3078,2.3078,2.3078,2.3078,2.3078,2.3078,2.3017,2.3017,2.3017,2.2969,2.3017,2.3017,2.3017,2.2823,2.2494,2.2258,2.3132,2.3501,2.3747,2.4845,2.5545,2.5849,2.5334,2.504,2.4838,2.4325,2.4036,2.3745,2.3243,2.318,2.3327,2.3475,2.3925,2.4215,2.3963,2.3452,2.2957,2.2883,2.2531,2.2176,2.2252,2.2327,2.2327,2.2402,2.2166,2.209,2.2327,2.2166,2.208,2.2553,2.2628,2.2628,2.2777,2.2777,2.2852,2.2927,2.2927,2.2927,2.3001,2.3001,2.3001,2.3001,2.3001,2.2606,2.1918,2.1461,2.1614,2.2059,2.1852,2.1852,1.6566,1.7277,1.8238,1.9274,2.0138,2.1068,2.2166,2.2553,2.2703,2.2777,2.3276,2.3841,2.4047,2.4613,0.0,0.0,0.0,0.0,0.0,0.0,0.0,0.0,0.0,0.0,0.0,0.0,0.0,0.0,0.0,0.0,2.7093,2.7041,2.7041,2.6937,2.6712,2.6379,2.5988,2.4921,2.4292,2.406,2.3662,2.3305,2.3078,2.3198,2.3198,2.3198,2.3258,2.3198,2.3078,2.3078,2.3078,2.3078,2.3078,2.3138,2.3198,2.3198,2.2944,2.2764,2.3986,2.4446,2.4698,2.5847,2.6564,2.6875,2.6346,2.6045,2.5824,2.531,2.504,2.4755,2.4253,2.4192,2.4337,2.448,2.5063,2.5652,2.5475,2.4672,2.3879,2.3588,2.3095,2.2681,2.2553,2.2478,2.2553,2.2628,2.2628,2.2628,2.2628,2.2628,2.2628,2.2777,2.2777,2.299,2.335,2.3139,2.3139,2.335,2.3139,2.3075,2.3224,2.3224,2.3298,2.3372,2.3582,2.3644,2.3644,2.2841,2.2628,2.3001,2.2628,2.2628,0.0,0.0,0.0,1.9107,2.0051,2.1078,2.2166,2.2553,2.2777,2.2927,2.3001,2.3213,2.3975,2.4047,0.0,0.0,0.0,0.0,0.0,0.0,0.0,0.0,0.0,0.0,0.0,0.0,0.0,0.0,0.0,2.7233,2.7233,2.7181,2.7181,2.7181,2.651,2.6122,2.6122,2.5398,2.4738,2.4118,2.4131,2.3721,2.3138,2.333,2.3403,2.3403,2.3509,2.345,2.3138,2.3138,2.3138,2.3138,2.3138,2.321,2.3403,2.3403,2.3509,2.3782,2.491,2.5294,2.5486,2.664,2.7024,2.7024,2.7024,2.6645,2.6114,2.6114,2.5791,2.5382,2.5312,2.53,2.53,2.53,2.5931,2.6414,2.6414,2.5685,2.4815,2.3806,2.3526,2.339,2.2841,2.2777,2.2777,2.3001,2.3001,2.3001,2.3001,2.3001,2.3001,2.3001,2.3001,2.335,2.4047,2.3486,2.3423,2.4108,2.3486,2.3298,2.3666,2.3666,2.3813,2.4261,2.4743,2.5004,2.5004,2.3717,2.3075,2.3075,2.3075,2.3075,1.6312,0.0,0.0,0.0,0.0,0.0,2.2241,2.2628,2.2777,2.2927,2.3001,2.3075,2.3276,2.3276,2.3369,0.0,0.0,0.0,0.0,0.0,0.0,0.0,0.0,0.0,0.0,0.0,0.0,0.0,2.7152,2.7423,2.735,2.7233,2.7181,2.7181,2.7011,2.6893,2.6893,2.5837,2.5231,2.5007,2.4176,2.3616,2.3437,2.3509,2.3509,2.3569,2.3569,2.3569,2.3437,2.3437,2.3437,2.3437,2.3437,2.3509,2.3509,2.3509,2.3569,2.3782,2.5047,2.551,2.5691,2.6959,2.7335,2.7335,2.7335,2.7255,2.7108,2.7108,2.704,2.6769,2.6208,2.607,2.607,2.607,2.6633,2.7188,2.7188,2.696,2.6539,2.5767,2.4684,2.4047,2.4504,2.407,2.3768,2.3768,2.3768,2.3632,2.3065,2.3001,2.3001,2.3001,2.3632,2.4131,2.4264,2.4767,2.511,2.5322,2.511,2.5052,2.5193,2.5193,2.5264,2.5346,2.5475,2.5545,2.5545,2.5193,2.5052,2.5052,2.4647,2.4238,1.6154,1.6319,1.687,1.8948,0.0,0.0,2.2014,2.2553,2.2703,0.0,2.2927,2.3001,2.3001,2.3001,2.3125,0.0,0.0,0.0,0.0,0.0,0.0,0.0,0.0,0.0,0.0,0.0,0.0,2.6283,2.7137,2.7575,2.7488,2.7437,2.7372,2.7372,2.7335,2.7284,2.7284,2.6283,2.5673,2.5398,2.4452,2.3852,2.3628,2.3688,2.37,2.376,2.3747,2.3806,2.3806,2.3806,2.3747,2.3628,2.3628,2.3628,2.37,2.37,2.3901,2.4343,2.5325,2.5855,2.6206,2.717,2.7523,2.7523,2.7523,2.7523,2.7523,2.7523,2.7523,2.739,2.6973,2.6892,2.696,2.696,2.739,2.7736,2.7736,2.7736,2.7456,2.6564,2.5697,2.5122,2.5346,2.4969,2.4672,2.4826,2.4826,2.4684,2.4204,2.4204,2.4204,2.4204,2.4624,2.511,2.5392,2.5673,2.5951,2.6239,2.5963,2.5894,2.602,2.602,2.6102,2.6321,2.6526,2.6731,2.6989,2.6171,2.5824,2.5824,2.5276,2.4802,1.5997,1.6245,1.6796,1.863,1.9353,0.0,2.1634,2.2327,2.2703,0.0,2.2852,2.3001,2.3001,2.3001,2.3202,0.0,0.0,0.0,0.0,0.0,0.0,0.0,0.0,0.0,0.0,2.5147,2.5728,2.5892,2.6982,2.7625,2.7625,2.7625,2.7625,2.7625,2.7488,2.7401,2.7401,2.6616,2.596,2.5453,2.4794,2.4189,2.3688,2.3819,2.3891,2.3949,2.4067,2.4112,2.4112,2.4112,2.3936,2.3628,2.3628,2.376,2.3891,2.3891,2.4359,2.5053,2.5628,2.6203,2.6765,2.734,2.7523,2.7523,2.7523,2.7523,2.7523,2.7536,2.7603,2.7603,2.7603,2.7723,2.7855,2.7855,2.8,2.8079,2.8079,2.8079,2.7802,2.6769,2.6483,2.6333,2.5881,2.573,2.5742,2.5894,2.5894,2.5881,2.5824,2.5824,2.5824,2.5824,2.5881,2.6227,2.6854,2.6445,2.6377,2.7069,2.6445,2.6296,2.665,2.665,2.6799,2.7175,2.7643,2.8118,2.8587,2.6921,2.6102,2.6032,2.5557,2.5288,1.5741,1.5989,1.6492,1.7691,1.8718,0.0,2.0991,2.1928,2.2553,0.0,2.3001,2.3001,2.3001,2.3001,2.3075,0.0,0.0,0.0,0.0,0.0,0.0,0.0,0.0,0.0,0.0,2.5061,2.5536,2.6457,2.7203,2.7625,2.7625,2.7625,2.7625,2.7625,2.7575,2.7575,2.7575,2.6443,2.5837,2.5728,2.465,2.4112,2.3995,2.4054,2.4067,2.4067,2.4112,2.4112,2.4112,2.4112,2.4054,2.3995,2.3995,2.4054,2.4067,2.4067,2.4478,2.5053,2.5628,2.6203,2.6765,2.734,2.7523,2.7523,2.7523,2.759,2.7789,2.7947,2.8013,2.8013,2.8013,2.8013,2.8013,2.8013,2.8079,2.8079,2.8079,2.8079,2.8013,2.7802,2.7229,2.6947,2.751,2.7082,2.665,2.665,2.6718,2.6445,2.5894,2.5824,2.5824,2.5824,2.6501,2.6976,2.7111,2.7683,2.8105,2.8249,2.8105,2.8105,2.817,2.817,2.8183,2.8314,2.8392,2.8522,2.8587,2.8235,2.7829,2.743,2.7297,2.7027,1.5658,1.5824,1.6154,1.7375,1.8086,0.0,0.0,2.0914,2.169,2.1842,2.2392,2.2852,2.2852,2.2927,2.3001,2.3001,0.0,0.0,0.0,0.0,0.0,0.0,0.0,0.0,0.0,2.4835,2.5328,2.6176,2.6826,2.7152,2.7152,2.7458,2.7625,2.7625,2.7625,2.7625,2.7625,2.6721,2.6122,2.5783,2.4935,2.4563,2.4563,2.4229,2.4287,2.4505,2.4229,2.4157,2.4203,2.4203,2.4274,2.4345,2.4171,2.4157,2.4203,2.4203,2.4767,2.5555,2.5782,2.6501,2.7262,2.7564,2.7736,2.7802,2.7802,2.7868,2.8,2.8079,2.8079,2.8079,2.8079,2.8131,2.8183,2.8183,2.8262,2.8341,2.8341,2.8341,2.8341,2.8341,2.8039,2.7829,2.8118,2.7894,2.7617,2.7749,2.7762,2.7617,2.7271,2.7204,2.7204,2.7204,2.7617,2.7881,2.7881,2.8314,2.8587,2.8587,2.8587,2.8587,2.8587,2.878,2.8908,2.9099,2.9324,2.9435,2.9435,2.9642,2.9219,2.8183,2.7908,2.7776,1.5575,1.565,1.5982,1.7131,1.7538,1.7934,0.0,0.0,0.0,2.0837,0.0,0.0,2.2628,0.0,0.0,0.0,0.0,0.0,0.0,0.0,0.0,0.0,0.0,0.0,0.0,2.4677,2.516,2.5632,2.6176,2.6563,2.6683,2.7152,2.7458,2.7625,2.7625,2.7625,2.7625,2.6982,2.6457,2.596,2.5425,2.516,2.5104,2.4563,2.4607,2.5147,2.4434,2.4261,2.4509,2.4408,2.4421,2.4563,2.4287,2.4261,2.4376,2.4482,2.5137,2.6074,2.6192,2.6982,2.7855,2.7855,2.8,2.8079,2.8131,2.8131,2.8145,2.821,2.821,2.821,2.821,2.8249,2.8365,2.8365,2.8509,2.8587,2.8587,2.8587,2.8587,2.8587,2.8587,2.8522,2.8365,2.8365,2.843,2.8587,2.8587,2.8587,2.8587,2.8587,2.8587,2.8587,2.8651,2.8716,2.8716,2.878,2.878,2.878,2.878,2.8844,2.8894,2.9261,2.956,2.9822,3.0208,3.0435,3.0435,3.0763,3.0286,2.9058,2.8597,2.8519,1.5423,1.5582,0.0,0.0,1.6976,1.7853,0.0,0.0,2.0837,2.1068,0.0,0.0,2.2402,0.0,0.0,0.0,0.0,0.0,0.0,0.0,0.0,0.0,0.0,0.0,0.0,0.0,2.5005,2.5118,2.5577,2.6122,2.6669,2.6774,2.7049,2.7575,2.7625,2.7625,2.7625,2.6982,2.6669,2.6563,2.6014,2.5742,2.5687,2.516,2.5258,2.5809,2.4724,2.4681,2.5245,2.4765,2.4549,2.462,2.4563,2.4563,2.4616,2.5076,2.5674,2.6312,2.6894,2.7506,2.8079,2.8079,2.8079,2.8145,2.8235,2.83,2.83,2.8522,2.8522,2.8522,2.8522,2.8522,2.8587,2.8587,2.8587,2.8587,2.8587,2.8587,2.8587,2.8587,2.8587,2.8587,2.8587,2.8587,2.8587,2.8587,2.8587,2.8587,2.8587,2.8587,2.8587,2.8587,2.8844,2.9035,2.9035,2.9289,2.9477,2.9477,2.9477,2.9637,3.0086,3.048,3.069,3.0749,3.0808,3.0808,3.0808,3.0867,3.0808,3.063,3.0556,3.0556,1.5431,0.0,0.0,0.0,0.0,0.0,1.7107,0.0,1.9027,0.0,0.0,0.0,0.0,0.0,0.0,0.0,2.2573,0.0,0.0,0.0,0.0,0.0,0.0,0.0,0.0,0.0,0.0,0.0,0.0,2.5425,2.5701,2.6351,2.6841,2.7049,2.7408,2.7625,2.7625,2.7357,2.7049,2.6683,2.6457,2.639,2.6428,2.5823,2.5986,2.6573,2.5439,2.5175,2.5508,2.5245,2.5048,2.4892,2.523,2.5118,2.4801,2.5378,2.5908,2.6497,2.7086,2.7688,2.8249,2.8327,2.8406,2.8392,2.8444,2.8739,2.8967,2.8638,2.8881,2.9044,2.8716,2.8587,2.8651,2.8844,2.8908,2.8908,2.9162,2.9162,2.9162,2.9162,2.9162,2.9162,2.9162,2.9035,2.9022,2.9498,2.9608,2.967,2.9875,2.9718,2.9608,2.9608,2.9449,2.9415,2.9415,2.954,2.9713,2.9993,3.0208,3.0555,3.0896,3.113,3.1304,3.1492,3.1762,3.1875,3.1875,3.217,3.2281,3.2281,3.1332,3.0984,1.5431,0.0,0.0,0.0,0.0,0.0,0.0,0.0,0.0,0.0,0.0,0.0,0.0,0.0,2.1973,2.2083,0.0,2.2649,0.0,2.3587,0.0,0.0,0.0,0.0,0.0,0.0,0.0,0.0,2.4505,2.4835,2.5005,2.592,2.651,2.6683,2.7306,2.7625,2.7625,2.7625,2.7408,2.6997,2.7049,2.71,2.7174,2.6573,2.6678,2.7342,2.6215,2.5837,2.6094,2.5932,2.5728,2.5481,2.5784,2.5564,2.5143,2.5815,2.625,2.6721,2.7476,2.8015,2.843,2.8522,2.8702,2.8817,2.8817,2.9282,2.9766,2.9296,2.9407,2.9642,2.9184,2.8958,2.8908,2.9162,2.9338,2.9512,2.9713,2.9884,2.9931,2.9931,2.9931,2.9993,3.0054,2.9651,2.9463,3.0208,3.0329,3.0435,3.0867,3.0645,3.048,3.048,3.0222,3.0054,3.0054,3.019,3.0358,3.0748,3.1115,3.1462,3.1721,3.1834,3.2018,3.2272,3.2602,3.2765,3.2765,3.3118,3.3361,3.3503,3.2155,3.1705,0.0,0.0,0.0,1.5658,0.0,0.0,0.0,0.0,1.7342,0.0,0.0,0.0,2.0041,2.0605,2.1014,2.1345,2.1956,0.0,0.0,0.0,0.0,0.0,0.0,0.0,0.0,0.0,0.0,2.4112,2.4112,2.439,2.4948,2.5536,2.6122,2.6669,2.7306,2.7625,2.7625,2.774,2.779,2.779,2.7905,2.7955,2.7955,2.7342,2.7494,2.8073,2.6982,2.6864,2.7414,2.6886,2.6678,2.6573,2.6096,2.5893,2.5938,2.6526,2.6809,2.6925,2.8166,2.8573,2.8587,2.8587,2.8994,2.9442,2.9442,3.0058,3.0659,3.0659,3.0435,3.0269,3.0269,2.9931,2.954,2.9602,2.9931,3.0269,3.0269,3.06,3.0867,3.0867,3.0867,3.0984,3.1304,3.0343,2.9775,3.0208,3.0329,3.0435,3.0867,3.0867,3.0867,3.0867,3.1174,3.1362,3.1362,3.1622,3.1823,3.1879,3.2312,3.2532,3.2532,3.3011,3.324,3.324,3.3256,3.3309,3.3309,3.3309,3.3555,3.405,3.3503,3.324,0.0,0.0,1.5431,1.5499,0.0,0.0,0.0,0.0,0.0,0.0,0.0,0.0,0.0,2.0304,2.1288,2.1449,2.1845,2.2188,0.0,2.3018,0.0,0.0,0.0,0.0,0.0,0.0,0.0,2.4112,2.4112,2.4332,0.0,2.5536,2.6068,2.6669,2.7357,2.774,2.774,2.7855,2.7905,2.7905,2.7955,2.8054,2.8152,2.7925,2.8024,2.8299,2.7479,2.7312,2.7464,2.7297,2.7041,2.6678,2.6481,2.619,2.5992,2.6523,2.702,2.7621,2.8802,2.9484,2.9794,2.9345,2.969,3.0286,3.0286,3.0881,3.142,3.094,3.1057,3.1246,3.0822,3.06,3.0555,3.0748,3.0911,3.1087,3.1334,3.145,3.1549,3.1549,3.1549,3.1622,3.1679,3.1407,3.1291,3.1721,3.1834,3.2003,3.2407,3.2226,3.2059,3.2059,3.1849,3.1751,3.1751,3.2145,3.2367,3.2367,3.278,3.3065,3.3065,3.3539,3.3658,3.3309,3.3658,3.3848,3.3848,3.3848,3.4084,3.4545,3.4399,3.4118,1.5431,1.5431,0.0,1.5431,1.5431,0.0,1.5582,0.0,0.0,0.0,0.0,0.0,0.0,1.9904,2.0712,2.1492,2.1731,2.1962,0.0,2.2784,0.0,0.0,0.0,2.4112,0.0,2.4112,2.4112,2.4112,2.4112,2.4332,0.0,0.0,2.6122,2.6759,2.7458,2.784,2.7855,2.8005,2.8054,2.8054,2.8103,2.8201,2.8284,2.8284,2.8299,2.8396,2.8008,2.7845,2.7845,2.7845,2.7645,2.7276,2.7056,2.6797,2.6476,2.6637,2.7413,2.8537,2.9533,3.0133,3.045,3.0011,3.0421,3.1087,3.1087,3.1664,3.2195,3.146,3.1693,3.1998,3.1306,3.1183,3.1304,3.1549,3.1721,3.189,3.2089,3.2272,3.2398,3.2398,3.2398,3.2398,3.2398,3.2398,3.2437,3.2602,3.2586,3.2765,3.324,3.3065,3.2834,3.2834,3.2547,3.2398,3.2398,3.2672,3.2834,3.2834,3.333,3.3591,3.3591,3.4084,3.4184,3.3832,3.4168,3.4366,3.4366,3.4366,3.4593,3.5052,3.4958,3.4816]}]]